[[{"header":{"parameterUnit":"m.s-1","parameterCategory":1,"la1":31.0,"la2":29.5877,"lo1":-88.7671,"lo2":-86.6584,"dy":0.0162,"dx":0.0185,"nx":115,"ny":88,"refTime":"2024-02-12T12:00:00:Z","depth":0,"parameterNumber":2,"parameterNumberName":"U-component_of_WINDS"},"data":[0.0,0.0,0.0,0.0,0.0,0.0,0.0,0.0,0.0,0.0,0.0,0.0,0.0,0.0,0.0,0.0,0.0,0.0,0.0,0.0,0.0,0.0,0.0,0.0,0.0,0.0,0.0,0.0,0.0,0.0,0.0,0.0,0.0,0.0,0.0,0.0,0.0,0.0,0.0,0.0,0.0,0.0,0.0,0.0,0.0,0.0,0.0,0.0,0.0,0.0,0.0,0.0,0.0,0.0,0.0,0.0,0.0,0.0,0.0,0.0,0.0,0.0,0.0,0.0,0.0,0.0,0.0,0.0,0.0,0.0,0.0,0.0,0.0,0.0,0.0,0.0,0.0,0.0,0.0,0.0,0.0,0.0,0.0,0.0,0.0,0.0,0.0,0.0,0.0,0.0,0.0,0.0,0.0,0.0,0.0,0.0,0.0,0.0,0.0,0.0,0.0,0.0,0.0,0.0,0.0,0.0,0.0,0.0,0.0,0.0,0.0,0.0,0.0,0.0,0.0,0.0,0.0,0.0,0.0,0.0,0.0,0.0,0.0,0.0,0.0,0.0,0.0,0.0,0.0,0.0,0.0,0.0,0.0,0.0,0.0,0.0,0.0,0.0,0.0,0.0,0.0,0.0,0.0,0.0,0.0,0.0,0.0,0.0,0.0,0.0,0.0,0.0,0.0,0.0,0.0,0.0,0.0,0.0,0.0,0.0,0.0,0.0,0.0,0.0,0.0,0.0,0.0,0.0,0.0,0.0,0.0,0.0,0.0,0.0,0.0,0.0,0.0,0.0,0.0,0.0,0.0,0.0,0.0,0.0,0.0,0.0,0.0,0.0,0.0,0.0,0.0,0.0,0.0,0.0,0.0,0.0,0.0,0.0,0.0,0.0,0.0,0.0,0.0,0.0,0.0,0.0,0.0,0.0,0.0,0.0,0.0,0.0,0.0,0.0,0.0,0.0,0.0,0.0,0.0,0.0,0.0,0.0,0.0,0.0,0.0,0.0,0.0,0.0,0.0,0.0,0.0,0.0,0.0,0.0,0.0,0.0,0.0,0.0,0.0,0.0,0.0,0.0,0.0,0.0,0.0,0.0,0.0,0.0,0.0,0.0,0.0,0.0,0.0,0.0,0.0,0.0,0.0,0.0,0.0,0.0,0.0,0.0,0.0,0.0,0.0,0.0,0.0,0.0,0.0,0.0,0.0,0.0,0.0,0.0,0.0,0.0,0.0,0.0,0.0,0.0,0.0,0.0,0.0,0.0,0.0,0.0,0.0,0.0,0.0,0.0,0.0,0.0,0.0,0.0,0.0,0.0,0.0,0.0,0.0,0.0,0.0,0.0,0.0,0.0,0.0,0.0,0.0,0.0,0.0,0.0,0.0,0.0,0.0,0.0,0.0,0.0,0.0,0.0,0.0,0.0,0.0,0.0,0.0,0.0,0.0,0.0,0.0,0.0,0.0,0.0,0.0,0.0,0.0,0.0,0.0,0.0,0.0,0.0,0.0,0.0,0.0,0.0,0.0,0.0,0.0,0.0,0.0,0.0,0.0,0.0,0.0,0.0,0.0,0.0,0.0,0.0,0.0,0.0,0.0,0.0,0.0,0.0,0.0,0.0,0.0,0.0,0.0,0.0,0.0,0.0,0.0,0.0,0.0,0.0,0.0,0.0,0.0,0.0,0.0,0.0,0.0,0.0,0.0,0.0,0.0,0.0,0.0,0.0,0.0,0.0,0.0,0.0,0.0,0.0,0.0,0.0,0.0,0.0,0.0,0.0,0.0,0.0,0.0,0.0,0.0,0.0,0.0,0.0,0.0,0.0,0.0,0.0,0.0,0.0,0.0,0.0,0.0,0.0,0.0,0.0,0.0,0.0,0.0,0.0,0.0,0.0,0.0,0.0,0.0,0.0,0.0,0.0,0.0,0.0,0.0,0.0,0.0,0.0,0.0,0.0,0.0,0.0,0.0,0.0,0.0,0.0,0.0,0.0,0.0,0.0,0.0,0.0,0.0,0.0,0.0,0.0,0.0,0.0,0.0,0.0,0.0,0.0,0.0,0.0,0.0,0.0,0.0,0.0,0.0,0.0,0.0,0.0,0.0,0.0,0.0,0.0,0.0,0.0,0.0,0.0,0.0,0.0,0.0,0.0,0.0,0.0,0.0,0.0,0.0,0.0,0.0,0.0,0.0,0.0,0.0,0.0,0.0,0.0,0.0,0.0,0.0,0.0,0.0,0.0,0.0,0.0,0.0,0.0,0.0,0.0,0.0,0.0,0.0,0.0,0.0,0.0,0.0,0.0,0.0,0.0,0.0,0.0,0.0,0.0,0.0,0.0,0.0,0.0,0.0,0.0,0.0,0.0,0.0,0.0,0.0,0.0,0.0,0.0,0.0,0.0,0.0,0.0,0.0,0.0,0.0,0.0,0.0,0.0,0.0,0.0,0.0,0.0,0.0,0.0,0.0,0.0,0.0,0.0,0.0,0.0,0.0,0.0,0.0,0.0,0.0,0.0,0.0,0.0,0.0,0.0,0.0,0.0,0.0,0.0,0.0,0.0,0.0,0.0,0.0,0.0,0.0,0.0,0.0,0.0,0.0,0.0,0.0,0.0,0.0,0.0,0.0,0.0,0.0,0.0,0.0,0.0,0.0,0.0,0.0,0.0,0.0,0.0,0.0,0.0,0.0,0.0,0.0,0.0,0.0,0.0,0.0,0.0,0.0,0.0,0.0,0.0,0.0,0.0,0.0,0.0,0.0,0.0,0.0,0.0,0.0,0.0,0.0,0.0,0.0,0.0,0.0,0.0,0.0,0.0,0.0,0.0,0.0,0.0,0.0,0.0,0.0,0.0,0.0,0.0,0.0,0.0,0.0,0.0,0.0,0.0,0.0,0.0,0.0,0.0,0.0,0.0,0.0,0.0,0.0,0.0,0.0,0.0,0.0,0.0,0.0,0.0,0.0,0.0,0.0,0.0,0.0,0.0,0.0,0.0,0.0,0.0,0.0,0.0,0.0,0.0,0.0,0.0,0.0,0.0,0.0,0.0,0.0,0.0,0.0,0.0,0.0,0.0,0.0,0.0,0.0,0.0,0.0,0.0,0.0,0.0,0.0,0.0,0.0,0.0,0.0,0.0,0.0,0.0,0.0,0.0,0.0,0.0,0.0,0.0,0.0,0.0,0.0,0.0,0.0,0.0,0.0,0.0,0.0,0.0,0.0,0.0,0.0,0.0,0.0,0.0,0.0,0.0,0.0,0.0,0.0,0.0,0.0,0.0,0.0,0.0,0.0,0.0,0.0,0.0,0.0,0.0,0.0,0.0,0.0,0.0,0.0,0.0,0.0,0.0,0.0,0.0,0.0,0.0,0.0,0.0,0.0,0.0,0.0,0.0,0.0,0.0,0.0,0.0,0.0,0.0,0.0,0.0,0.0,0.0,0.0,0.0,0.0,0.0,0.0,0.0,0.0,0.0,0.0,0.0,0.0,0.0,0.0,0.0,0.0,0.0,0.0,0.0,0.0,0.0,0.0,0.0,0.0,0.0,0.0,0.0,0.0,0.0,0.0,0.0,0.0,0.0,0.0,0.0,0.0,0.0,0.0,0.0,0.0,0.0,0.0,0.0,0.0,0.0,0.0,0.0,0.0,0.0,0.0,0.0,0.0,0.0,0.0,0.0,0.0,0.0,0.0,0.0,0.0,0.0,0.0,0.0,0.0,0.0,0.0,0.0,0.0,0.0,0.0,0.0,0.0,0.0,0.0,0.0,0.0,0.0,0.0,0.0,0.0,0.0,0.0,0.0,0.0,0.0,0.0,0.0,0.0,0.0,0.0,0.0,0.0,0.0,0.0,0.0,0.0,0.0,0.0,0.0,0.0,0.0,0.0,0.0,0.0,0.0,0.0,0.0,0.0,0.0,0.0,0.0,0.0,0.0,0.0,0.0,0.0,0.0,0.0,0.0,0.0,0.0,0.0,0.0,0.0,0.0,0.0,0.0,0.0,0.0,0.0,0.0,0.0,0.0,0.0,0.0,0.0,0.0,0.0,0.0,0.0,0.0,0.0,0.0,0.0,0.0,0.0,0.0,0.0,0.0,0.0,0.0,0.0,0.0,0.0,0.0,0.0,0.0,0.0,0.0,0.0,0.0,0.0,0.0,0.0,0.0,0.0,0.0,0.0,0.0,0.0,0.0,0.0,0.0,0.0,0.0,0.0,0.0,0.0,0.0,0.0,0.0,0.0,0.0,0.0,0.0,0.0,0.0,0.0,0.0,0.0,0.0,0.0,0.0,2.7521,0.0,0.0,0.0,0.0,0.0,0.0,0.0,0.0,0.0,0.0,0.0,0.0,0.0,0.0,0.0,0.0,0.0,0.0,0.0,0.0,0.0,0.0,0.0,0.0,0.0,0.0,0.0,0.0,0.0,0.0,0.0,0.0,0.0,0.0,0.0,0.0,0.0,0.0,0.0,0.0,0.0,0.0,0.0,0.0,0.0,0.0,0.0,0.0,0.0,0.0,0.0,0.0,0.0,0.0,0.0,0.0,0.0,0.0,0.0,0.0,0.0,0.0,0.0,0.0,0.0,0.0,0.0,0.0,0.0,0.0,0.0,0.0,0.0,0.0,0.0,0.0,0.0,0.0,0.0,0.0,0.0,0.0,0.0,0.0,0.0,0.0,0.0,0.0,0.0,0.0,0.0,0.0,0.0,0.0,0.0,0.0,0.0,0.0,0.0,0.0,0.0,0.0,0.0,0.0,0.0,0.0,0.0,0.0,0.0,0.0,2.9213,2.9213,2.8379,2.79,2.7762,0.0,0.0,0.0,0.0,0.0,0.0,0.0,0.0,0.0,0.0,0.0,0.0,0.0,0.0,0.0,0.0,0.0,0.0,0.0,0.0,0.0,0.0,0.0,0.0,0.0,0.0,0.0,0.0,0.0,0.0,0.0,0.0,0.0,0.0,0.0,0.0,0.0,0.0,0.0,0.0,0.0,0.0,0.0,0.0,0.0,0.0,0.0,0.0,0.0,0.0,0.0,0.0,0.0,0.0,0.0,0.0,0.0,0.0,0.0,0.0,0.0,0.0,0.0,0.0,0.0,0.0,0.0,0.0,0.0,0.0,0.0,0.0,0.0,0.0,0.0,0.0,0.0,0.0,0.0,0.0,0.0,0.0,0.0,0.0,0.0,0.0,0.0,0.0,0.0,0.0,0.0,0.0,0.0,0.0,0.0,0.0,0.0,0.0,0.0,0.0,0.0,0.0,0.0,0.0,0.0,0.0,0.0,0.0,0.0,0.0,0.0,0.0,2.8648,2.8321,2.8288,0.0,0.0,0.0,0.0,0.0,0.0,0.0,0.0,0.0,0.0,0.0,0.0,0.0,0.0,0.0,0.0,0.0,0.0,0.0,0.0,0.0,0.0,0.0,0.0,0.0,0.0,0.0,0.0,0.0,0.0,0.0,0.0,0.0,0.0,0.0,0.0,0.0,0.0,0.0,0.0,0.0,0.0,0.0,0.0,0.0,0.0,0.0,0.0,0.0,0.0,0.0,0.0,0.0,0.0,0.0,0.0,0.0,0.0,0.0,0.0,0.0,0.0,0.0,0.0,0.0,0.0,0.0,0.0,0.0,0.0,0.0,0.0,0.0,0.0,0.0,0.0,0.0,0.0,0.0,0.0,0.0,0.0,0.0,0.0,0.0,0.0,0.0,0.0,0.0,0.0,0.0,0.0,0.0,0.0,0.0,0.0,0.0,0.0,0.0,0.0,0.0,0.0,0.0,0.0,0.0,0.0,0.0,0.0,0.0,0.0,2.898,3.0057,2.9705,0.0,2.9182,0.0,0.0,0.0,0.0,0.0,0.0,0.0,0.0,0.0,0.0,0.0,0.0,0.0,0.0,0.0,0.0,0.0,0.0,0.0,0.0,0.0,0.0,0.0,0.0,0.0,0.0,0.0,0.0,0.0,0.0,0.0,0.0,0.0,0.0,0.0,0.0,0.0,0.0,0.0,0.0,0.0,0.0,0.0,0.0,0.0,0.0,0.0,0.0,0.0,0.0,0.0,0.0,0.0,0.0,0.0,0.0,0.0,0.0,0.0,0.0,0.0,0.0,0.0,0.0,0.0,0.0,0.0,0.0,0.0,0.0,0.0,0.0,0.0,0.0,0.0,0.0,0.0,0.0,0.0,0.0,0.0,0.0,0.0,0.0,0.0,0.0,0.0,0.0,0.0,0.0,0.0,0.0,0.0,0.0,0.0,0.0,0.0,0.0,0.0,0.0,0.0,0.0,0.0,0.0,0.0,0.0,0.0,0.0,0.0,0.0,2.9487,2.9919,2.9813,2.9726,0.0,0.0,0.0,0.0,0.0,0.0,0.0,0.0,0.0,0.0,0.0,0.0,0.0,0.0,0.0,0.0,0.0,0.0,0.0,0.0,0.0,0.0,0.0,0.0,0.0,0.0,0.0,0.0,0.0,0.0,0.0,0.0,0.0,0.0,0.0,0.0,0.0,0.0,0.0,0.0,0.0,0.0,0.0,0.0,0.0,0.0,0.0,0.0,0.0,0.0,0.0,0.0,0.0,0.0,0.0,0.0,0.0,0.0,0.0,0.0,0.0,0.0,0.0,0.0,0.0,0.0,0.0,0.0,0.0,0.0,0.0,0.0,0.0,0.0,0.0,0.0,0.0,0.0,0.0,0.0,0.0,0.0,0.0,0.0,0.0,0.0,0.0,0.0,0.0,0.0,0.0,0.0,0.0,0.0,0.0,0.0,0.0,0.0,0.0,0.0,0.0,0.0,0.0,0.0,0.0,0.0,0.0,0.0,0.0,0.0,2.9137,2.9547,2.987,2.9905,3.0122,3.0183,0.0,0.0,0.0,0.0,0.0,0.0,0.0,0.0,0.0,0.0,0.0,0.0,0.0,0.0,0.0,0.0,0.0,0.0,0.0,0.0,0.0,0.0,0.0,0.0,0.0,0.0,0.0,0.0,0.0,0.0,0.0,0.0,0.0,0.0,0.0,0.0,0.0,0.0,0.0,0.0,0.0,0.0,0.0,0.0,0.0,0.0,0.0,0.0,0.0,0.0,0.0,0.0,0.0,0.0,0.0,0.0,0.0,0.0,0.0,0.0,0.0,0.0,0.0,0.0,0.0,0.0,0.0,0.0,0.0,0.0,0.0,0.0,0.0,0.0,0.0,0.0,0.0,0.0,0.0,0.0,0.0,0.0,0.0,0.0,0.0,0.0,0.0,0.0,0.0,0.0,0.0,0.0,0.0,0.0,0.0,0.0,0.0,0.0,0.0,0.0,0.0,0.0,0.0,0.0,0.0,0.0,0.0,0.0,2.9725,2.9165,2.9309,3.0419,3.0592,3.0393,0.0,0.0,0.0,0.0,0.0,0.0,0.0,0.0,0.0,0.0,0.0,0.0,0.0,0.0,0.0,0.0,0.0,0.0,0.0,0.0,0.0,0.0,0.0,0.0,0.0,0.0,0.0,0.0,0.0,0.0,0.0,0.0,0.0,0.0,0.0,0.0,0.0,0.0,0.0,0.0,0.0,0.0,0.0,0.0,0.0,0.0,0.0,0.0,0.0,0.0,0.0,0.0,0.0,0.0,0.0,0.0,0.0,0.0,0.0,0.0,0.0,0.0,0.0,0.0,0.0,0.0,0.0,0.0,0.0,0.0,0.0,0.0,0.0,0.0,0.0,0.0,0.0,0.0,0.0,0.0,0.0,0.0,0.0,0.0,0.0,0.0,0.0,0.0,0.0,0.0,0.0,0.0,0.0,0.0,0.0,0.0,0.0,0.0,0.0,0.0,0.0,0.0,0.0,0.0,0.0,0.0,0.0,0.0,0.0,2.834,2.8941,3.0066,3.1414,3.0774,3.0646,0.0,0.0,0.0,0.0,0.0,0.0,0.0,0.0,0.0,0.0,0.0,0.0,0.0,0.0,0.0,0.0,0.0,0.0,0.0,0.0,0.0,0.0,0.0,0.0,0.0,0.0,0.0,0.0,0.0,0.0,0.0,0.0,0.0,0.0,0.0,0.0,0.0,0.0,0.0,0.0,0.0,0.0,0.0,0.0,0.0,0.0,0.0,0.0,0.0,0.0,0.0,0.0,0.0,0.0,0.0,0.0,0.0,0.0,0.0,0.0,0.0,0.0,0.0,0.0,0.0,0.0,0.0,0.0,0.0,0.0,0.0,0.0,0.0,0.0,0.0,0.0,0.0,0.0,0.0,0.0,0.0,0.0,0.0,0.0,0.0,0.0,0.0,0.0,0.0,0.0,0.0,0.0,0.0,0.0,0.0,0.0,0.0,0.0,0.0,0.0,0.0,0.0,0.0,0.0,0.0,0.0,0.0,0.0,0.0,2.8324,0.0,3.0519,3.1253,3.0447,3.021,0.0,0.0,0.0,0.0,0.0,0.0,0.0,0.0,0.0,0.0,0.0,0.0,0.0,0.0,0.0,0.0,0.0,0.0,0.0,0.0,0.0,0.0,0.0,0.0,0.0,0.0,0.0,0.0,0.0,0.0,0.0,0.0,0.0,0.0,0.0,0.0,0.0,0.0,0.0,0.0,0.0,0.0,0.0,0.0,0.0,0.0,0.0,0.0,0.0,0.0,0.0,0.0,0.0,0.0,0.0,0.0,0.0,0.0,0.0,0.0,0.0,0.0,0.0,0.0,0.0,0.0,0.0,0.0,0.0,0.0,0.0,0.0,0.0,0.0,0.0,0.0,0.0,0.0,0.0,0.0,0.0,0.0,0.0,0.0,0.0,0.0,0.0,0.0,0.0,0.0,0.0,0.0,0.0,0.0,0.0,0.0,0.0,0.0,0.0,0.0,0.0,0.0,0.0,0.0,0.0,0.0,0.0,0.0,2.899,2.9687,3.0352,3.0588,2.9829,2.9834,2.9223,0.0,0.0,0.0,0.0,0.0,0.0,0.0,0.0,0.0,0.0,0.0,0.0,0.0,0.0,0.0,0.0,0.0,0.0,0.0,0.0,0.0,0.0,0.0,0.0,0.0,0.0,0.0,0.0,0.0,0.0,0.0,0.0,0.0,0.0,0.0,0.0,0.0,0.0,0.0,0.0,0.0,0.0,0.0,0.0,0.0,0.0,0.0,0.0,0.0,0.0,0.0,0.0,0.0,0.0,0.0,0.0,0.0,0.0,0.0,0.0,0.0,0.0,0.0,0.0,0.0,0.0,0.0,0.0,0.0,0.0,0.0,0.0,0.0,0.0,0.0,0.0,0.0,0.0,0.0,0.0,0.0,0.0,0.0,0.0,0.0,0.0,0.0,0.0,0.0,0.0,0.0,0.0,0.0,0.0,0.0,0.0,0.0,0.0,0.0,0.0,0.0,0.0,0.0,0.0,0.0,0.0,0.0,0.0,0.0,2.9025,3.0134,3.106,3.165,3.0495,3.0067,0.0,0.0,0.0,0.0,0.0,0.0,0.0,0.0,0.0,0.0,0.0,0.0,0.0,0.0,0.0,0.0,0.0,0.0,0.0,0.0,0.0,0.0,0.0,0.0,0.0,0.0,0.0,0.0,0.0,0.0,0.0,0.0,0.0,0.0,0.0,0.0,0.0,0.0,0.0,0.0,0.0,0.0,0.0,0.0,0.0,0.0,0.0,0.0,0.0,0.0,0.0,0.0,0.0,0.0,0.0,0.0,0.0,0.0,0.0,0.0,0.0,0.0,0.0,0.0,0.0,0.0,0.0,0.0,0.0,0.0,0.0,0.0,0.0,0.0,0.0,0.0,0.0,0.0,0.0,0.0,0.0,0.0,0.0,0.0,0.0,0.0,0.0,0.0,0.0,0.0,0.0,0.0,0.0,0.0,0.0,0.0,0.0,0.0,0.0,0.0,0.0,0.0,0.0,0.0,0.0,0.0,0.0,0.0,0.0,3.0565,3.1684,3.2521,3.3033,3.1808,3.1132,3.1296,0.0,0.0,0.0,0.0,0.0,0.0,0.0,0.0,0.0,0.0,0.0,0.0,0.0,0.0,0.0,0.0,0.0,0.0,0.0,0.0,0.0,0.0,0.0,0.0,0.0,0.0,0.0,0.0,0.0,0.0,0.0,0.0,0.0,0.0,0.0,0.0,0.0,0.0,0.0,0.0,0.0,0.0,0.0,0.0,0.0,0.0,0.0,0.0,0.0,0.0,0.0,0.0,0.0,0.0,0.0,0.0,0.0,0.0,0.0,0.0,0.0,0.0,0.0,0.0,0.0,0.0,0.0,0.0,0.0,0.0,0.0,0.0,0.0,0.0,0.0,0.0,0.0,0.0,0.0,0.0,0.0,0.0,0.0,0.0,0.0,0.0,0.0,0.0,0.0,0.0,0.0,0.0,0.0,0.0,0.0,0.0,0.0,0.0,0.0,0.0,0.0,0.0,0.0,0.0,0.0,0.0,0.0,0.0,3.385,3.4823,3.4931,3.4133,3.3748,3.2614,0.0,0.0,0.0,0.0,0.0,0.0,0.0,0.0,0.0,0.0,0.0,0.0,0.0,0.0,0.0,0.0,0.0,0.0,0.0,0.0,0.0,0.0,0.0,0.0,0.0,0.0,0.0,0.0,0.0,0.0,0.0,0.0,0.0,0.0,0.0,0.0,0.0,0.0,0.0,0.0,0.0,0.0,0.0,0.0,0.0,0.0,0.0,0.0,0.0,0.0,0.0,0.0,0.0,0.0,0.0,0.0,0.0,0.0,0.0,0.0,0.0,0.0,0.0,0.0,0.0,0.0,0.0,0.0,0.0,0.0,0.0,0.0,0.0,0.0,0.0,0.0,0.0,0.0,0.0,0.0,0.0,0.0,0.0,0.0,0.0,0.0,0.0,0.0,0.0,0.0,0.0,0.0,0.0,0.0,0.0,0.0,0.0,0.0,0.0,0.0,0.0,0.0,0.0,0.0,0.0,0.0,0.0,0.0,0.0,3.5828,3.8238,3.8997,3.8093,3.6393,3.5104,0.0,0.0,0.0,0.0,0.0,0.0,0.0,0.0,0.0,0.0,0.0,0.0,0.0,0.0,0.0,0.0,0.0,0.0,0.0,0.0,0.0,0.0,0.0,0.0,0.0,0.0,0.0,0.0,0.0,0.0,0.0,0.0,0.0,0.0,0.0,0.0,0.0,0.0,0.0,0.0,0.0,0.0,0.0,0.0,0.0,0.0,0.0,0.0,0.0,0.0,0.0,0.0,0.0,0.0,0.0,0.0,0.0,0.0,0.0,0.0,0.0,0.0,0.0,0.0,0.0,0.0,0.0,0.0,0.0,0.0,0.0,0.0,0.0,0.0,0.0,0.0,0.0,0.0,0.0,0.0,0.0,0.0,0.0,0.0,0.0,0.0,0.0,0.0,0.0,0.0,0.0,0.0,0.0,0.0,0.0,0.0,0.0,0.0,0.0,0.0,0.0,0.0,0.0,0.0,0.0,0.0,0.0,0.0,3.462,3.7252,4.0593,4.2207,4.2126,4.0339,3.8434,0.0,0.0,0.0,0.0,0.0,0.0,0.0,0.0,0.0,0.0,0.0,0.0,0.0,0.0,0.0,0.0,0.0,0.0,0.0,0.0,0.0,0.0,0.0,0.0,0.0,0.0,0.0,0.0,0.0,0.0,0.0,0.0,0.0,0.0,0.0,0.0,0.0,0.0,0.0,0.0,0.0,0.0,0.0,0.0,0.0,0.0,0.0,0.0,0.0,0.0,0.0,0.0,0.0,0.0,0.0,0.0,0.0,0.0,0.0,0.0,0.0,0.0,0.0,0.0,0.0,0.0,0.0,0.0,0.0,0.0,0.0,0.0,0.0,0.0,0.0,0.0,0.0,0.0,0.0,0.0,0.0,0.0,0.0,0.0,0.0,0.0,0.0,0.0,0.0,0.0,0.0,0.0,0.0,0.0,0.0,0.0,0.0,0.0,0.0,0.0,0.0,0.0,0.0,0.0,0.0,0.0,0.0,0.0,3.5777,3.8437,4.2097,4.4441,4.5576,4.4347,4.1868,0.0,0.0,0.0,0.0,0.0,0.0,0.0,0.0,0.0,0.0,0.0,0.0,0.0,0.0,0.0,0.0,0.0,0.0,0.0,0.0,0.0,0.0,0.0,0.0,0.0,0.0,0.0,0.0,0.0,0.0,0.0,0.0,0.0,0.0,0.0,0.0,0.0,0.0,0.0,0.0,0.0,0.0,0.0,0.0,0.0,0.0,0.0,0.0,0.0,0.0,0.0,0.0,0.0,0.0,0.0,0.0,0.0,0.0,0.0,0.0,0.0,0.0,0.0,0.0,0.0,0.0,0.0,0.0,0.0,0.0,0.0,0.0,0.0,0.0,0.0,0.0,0.0,0.0,0.0,0.0,0.0,0.0,0.0,0.0,0.0,0.0,0.0,0.0,0.0,0.0,0.0,0.0,0.0,0.0,0.0,0.0,0.0,0.0,0.0,0.0,0.0,0.0,0.0,0.0,0.0,0.0,0.0,0.0,3.6345,3.9565,4.275,4.508,4.6853,4.5299,4.3197,0.0,0.0,0.0,0.0,0.0,0.0,0.0,0.0,0.0,0.0,0.0,0.0,0.0,0.0,0.0,0.0,0.0,0.0,0.0,0.0,0.0,0.0,0.0,0.0,0.0,0.0,0.0,0.0,0.0,0.0,0.0,0.0,0.0,0.0,0.0,0.0,0.0,0.0,0.0,0.0,0.0,0.0,0.0,0.0,0.0,0.0,0.0,0.0,2.9932,0.0,0.0,0.0,0.0,0.0,0.0,0.0,0.0,0.0,0.0,0.0,0.0,0.0,0.0,0.0,0.0,0.0,0.0,0.0,0.0,0.0,0.0,0.0,0.0,0.0,0.0,0.0,0.0,0.0,0.0,0.0,0.0,0.0,0.0,0.0,0.0,0.0,0.0,0.0,0.0,0.0,0.0,0.0,0.0,0.0,0.0,0.0,0.0,0.0,0.0,0.0,0.0,0.0,0.0,0.0,0.0,0.0,0.0,0.0,3.7589,4.0566,4.341,4.5665,4.7137,4.6499,4.5082,0.0,0.0,0.0,0.0,0.0,0.0,0.0,0.0,0.0,0.0,0.0,0.0,0.0,0.0,0.0,0.0,0.0,0.0,0.0,0.0,0.0,0.0,0.0,0.0,0.0,0.0,0.0,0.0,0.0,0.0,0.0,0.0,0.0,0.0,0.0,0.0,0.0,0.0,0.0,0.0,0.0,0.0,0.0,0.0,0.0,0.0,0.0,0.0,0.0,0.0,0.0,0.0,0.0,0.0,0.0,0.0,0.0,0.0,0.0,0.0,0.0,0.0,0.0,0.0,0.0,0.0,0.0,0.0,0.0,0.0,0.0,0.0,0.0,0.0,0.0,0.0,0.0,0.0,0.0,0.0,0.0,0.0,0.0,0.0,0.0,0.0,0.0,0.0,0.0,0.0,0.0,0.0,0.0,0.0,0.0,0.0,0.0,0.0,0.0,0.0,0.0,0.0,0.0,0.0,0.0,0.0,0.0,3.6234,3.8803,4.1286,4.4201,4.6091,4.7226,4.7636,4.6919,4.4937,0.0,0.0,0.0,0.0,0.0,0.0,0.0,0.0,0.0,0.0,0.0,0.0,0.0,0.0,0.0,0.0,0.0,0.0,0.0,0.0,0.0,0.0,0.0,0.0,0.0,0.0,0.0,0.0,0.0,0.0,0.0,0.0,0.0,0.0,0.0,0.0,0.0,0.0,2.8212,3.0567,0.0,0.0,0.0,0.0,0.0,0.0,0.0,0.0,3.0324,0.0,0.0,0.0,0.0,0.0,0.0,0.0,0.0,0.0,0.0,0.0,0.0,0.0,0.0,0.0,0.0,0.0,0.0,0.0,0.0,0.0,0.0,0.0,0.0,0.0,0.0,0.0,0.0,0.0,0.0,0.0,0.0,0.0,0.0,0.0,0.0,0.0,0.0,0.0,0.0,0.0,0.0,0.0,0.0,0.0,0.0,0.0,0.0,0.0,0.0,0.0,0.0,0.0,0.0,0.0,0.0,3.5087,3.5601,3.7821,4.2022,4.4465,4.6091,4.7226,4.8179,4.7956,4.6097,0.0,0.0,0.0,0.0,0.0,0.0,0.0,0.0,0.0,0.0,0.0,0.0,0.0,0.0,0.0,0.0,0.0,0.0,0.0,0.0,0.0,0.0,0.0,0.0,0.0,0.0,0.0,0.0,0.0,0.0,0.0,0.0,0.0,0.0,0.0,0.0,0.0,0.0,0.0,3.1613,3.2459,0.0,0.0,0.0,0.0,0.0,0.0,0.0,0.0,2.9914,0.0,0.0,0.0,0.0,0.0,0.0,0.0,0.0,0.0,0.0,0.0,0.0,0.0,0.0,0.0,0.0,0.0,0.0,0.0,0.0,0.0,0.0,0.0,0.0,0.0,0.0,0.0,0.0,0.0,0.0,0.0,0.0,0.0,0.0,0.0,0.0,0.0,0.0,0.0,0.0,0.0,0.0,0.0,0.0,0.0,0.0,0.0,0.0,0.0,0.0,0.0,0.0,0.0,0.0,0.0,3.4518,3.6358,3.9024,4.2484,4.4657,4.6286,4.7226,4.7491,4.7277,0.0,0.0,0.0,0.0,0.0,0.0,0.0,0.0,0.0,0.0,0.0,0.0,0.0,0.0,0.0,0.0,0.0,0.0,0.0,0.0,0.0,0.0,0.0,0.0,0.0,0.0,0.0,0.0,0.0,0.0,0.0,0.0,0.0,0.0,0.0,0.0,0.0,0.0,0.0,0.0,3.2649,3.3884,3.4919,0.0,0.0,0.0,0.0,0.0,0.0,3.1441,3.0913,0.0,0.0,0.0,0.0,0.0,0.0,0.0,0.0,0.0,0.0,0.0,0.0,0.0,0.0,0.0,0.0,0.0,0.0,0.0,0.0,0.0,0.0,0.0,0.0,0.0,0.0,0.0,0.0,0.0,0.0,0.0,0.0,0.0,0.0,0.0,0.0,0.0,0.0,0.0,0.0,0.0,0.0,0.0,0.0,0.0,0.0,0.0,0.0,0.0,0.0,0.0,0.0,0.0,0.0,0.0,3.3751,3.6762,3.9717,4.2758,4.4937,4.6481,4.7243,4.7129,4.691,0.0,0.0,0.0,0.0,0.0,0.0,0.0,0.0,0.0,0.0,0.0,0.0,0.0,0.0,0.0,0.0,0.0,0.0,0.0,0.0,0.0,0.0,0.0,0.0,0.0,0.0,0.0,0.0,0.0,0.0,0.0,0.0,0.0,0.0,0.0,0.0,0.0,0.0,0.0,0.0,0.0,3.5064,3.5773,3.6192,0.0,0.0,0.0,0.0,3.4081,3.3522,0.0,0.0,0.0,0.0,0.0,0.0,0.0,0.0,0.0,0.0,0.0,0.0,0.0,0.0,0.0,0.0,0.0,0.0,0.0,0.0,0.0,0.0,0.0,0.0,0.0,0.0,0.0,0.0,0.0,0.0,0.0,0.0,0.0,0.0,0.0,0.0,0.0,0.0,0.0,0.0,0.0,0.0,0.0,0.0,0.0,0.0,0.0,0.0,0.0,0.0,0.0,0.0,0.0,0.0,0.0,0.0,3.3392,3.5442,3.851,4.269,4.4937,4.6498,4.7261,4.8451,4.8322,0.0,0.0,0.0,0.0,0.0,0.0,0.0,0.0,0.0,0.0,0.0,0.0,0.0,0.0,0.0,0.0,0.0,0.0,0.0,0.0,0.0,0.0,0.0,0.0,0.0,0.0,0.0,0.0,0.0,0.0,0.0,0.0,0.0,0.0,0.0,0.0,0.0,0.0,0.0,0.0,0.0,3.5272,3.632,3.6717,3.6908,0.0,0.0,3.6214,3.6853,3.7663,0.0,0.0,0.0,0.0,0.0,0.0,0.0,0.0,0.0,0.0,0.0,0.0,0.0,0.0,0.0,0.0,0.0,0.0,0.0,0.0,0.0,0.0,0.0,0.0,0.0,0.0,0.0,0.0,0.0,0.0,0.0,0.0,0.0,0.0,0.0,0.0,0.0,0.0,0.0,0.0,0.0,0.0,0.0,0.0,0.0,0.0,0.0,0.0,0.0,0.0,0.0,0.0,0.0,0.0,0.0,2.9328,3.2665,3.5246,3.8585,4.2341,4.471,4.6268,4.7261,4.7582,4.7369,0.0,0.0,0.0,0.0,0.0,0.0,0.0,0.0,0.0,0.0,0.0,0.0,0.0,0.0,0.0,0.0,0.0,0.0,0.0,0.0,0.0,0.0,0.0,0.0,0.0,0.0,0.0,0.0,0.0,0.0,0.0,0.0,0.0,0.0,0.0,0.0,0.0,0.0,0.0,0.0,0.0,0.0,3.7051,3.802,0.0,0.0,0.0,3.878,3.9456,0.0,0.0,0.0,0.0,0.0,0.0,0.0,0.0,0.0,0.0,0.0,0.0,0.0,0.0,0.0,0.0,0.0,0.0,0.0,0.0,0.0,0.0,0.0,0.0,0.0,0.0,0.0,0.0,0.0,0.0,0.0,0.0,0.0,0.0,0.0,0.0,0.0,0.0,0.0,0.0,0.0,0.0,0.0,0.0,0.0,0.0,0.0,0.0,0.0,0.0,0.0,0.0,0.0,0.0,0.0,0.0,0.0,3.226,3.5526,3.8724,4.1975,4.455,4.6321,4.7367,4.7471,0.0,0.0,0.0,0.0,0.0,0.0,0.0,0.0,0.0,0.0,0.0,0.0,0.0,0.0,0.0,0.0,0.0,0.0,0.0,0.0,0.0,0.0,0.0,0.0,0.0,0.0,0.0,2.9104,0.0,0.0,0.0,0.0,0.0,0.0,0.0,0.0,0.0,0.0,0.0,0.0,0.0,0.0,3.6145,3.7702,3.9196,4.0372,0.0,0.0,4.142,4.2008,4.2118,4.136,0.0,0.0,0.0,0.0,0.0,0.0,0.0,0.0,0.0,0.0,0.0,0.0,0.0,0.0,0.0,0.0,0.0,0.0,0.0,0.0,0.0,0.0,0.0,0.0,0.0,0.0,0.0,0.0,0.0,0.0,0.0,0.0,0.0,0.0,0.0,0.0,0.0,0.0,0.0,0.0,0.0,0.0,0.0,0.0,0.0,0.0,0.0,0.0,0.0,0.0,0.0,0.0,0.0,0.0,0.0,3.2618,3.5475,3.8724,4.1992,4.5055,4.7013,4.7793,4.9349,4.9375,0.0,0.0,0.0,0.0,0.0,0.0,0.0,0.0,0.0,0.0,0.0,0.0,0.0,0.0,0.0,0.0,0.0,0.0,0.0,0.0,0.0,0.0,0.0,0.0,0.0,0.0,0.0,0.0,0.0,0.0,0.0,0.0,0.0,0.0,0.0,0.0,0.0,0.0,0.0,0.0,0.0,3.5948,3.8338,4.0102,4.1675,0.0,0.0,4.3819,4.4217,4.5869,4.5549,4.1186,0.0,0.0,0.0,0.0,0.0,0.0,0.0,0.0,0.0,0.0,0.0,0.0,0.0,0.0,0.0,0.0,0.0,0.0,0.0,0.0,0.0,0.0,0.0,0.0,0.0,0.0,0.0,0.0,0.0,0.0,0.0,0.0,0.0,0.0,0.0,0.0,0.0,0.0,0.0,0.0,0.0,0.0,0.0,0.0,0.0,0.0,0.0,0.0,0.0,0.0,0.0,0.0,0.0,2.9441,3.22,3.5157,3.8186,4.1574,4.3854,4.597,4.7828,4.865,4.8616,0.0,0.0,0.0,0.0,0.0,0.0,0.0,0.0,0.0,0.0,0.0,0.0,0.0,0.0,0.0,0.0,0.0,0.0,0.0,0.0,0.0,0.0,0.0,0.0,0.0,0.0,0.0,0.0,3.0376,3.029,2.9513,0.0,0.0,0.0,0.0,0.0,0.0,0.0,0.0,0.0,0.0,3.717,3.9657,4.1484,0.0,0.0,4.4677,4.517,4.5948,4.5837,4.4916,4.2435,4.04,0.0,0.0,0.0,0.0,0.0,0.0,0.0,0.0,0.0,0.0,0.0,0.0,0.0,0.0,0.0,0.0,0.0,0.0,0.0,0.0,0.0,0.0,0.0,0.0,0.0,0.0,0.0,0.0,0.0,0.0,0.0,0.0,0.0,0.0,0.0,0.0,0.0,0.0,0.0,0.0,0.0,0.0,0.0,0.0,0.0,0.0,0.0,0.0,0.0,0.0,0.0,0.0,2.96,3.2203,3.5135,3.8268,4.1624,4.3487,4.5596,4.7793,4.8316,4.8873,0.0,0.0,0.0,0.0,0.0,0.0,0.0,0.0,0.0,0.0,0.0,0.0,0.0,0.0,0.0,0.0,0.0,0.0,0.0,0.0,0.0,0.0,0.0,0.0,0.0,0.0,0.0,0.0,3.1064,3.0737,2.9699,0.0,0.0,0.0,0.0,0.0,0.0,0.0,0.0,0.0,0.0,3.8745,4.1096,4.2789,4.4226,4.5487,4.571,4.579,4.6632,4.5821,4.4566,4.2993,0.0,0.0,0.0,0.0,0.0,0.0,0.0,0.0,0.0,0.0,0.0,0.0,0.0,0.0,0.0,0.0,0.0,0.0,0.0,0.0,0.0,0.0,0.0,0.0,0.0,0.0,0.0,0.0,0.0,0.0,0.0,0.0,0.0,0.0,0.0,0.0,0.0,0.0,0.0,0.0,0.0,0.0,0.0,0.0,0.0,0.0,0.0,0.0,0.0,0.0,0.0,0.0,0.0,3.0258,3.3188,3.6001,3.9074,4.2008,4.4136,4.6058,4.7811,4.9248,5.0087,5.0233,0.0,0.0,0.0,0.0,0.0,0.0,0.0,0.0,0.0,0.0,0.0,0.0,0.0,0.0,0.0,0.0,0.0,0.0,0.0,0.0,0.0,0.0,0.0,0.0,0.0,0.0,3.1456,3.1542,3.1111,0.0,0.0,0.0,0.0,0.0,0.0,0.0,0.0,0.0,0.0,3.8088,4.0536,4.2986,4.411,4.5454,4.7171,4.6414,4.5647,4.606,4.6314,4.5599,0.0,0.0,0.0,0.0,0.0,0.0,0.0,0.0,0.0,0.0,0.0,0.0,0.0,0.0,0.0,0.0,0.0,0.0,0.0,0.0,0.0,0.0,0.0,0.0,0.0,0.0,0.0,0.0,3.6268,0.0,0.0,0.0,0.0,0.0,0.0,0.0,0.0,0.0,0.0,0.0,3.9298,3.9968,0.0,0.0,0.0,0.0,0.0,0.0,0.0,0.0,0.0,0.0,0.0,0.0,3.1203,3.3865,3.6319,3.9091,4.1992,4.3309,4.5214,4.7811,4.8649,4.9199,4.9498,0.0,0.0,0.0,0.0,0.0,0.0,0.0,0.0,0.0,0.0,0.0,0.0,0.0,0.0,0.0,0.0,0.0,0.0,0.0,0.0,0.0,0.0,0.0,0.0,0.0,3.1209,0.0,0.0,0.0,0.0,0.0,0.0,0.0,0.0,0.0,0.0,0.0,3.5477,3.7726,4.0528,4.2922,4.4644,4.604,4.6968,0.0,0.0,0.0,0.0,0.0,0.0,0.0,0.0,0.0,0.0,0.0,0.0,0.0,0.0,3.9836,3.4139,3.2074,3.1151,3.0313,0.0,0.0,0.0,0.0,0.0,0.0,0.0,0.0,0.0,0.0,0.0,0.0,0.0,0.0,0.0,0.0,3.8282,0.0,0.0,0.0,0.0,0.0,0.0,0.0,0.0,3.7769,3.9677,4.1311,4.2669,4.3367,0.0,4.3158,4.0546,0.0,0.0,0.0,0.0,0.0,0.0,0.0,0.0,3.2942,3.5125,3.7425,3.9858,4.2369,4.3512,4.5151,4.7811,4.9331,5.0028,4.9966,4.9531,4.808,0.0,0.0,0.0,0.0,0.0,0.0,0.0,0.0,0.0,0.0,0.0,0.0,0.0,0.0,0.0,0.0,0.0,0.0,0.0,0.0,0.0,0.0,0.0,3.2149,0.0,0.0,0.0,0.0,0.0,0.0,0.0,0.0,0.0,3.508,3.661,3.8468,4.0891,4.3189,4.5064,4.6423,0.0,0.0,0.0,0.0,0.0,0.0,0.0,4.5551,4.5504,4.4963,4.4471,4.4344,4.5567,4.6362,4.5662,0.0,0.0,3.8101,3.5977,3.4918,3.3849,3.4032,3.4185,3.3837,3.4109,3.4476,0.0,0.0,0.0,0.0,0.0,0.0,0.0,0.0,4.1163,4.1773,0.0,4.033,0.0,0.0,0.0,0.0,0.0,0.0,0.0,0.0,4.0539,4.2402,4.3059,4.5148,4.6253,4.6312,4.6878,4.5774,4.3046,3.7638,0.0,0.0,0.0,0.0,0.0,0.0,3.5291,3.6962,3.9312,4.1544,4.3426,4.4522,4.6073,4.7899,5.1311,5.2628,5.1852,5.2773,5.2029,4.9181,4.8158,0.0,0.0,0.0,0.0,0.0,0.0,0.0,0.0,0.0,0.0,0.0,0.0,0.0,0.0,0.0,0.0,0.0,0.0,0.0,0.0,3.2475,0.0,0.0,0.0,0.0,0.0,0.0,0.0,0.0,0.0,0.0,3.7956,3.9541,4.18,4.448,0.0,0.0,0.0,0.0,4.771,4.8799,4.803,4.7108,4.714,4.7394,4.714,4.5869,0.0,0.0,4.6362,4.7585,4.8316,4.6997,4.7652,4.7098,4.4547,4.1918,3.9922,3.8417,3.7358,3.6854,3.6732,3.6994,3.7555,4.787,0.0,0.0,0.0,0.0,4.5207,4.5956,4.7599,4.6595,4.6072,4.5512,4.369,0.0,0.0,0.0,0.0,0.0,0.0,3.9686,4.0814,4.301,4.46,4.6057,4.7585,4.8456,4.8843,4.8824,4.8051,4.6448,4.4201,4.0897,3.6576,0.0,0.0,0.0,0.0,3.8592,3.9876,4.1804,4.3452,4.4771,4.5778,4.7129,4.9286,5.2096,5.3329,5.3083,5.4124,5.3984,5.2126,5.0375,0.0,0.0,0.0,0.0,0.0,0.0,0.0,0.0,0.0,0.0,0.0,0.0,0.0,0.0,0.0,0.0,0.0,0.0,0.0,3.3231,3.2961,3.3207,0.0,0.0,0.0,0.0,0.0,0.0,0.0,0.0,0.0,4.2916,4.3937,4.5175,0.0,0.0,4.8853,4.8944,4.8601,4.8505,4.8862,4.8759,0.0,4.8157,4.8077,4.8014,4.8093,4.8872,4.9686,5.0137,5.075,5.1137,5.0702,5.0923,5.0715,4.902,4.5548,4.2716,4.1446,4.0467,3.9671,3.9045,3.9322,3.9827,5.3632,5.094,4.8945,4.8831,4.9773,4.9512,5.031,5.1908,5.0783,5.0404,5.0566,4.8232,4.6007,4.3796,4.1582,0.0,0.0,0.0,4.2517,4.3633,4.5238,4.6389,4.7674,4.8922,4.9747,5.0015,5.0325,4.9919,4.9076,4.8693,4.6481,4.2747,0.0,0.0,3.9934,4.106,4.2067,4.2904,4.4364,4.547,4.6153,4.7101,4.8327,4.9836,5.2128,5.3421,5.3613,5.4955,5.5415,5.4668,5.3418,5.1465,0.0,0.0,0.0,0.0,0.0,0.0,0.0,0.0,0.0,0.0,0.0,3.1919,3.1043,0.0,0.0,0.0,3.2842,3.3656,3.4494,3.4698,0.0,0.0,0.0,0.0,0.0,0.0,0.0,4.0347,4.1816,4.3973,4.7042,4.7971,4.8482,4.8637,4.9617,5.0411,5.032,0.0,4.9326,4.965,4.952,4.9286,4.9031,4.8999,4.9142,4.9698,5.0143,5.0604,5.158,5.2201,5.2222,5.2399,5.2671,5.2656,5.1885,4.8979,4.637,4.4839,4.3802,4.2873,4.1859,4.1885,4.1991,5.861,5.7716,5.3819,5.2699,5.3556,5.3566,5.4183,5.4982,5.4365,5.5041,5.6206,5.3547,5.1505,4.9882,4.5853,0.0,0.0,4.4743,4.5444,4.603,4.7364,4.8089,4.8267,4.964,5.0233,5.029,5.1062,5.1227,5.0958,5.1473,5.1122,4.999,4.7196,4.5556,4.5088,4.539,4.5814,4.6109,4.6878,4.7285,4.7677,4.8837,4.9602,4.9981,5.178,5.3035,5.3708,5.549,5.6403,5.666,5.6601,5.5293,5.25,0.0,0.0,0.0,0.0,0.0,0.0,0.0,0.0,0.0,0.0,0.0,0.0,0.0,0.0,0.0,3.4001,0.0,3.5685,3.6924,0.0,0.0,0.0,3.843,3.812,3.934,4.1072,4.3665,0.0,0.0,4.9863,5.1286,5.1731,5.1046,5.1286,5.1663,5.2022,5.0889,5.0252,5.0477,5.0024,4.9698,4.9762,5.0032,5.0334,5.0651,5.081,5.1064,5.1889,5.2352,5.2447,5.2717,5.3114,5.3107,5.3122,5.1687,5.0356,4.7563,4.6834,4.5892,4.4285,4.3941,4.3941,6.098,6.1279,6.0066,5.8941,5.8062,5.7932,5.8677,5.9466,5.9121,5.8585,5.805,5.6345,5.4221,5.1904,4.9367,4.8573,4.8675,4.8557,4.8562,4.9074,4.9658,4.9987,5.0097,5.0798,5.0982,5.1154,5.1807,5.2137,5.2185,5.354,5.3792,5.3147,5.3235,5.1504,4.8437,4.9639,5.0259,4.9928,5.0346,5.0321,5.0326,5.0606,5.0914,5.143,5.2546,5.3447,5.4105,5.5644,5.6538,5.707,5.6758,5.5976,5.459,5.1776,0.0,0.0,0.0,0.0,0.0,0.0,0.0,0.0,0.0,3.5155,3.2944,0.0,3.5295,0.0,3.5564,3.6322,3.7448,3.7639,0.0,0.0,4.0531,4.1039,4.2199,4.2946,4.4216,4.6653,4.7594,4.8972,5.1337,5.245,5.3101,5.2913,5.2727,5.262,5.2471,5.1315,5.0734,5.1287,5.0409,4.9889,5.0397,5.0778,5.1017,5.1112,5.135,5.1841,5.2507,5.3071,5.3265,5.2325,5.2536,5.2352,5.0822,5.0691,5.0315,4.8888,4.7711,4.6348,4.4395,4.4382,4.4663,6.2871,6.2735,6.2535,6.2105,6.1643,6.1463,6.1887,6.2755,6.2288,6.1622,6.0758,5.898,5.7068,5.4722,5.3405,5.2608,5.2608,5.2043,5.1798,5.2021,5.2059,5.2096,5.2096,5.232,5.2221,5.2028,5.2657,5.2829,5.2797,5.3669,5.4401,5.4957,5.563,5.503,5.3243,5.3271,5.3196,5.3348,5.3003,5.2518,5.2527,5.1941,5.1978,5.221,5.3056,5.3428,5.3708,5.5126,5.592,5.6387,5.6504,5.6113,5.5078,5.3235,5.1073,0.0,0.0,0.0,0.0,0.0,0.0,0.0,0.0,0.0,0.0,0.0,3.6494,3.7274,3.7831,3.8672,4.0356,4.0753,4.1547,4.3073,4.3613,4.4217,4.5027,4.5567,4.6719,4.8685,4.9261,5.0455,5.2269,5.317,5.3872,5.4043,5.4034,5.3831,5.3204,5.2464,5.2005,5.1885,5.1131,5.0508,5.0937,5.1128,5.1319,5.1462,5.1652,5.2129,5.2703,5.3217,5.3374,5.2504,5.2663,5.2473,5.1183,5.0914,5.0565,4.9576,4.8733,4.7172,4.5522,4.5522,4.5535,6.4004,6.3481,6.3523,6.4031,6.4654,6.4516,6.4564,6.4894,6.4461,6.3822,6.3269,6.1162,5.9384,5.8218,5.7031,5.6334,5.5877,5.5117,5.4522,5.4446,5.4105,5.3935,5.3935,5.3935,5.3723,5.3102,5.3457,5.3594,5.3274,5.3548,5.4374,5.6151,5.6448,5.6947,5.8066,5.6417,5.5725,5.6391,5.5032,5.442,5.4202,5.3433,5.3032,5.2977,5.326,5.3454,5.314,5.4417,5.509,5.5449,5.6152,5.6094,5.5,5.4124,5.2559,0.0,4.7948,0.0,0.0,0.0,0.0,0.0,0.0,0.0,0.0,3.7748,3.7974,3.9307,4.0394,4.1863,4.3715,4.48,4.5471,4.5679,4.6796,4.7499,4.7371,4.7882,4.8853,5.0587,5.0871,5.1755,5.3107,5.3813,5.4488,5.4568,5.4651,5.4604,5.3869,5.3406,5.279,5.2322,5.1821,5.1271,5.1319,5.1382,5.1525,5.1795,5.1875,5.2081,5.2701,5.3098,5.3186,5.2725,5.2786,5.2751,5.226,5.1184,5.0659,4.9818,4.9248,4.8419,4.7072,4.6785,4.6567,6.5775,6.5261,6.5549,6.6067,6.6761,6.6722,6.653,6.5846,6.5616,6.5319,6.4573,6.2841,6.1712,6.0785,5.926,5.8077,5.7636,5.6714,5.6075,5.5734,5.5658,5.562,5.562,5.562,5.5401,5.4761,5.4817,5.469,5.4099,5.5543,5.6231,5.6605,5.8083,5.8878,5.9394,0.0,0.0,0.0,5.7119,5.6581,5.547,5.584,5.5652,5.4634,5.4337,0.0,5.4168,5.4493,5.4916,5.582,5.6308,0.0,0.0,0.0,0.0,0.0,0.0,0.0,0.0,0.0,0.0,0.0,4.4571,4.2759,4.163,4.2817,4.339,4.2922,4.4446,4.5892,4.6582,4.7371,4.8308,4.9458,5.0099,5.074,5.1512,5.1758,5.2414,5.3671,5.3701,5.3797,5.4756,5.5293,5.5233,5.4803,5.4991,5.4687,5.3543,5.3061,5.2947,5.2679,5.2206,5.1684,5.1684,5.1922,5.2034,5.2208,5.2208,5.2367,5.2764,5.313,5.2939,5.2226,5.1748,5.1438,5.0629,4.9562,4.8748,4.9005,4.8476,4.7932,4.7673,4.7659,4.7386,6.7127,0.0,6.6733,6.6691,0.0,6.6712,6.6302,6.5822,6.6778,6.6778,6.5802,6.4654,6.3632,6.246,6.1364,6.0279,5.9604,5.8758,5.8129,5.7917,5.7706,5.7513,5.7302,5.7302,5.6966,5.6094,5.5873,5.5543,5.506,5.5748,5.6401,5.7041,5.7956,5.8956,5.9785,5.9609,5.9053,5.8402,5.8179,5.7732,5.7022,5.6832,5.6624,5.5952,0.0,0.0,0.0,0.0,0.0,0.0,0.0,0.0,0.0,0.0,0.0,5.3977,5.2176,5.107,5.1048,5.0327,4.9735,4.9908,4.8728,4.6676,4.382,4.4971,4.5884,4.5826,4.7186,4.8414,4.9309,5.0039,5.0852,5.1506,5.1936,5.2464,5.3091,5.324,5.3787,5.4621,5.4605,5.4837,5.529,5.554,5.5557,5.5324,5.5125,5.4666,5.4289,5.3533,5.31,5.2768,5.2384,5.2113,5.224,5.2097,5.2145,5.224,5.2161,5.2351,5.2971,5.3225,5.3233,5.2662,5.2138,5.1438,5.0359,4.9005,4.7918,4.7904,4.7631,4.7372,4.7372,4.7386,4.74,6.8308,6.7599,6.7601,6.7195,6.6511,6.6279,6.6373,6.6143,0.0,0.0,0.0,6.622,6.5057,6.3521,6.3065,6.2377,6.1152,6.0469,6.0058,5.9902,5.957,5.9219,5.8867,5.8867,5.845,5.7436,5.6695,5.6382,5.601,5.5619,5.6272,5.7382,5.779,5.8654,5.9765,5.9805,5.9648,5.9316,5.8848,5.8643,5.8475,5.7847,5.7132,5.7056,5.6276,5.5688,5.4916,5.4656,5.4316,5.3965,5.4355,5.4746,5.5117,5.4398,5.4427,5.5469,5.4226,5.3622,5.4026,5.3806,5.3329,5.2196,5.195,5.0255,4.6346,4.711,4.8063,4.8964,4.9734,5.0488,5.1821,5.2471,5.3054,5.3538,5.3821,5.4104,5.4521,5.4587,5.4837,5.5304,5.5428,5.5394,5.5749,5.5932,5.5978,5.5864,5.5344,5.4561,5.4584,5.3973,5.3121,5.3071,5.2685,5.2606,5.2764,5.2269,5.2208,5.2494,5.2304,5.2158,5.3146,5.3448,5.3439,5.3443,5.3049,5.1976,5.0359,4.8991,4.7631,4.6539,4.6252,4.6252,4.6266,4.632,4.6635,6.9001,6.8102,6.872,6.8455,6.7741,6.812,6.8372,6.8536,6.7803,6.7286,6.7204,6.6578,6.5663,6.4414,6.3977,6.3108,6.164,6.1504,6.1055,0.0,6.0273,6.0234,6.0176,6.0176,5.9909,5.9129,5.8121,5.7514,5.7077,5.6948,5.7438,5.8064,5.8971,5.9687,5.9805,5.9805,5.9785,5.9726,5.9726,5.943,5.9322,5.9391,5.8984,5.8129,5.7375,5.6679,5.6426,5.6269,5.6191,5.6152,5.6523,5.6797,5.6855,5.5835,5.545,5.5961,5.5172,5.4851,5.5291,5.5566,5.5383,5.4534,5.4727,5.3607,5.1156,5.1435,5.2285,5.3153,5.361,5.4233,5.4585,5.479,5.525,5.6119,5.6119,5.6239,5.6852,5.6938,5.6989,5.7159,5.6801,5.6665,5.6921,5.6731,5.6307,5.6273,5.5983,5.5454,5.4461,5.3746,5.347,5.3257,5.3241,5.3225,5.3241,5.2703,5.253,5.3193,5.2577,5.2348,5.3391,5.3502,5.3644,5.4055,5.3317,5.223,5.0345,4.8991,4.7086,4.5444,4.462,4.4345,4.4895,4.5066,4.5736,7.1225,7.075,7.0276,6.9945,6.9045,6.8068,6.7839,6.7906,6.7408,6.7885,6.8578,6.8153,6.7452,6.6712,6.5819,6.4667,6.3363,6.2657,6.2226,6.1836,6.1601,6.1348,6.1113,6.0898,6.0435,5.9972,5.8863,5.831,5.8291,5.812,5.8368,5.8787,5.9914,6.039,6.0156,6.0156,6.0273,6.0488,6.0039,5.9792,5.9953,5.9792,5.9481,5.9042,5.8022,5.7598,5.7637,5.7187,5.7031,5.7265,5.7461,5.7676,5.791,5.7042,5.6889,5.7741,5.7047,5.6942,5.7785,5.7968,5.7779,5.7476,5.6992,5.6483,5.5552,5.4338,5.4285,5.526,5.5682,5.6192,5.6472,5.6658,5.6806,5.71,5.6916,5.692,5.7382,5.7502,5.7656,5.7998,5.7793,5.7639,5.7793,5.7331,5.7074,5.6936,5.6695,5.5794,5.4393,5.4324,5.4356,5.367,5.3217,5.2923,5.3049,5.2504,5.2133,5.2273,5.2149,5.2258,5.2678,5.2819,5.2693,5.2704,5.1707,5.0345,4.8705,4.6799,4.5157,4.3795,4.3243,4.3243,4.3269,4.3923,4.4868,7.2845,7.2803,7.1975,7.1255,7.06,6.8819,6.7982,6.7812,6.7812,6.8465,6.9566,6.933,6.8904,6.8548,6.7349,6.6157,6.5084,6.3879,6.3125,6.3008,6.2676,6.2344,6.1992,6.1562,6.1191,6.0649,5.9398,5.9052,5.9438,5.8957,5.9188,5.9936,6.0785,6.1015,6.0586,6.0586,6.0742,6.1035,6.043,6.0254,6.0566,6.0176,5.9902,5.9746,5.8945,5.8555,5.8769,5.8242,5.8086,5.8418,5.8535,5.8789,5.9014,5.8291,5.8537,5.9325,5.8867,5.8867,5.9931,5.9911,5.963,5.963,5.8951,5.8416,5.8487,5.6702,5.5946,5.6664,5.67,5.6929,5.7583,5.7664,5.7727,5.7535,5.7359,5.7432,5.745,5.7639,5.7913,5.8392,5.8255,5.8101,5.8101,5.7793,5.7553,5.7398,5.7185,5.6096,5.4813,5.5038,5.5054,5.4581,5.3502,5.2943,5.313,5.2554,5.2351,5.1995,5.1841,5.2228,5.2038,5.1863,5.1657,5.1378,5.0074,4.8719,4.6799,4.5157,4.3545,4.2778,4.2212,4.2175,4.2526,4.3105,4.3786,7.2845,7.2824,7.2781,7.2282,7.1879,7.1371,7.0383,6.9484,6.9463,6.9471,6.9135,6.9114,6.9072,6.9009,6.8257,6.7081,6.5506,6.4791,6.3877,6.3086,6.2988,6.2949,6.2851,6.2441,6.1991,6.1187,6.0136,5.9522,5.9433,5.9181,5.9878,6.0843,6.1445,6.1426,6.1074,6.1015,6.1035,6.1094,6.1015,6.0976,6.0996,6.0605,6.0195,5.9824,6.0078,6.0039,5.9687,5.998,6.0137,6.0215,6.0547,6.0746,6.0456,6.0429,6.0174,5.9924,5.9867,5.9986,6.0793,6.0478,6.046,6.0478,6.0203,5.9728,5.9462,5.8912,5.7968,5.7489,5.689,5.7139,5.7274,5.7465,5.764,5.7831,5.7943,5.8238,5.7553,5.8118,5.8427,5.8153,5.817,5.8204,5.8392,5.7981,5.7449,5.7202,5.6982,5.641,5.5881,5.5665,5.573,5.5665,5.5087,5.4274,5.4039,5.3506,5.3334,5.3694,5.2925,5.2612,5.2375,5.187,5.1139,5.0585,4.9519,4.789,4.6252,4.4895,4.3884,4.2335,4.1754,4.1681,4.2446,4.2811,4.3507,7.4065,7.3821,7.3556,7.2812,7.2165,7.1952,7.1349,7.0185,6.9411,6.9421,6.9471,6.8744,6.8836,6.9524,6.9051,6.7999,6.6884,6.5709,6.4909,6.4251,6.3775,6.3418,6.3379,6.2969,6.2536,6.226,6.1143,6.0836,6.1114,6.0882,6.1,6.1465,6.164,6.1621,6.1445,6.1211,6.1191,6.1445,6.1211,6.1191,6.1387,6.1035,6.0742,6.0586,6.0488,6.0371,6.0254,6.0586,6.082,6.0859,6.1019,6.123,6.1168,6.0847,6.067,6.0856,6.0719,6.0839,6.1185,6.1015,6.1008,6.0775,6.0643,6.0402,6.0242,5.9163,5.8539,5.8319,5.8084,5.8143,5.8495,5.8312,5.804,5.8023,5.8029,5.7759,5.7519,5.7981,5.8307,5.8375,5.8409,5.8444,5.8546,5.8358,5.7717,5.7066,5.697,5.6773,5.626,5.5996,5.5996,5.5996,5.5465,5.4934,5.4401,5.3852,5.3317,5.3049,5.3049,5.3049,5.1991,5.1169,5.0359,4.9562,4.7904,4.6252,4.4607,4.3519,4.22,4.15,4.1633,4.1633,4.2192,4.2534,4.2656,7.4792,7.4792,7.4307,7.3627,7.2841,7.2841,7.23,7.113,7.029,7.0017,6.9744,6.917,6.894,6.933,6.9198,6.8548,6.7812,6.6391,6.5687,6.5405,6.4767,6.4329,6.4049,6.3657,6.3203,6.2906,6.2176,6.2022,6.2419,6.2129,6.1894,6.1894,6.1894,6.1894,6.1855,6.1562,6.164,6.1992,6.166,6.1582,6.1836,6.1719,6.1445,6.1113,6.0898,6.0742,6.0625,6.1035,6.1328,6.1232,6.1462,6.1411,6.1326,6.1007,6.1154,6.1447,6.1365,6.1474,6.1583,6.1437,6.1182,6.1195,6.0969,6.0779,6.0412,5.9642,5.9139,5.9036,5.9082,5.8784,5.8987,5.8784,5.8389,5.8162,5.7947,5.7914,5.769,5.7998,5.8358,5.8581,5.8598,5.8632,5.8615,5.8318,5.7793,5.702,5.73,5.73,5.6525,5.6509,5.6525,5.5996,5.573,5.5199,5.4401,5.4134,5.3317,5.3065,5.3317,5.3049,5.1722,5.0914,4.9547,4.8734,4.6266,4.4345,4.3519,4.215,4.1391,4.1488,4.1681,4.1922,4.2067,4.2176,4.2272,7.4792,7.4792,7.4792,7.477,7.477,7.4506,7.3982,7.2804,7.2761,7.1788,7.013,7.0242,6.9772,6.8507,6.888,6.8525,6.7782,6.7077,6.6611,6.6085,6.617,6.5709,6.5207,6.479,6.3873,6.3151,6.2794,6.2775,6.2736,6.2497,6.2344,6.2344,6.2344,6.2344,6.2324,6.2285,6.2519,6.2793,6.248,6.2305,6.2383,6.2715,6.2305,6.1348,6.1445,6.1445,6.1133,6.1445,6.1621,6.1341,6.1745,6.1448,6.0895,6.1099,6.1447,6.1668,6.1948,6.2388,6.2479,6.1877,6.1551,6.1831,6.1309,6.0742,6.0903,6.0254,5.9782,5.9376,5.8911,5.8724,5.8703,5.8616,5.8563,5.8546,5.8825,5.8499,5.8033,5.8221,5.8564,5.8564,5.8546,5.8581,5.8615,5.809,5.7844,5.7581,5.7581,5.7581,5.73,5.7317,5.7317,5.7053,5.626,5.5199,5.4667,5.4134,5.4134,5.4134,5.36,5.3317,5.2513,5.1707,4.9804,4.819,4.5992,4.4345,4.298,4.1934,4.1754,4.1669,4.2043,4.2272,4.2605,4.2405,4.2726,7.4792,7.4792,7.4792,7.4792,7.4792,7.4792,7.4199,7.352,7.2734,7.1952,7.0888,7.0593,7.0122,6.9034,6.949,6.9345,6.9109,6.7906,6.7541,6.8008,6.831,6.7863,6.7116,6.7654,6.693,6.5249,6.4751,6.3975,6.3003,6.293,6.2793,6.2793,6.2793,6.2793,6.2793,6.2793,6.289,6.3008,6.2871,6.2793,6.2793,6.2949,6.2793,6.2363,6.2187,6.1797,6.1113,6.1019,6.1095,6.1033,6.0973,6.08,6.0782,6.1143,6.1502,6.16,6.1694,6.213,6.2072,6.1849,6.1572,6.164,6.1361,6.1323,6.1361,6.0481,5.9726,5.9657,5.9118,5.8722,5.8533,5.8275,5.8137,5.8137,5.8034,5.8017,5.7742,5.7827,5.7913,5.7947,5.8101,5.8358,5.8546,5.8353,5.809,5.7564,5.7581,5.7581,5.7581,5.7581,5.7581,5.7581,5.6773,5.5979,5.5199,5.4667,5.4401,5.4401,5.4134,5.3584,5.3049,5.1976,5.0615,4.8991,4.6813,4.462,4.3519,4.2163,4.1742,4.1886,4.2272,4.269,4.3456,4.317,4.3666,7.5187,7.4814,7.4792,7.4792,7.4792,7.4792,7.455,7.4021,7.3455,7.2513,7.1616,7.1561,7.0846,6.9815,7.021,7.0592,7.0749,6.9329,6.923,7.0162,7.0499,7.0028,6.9536,6.9954,6.9245,6.7353,6.6229,6.513,6.3936,6.3301,6.3242,6.3242,6.3242,6.3242,6.3242,6.3242,6.3301,6.3139,6.3081,6.2763,6.2524,6.2659,6.2562,6.2331,6.2138,6.1988,6.1271,6.1269,6.1028,6.0763,6.0518,6.0277,6.0496,6.1245,6.1563,6.1655,6.1821,6.2017,6.2054,6.2003,6.1765,6.1765,6.1679,6.1695,6.1677,6.058,6.0072,5.9882,5.941,5.894,5.8666,5.8512,5.8409,5.8012,5.7756,5.7551,5.7449,5.7449,5.7398,5.7622,5.7896,5.8187,5.8392,5.8546,5.8336,5.809,5.7827,5.7844,5.7844,5.7844,5.7844,5.7581,5.7037,5.6244,5.5465,5.4934,5.4401,5.4401,5.4401,5.4134,5.3584,5.2513,5.1423,5.0074,4.8176,4.5705,4.3795,4.2415,4.1876,4.2019,4.22,4.2605,4.3382,4.4176,4.4374,7.5693,7.4836,7.4814,7.4792,7.4792,7.5034,7.4792,7.4792,7.477,7.3783,7.2734,7.3591,7.2632,7.0446,7.1267,7.1858,7.2563,7.1372,7.1129,7.2058,7.2417,7.242,7.2334,7.1878,7.0862,6.9421,6.7353,6.597,6.5147,6.4329,6.3932,6.3691,6.3691,6.3691,6.3691,6.3691,6.3626,6.3296,6.3103,6.2465,6.1794,6.2303,6.2151,6.1543,6.1752,6.1733,6.2034,6.1756,6.1391,6.082,6.067,6.0704,6.0619,6.1141,6.1563,6.1691,6.2352,6.2755,6.2792,6.2367,6.2264,6.2733,6.2192,6.2033,6.2205,6.1491,6.0875,6.0081,5.9926,5.9437,5.8855,5.8923,5.8693,5.7895,5.7692,5.7261,5.7076,5.7009,5.7151,5.7381,5.7585,5.8067,5.817,5.8409,5.8353,5.8353,5.8353,5.837,5.837,5.837,5.8353,5.7844,5.7037,5.6509,5.573,5.4934,5.4667,5.4401,5.4401,5.4134,5.4134,5.3317,5.2245,5.0615,4.8176,4.5979,4.3243,4.191,4.2155,4.2216,4.235,4.2876,4.4026,4.4823,4.5083,7.5407,7.4814,7.5275,7.5516,7.5516,7.5975,7.6215,7.6215,7.6215,7.5646,7.4793,7.5513,7.4901,7.361,7.3982,7.453,7.4771,7.4289,7.4289,7.4508,7.5075,7.481,7.4308,7.4524,7.3156,7.0565,6.8901,6.7215,6.601,6.5609,6.5068,6.4363,6.4121,6.4121,6.4101,6.4121,6.3956,6.4015,6.3937,6.3636,6.3393,6.3246,6.2925,6.2733,6.2341,6.2078,6.1702,6.0931,6.0837,6.0744,6.0256,6.0195,6.0444,6.1141,6.1545,6.1655,6.2352,6.281,6.2828,6.2808,6.3155,6.3403,6.3202,6.3047,6.3189,6.2152,6.1352,6.091,6.0184,5.954,5.918,5.9111,5.8796,5.7614,5.7362,5.6932,5.6504,5.6547,5.6346,5.6296,5.6807,5.727,5.7354,5.7607,5.809,5.8353,5.8615,5.8615,5.8615,5.8632,5.8632,5.837,5.7564,5.6773,5.6244,5.5465,5.4934,5.4667,5.4401,5.4401,5.4134,5.3852,5.2781,5.0884,4.8448,4.5992,4.3243,4.1959,4.2167,4.301,4.3502,4.4393,4.5058,4.5446,4.568,7.5934,7.5297,7.5516,7.5757,7.5757,7.6454,7.6671,7.6671,7.6671,7.6192,7.5953,7.6693,7.6304,7.5473,7.6,7.6352,7.6463,7.633,7.6482,7.694,7.6999,7.6752,7.62,7.6044,7.4739,7.2031,7.0341,6.8669,6.7197,6.6291,6.5504,6.4775,6.4394,6.4297,6.4316,6.4316,6.4297,6.4054,6.381,6.3644,6.3515,6.3063,6.2874,6.2513,6.2303,6.1807,6.154,6.081,6.0533,6.0515,6.025,6.0206,6.0628,6.1215,6.1636,6.1911,6.2388,6.281,6.2847,6.3158,6.3301,6.3458,6.3858,6.3707,6.344,6.2509,6.183,6.1369,6.078,5.9968,5.954,5.9557,5.9171,5.8035,5.7564,5.6932,5.6225,5.591,5.597,5.5761,5.627,5.6454,5.6832,5.7066,5.7284,5.7827,5.7827,5.809,5.809,5.809,5.8353,5.8353,5.7827,5.73,5.6509,5.5979,5.5199,5.4667,5.4401,5.4401,5.4401,5.4134,5.3317,5.06,4.8162,4.5992,4.3519,4.2427,4.2576,4.3457,4.4703,4.4689,4.5279,4.5965,4.6237,7.6946,7.5823,7.6019,7.5997,7.5997,7.6693,7.6932,7.691,7.6932,7.6671,7.6454,7.7261,7.7007,7.6376,7.7191,7.7898,7.8236,7.7921,7.82,7.8589,7.8316,7.8043,7.777,7.6742,7.5287,7.3657,7.1873,7.0216,6.8819,6.7481,6.5656,6.5333,6.4736,6.4559,6.454,6.4316,6.4093,6.3644,6.338,6.2836,6.2453,6.2242,6.2142,6.1742,6.1742,6.1723,6.1687,6.1343,6.1105,6.0591,6.0518,6.0683,6.1013,6.1398,6.1838,6.215,6.2572,6.2755,6.2883,6.3158,6.3301,6.3177,6.384,6.424,6.3458,6.3243,6.258,6.1795,6.116,6.0516,6.0019,6.0036,5.9767,5.8908,5.8001,5.6987,5.6342,5.5766,5.5634,5.5584,5.5766,5.598,5.6013,5.6294,5.6476,5.6773,5.6773,5.7037,5.7564,5.7827,5.809,5.809,5.809,5.7564,5.7037,5.6244,5.573,5.4934,5.4699,5.448,5.4464,5.4182,5.2766,5.0045,4.7848,4.5952,4.4371,4.303,4.3281,4.4295,4.4857,4.4727,4.5461,4.6483,4.6833,7.7365,7.6507,7.6873,7.6955,7.6693,7.7646,7.812,7.8143,7.8143,7.7929,7.7974,7.8554,7.8805,7.8463,7.9044,7.9513,7.9627,7.9513,7.9444,7.9925,7.9593,7.8543,7.7522,7.6797,7.5597,7.4093,7.3221,7.2242,7.0677,6.9557,6.8628,6.7097,6.6029,6.5769,6.5488,6.4336,6.3985,6.4237,6.3538,6.3235,6.3098,6.2673,6.2478,6.2319,6.1852,6.16,6.1581,6.1563,6.1508,6.1325,6.127,6.1306,6.1435,6.1801,6.2095,6.226,6.2572,6.281,6.2865,6.3158,6.3562,6.3721,6.4105,6.4506,6.4604,6.4122,6.353,6.2633,6.2181,6.1246,6.058,6.0276,6.0156,5.9529,5.8304,5.7171,5.6988,5.6459,5.5883,5.5407,5.5372,5.5669,5.5356,5.5486,5.5979,5.6244,5.6509,5.6773,5.7037,5.7564,5.7564,5.8353,5.8353,5.7844,5.7581,5.6773,5.5979,5.5465,5.4998,5.4592,5.4324,5.404,5.1753,4.8962,4.775,4.5831,4.4397,4.3143,4.413,4.533,4.5703,4.5794,4.6391,4.7184,4.7184,7.8117,7.7433,7.7861,7.7612,7.7193,7.8143,7.8731,7.8915,7.8938,7.896,7.9052,7.9489,7.9718,7.9764,8.02,8.0568,8.0728,8.0545,8.0338,8.0017,7.9626,7.8759,7.7464,7.7067,7.6059,7.4879,7.4114,7.3239,7.1973,7.1286,7.0111,6.8839,6.7481,6.6794,6.6814,6.5801,6.4941,6.4929,6.4455,6.4151,6.3299,6.3103,6.2728,6.2548,6.2349,6.2095,6.2095,6.2095,6.1948,6.1673,6.1581,6.1655,6.1856,6.2076,6.2278,6.2425,6.2682,6.281,6.2865,6.3158,6.3301,6.3703,6.4105,6.4488,6.4531,6.4372,6.3871,6.3943,6.2827,6.1875,6.1177,6.0838,6.0447,6.0259,5.9094,5.8221,5.767,5.6972,5.6178,5.5783,5.5832,5.5665,5.5157,5.5352,5.5433,5.5465,5.5465,5.5996,5.6789,5.7053,5.7351,5.7928,5.8192,5.7928,5.722,5.6723,5.5844,5.5296,5.5082,5.4624,5.3944,5.339,5.1137,4.8833,4.7506,4.609,4.4462,4.3863,4.4916,4.5735,4.64,4.6961,4.7308,4.7495,4.7495,7.8939,7.8485,7.8417,7.8123,7.7737,7.8449,7.8983,7.9328,7.9443,7.9466,7.9557,7.9925,8.004,8.0154,8.043,8.1004,8.144,8.0843,8.0568,8.0086,7.9295,7.8452,7.8336,7.7179,7.6215,7.5428,7.4286,7.3735,7.3034,7.1986,7.133,7.0391,6.8863,6.8008,6.7866,6.7458,6.6328,6.5148,6.5128,6.4592,6.3421,6.3025,6.29,6.2865,6.2755,6.2773,6.281,6.2792,6.2535,6.2073,6.1981,6.2202,6.2497,6.2534,6.2681,6.292,6.3031,6.3068,6.292,6.3232,6.3337,6.3513,6.4159,6.4488,6.4245,6.4372,6.4444,6.4858,6.3403,6.2504,6.1656,6.1402,6.0807,6.0687,6.0481,5.9733,5.8638,5.7387,5.6624,5.6624,5.6624,5.631,5.5779,5.5497,5.5199,5.5465,5.5216,5.553,5.611,5.6458,5.7038,5.7635,5.7867,5.7783,5.7105,5.6421,5.5773,5.4955,5.4925,5.4252,5.3398,5.2508,5.0572,4.8802,4.7168,4.5839,4.4708,4.489,4.5577,4.6094,4.6948,4.7175,4.7415,4.7469,4.7495,7.9946,7.8984,7.9079,7.8622,7.8043,7.8815,7.9305,7.9466,7.9833,7.9971,7.9994,8.0109,8.0131,8.0131,8.0292,8.0568,8.0981,8.0614,8.0407,8.066,7.9627,7.8878,7.8438,7.7343,7.6019,7.5297,7.4814,7.455,7.4199,7.3632,7.3088,7.23,7.1057,7.0478,6.9794,6.7659,6.601,6.5516,6.4319,6.3515,6.3048,6.292,6.2994,6.2883,6.3103,6.3232,6.325,6.325,6.3436,6.3749,6.347,6.3596,6.3889,6.3926,6.3727,6.3526,6.36,6.3454,6.3454,6.3379,6.3709,6.4068,6.4251,6.4754,6.4853,6.4908,6.4999,6.5091,6.4212,6.3062,6.198,6.1437,6.0875,6.0807,6.0567,6.0293,5.9785,5.8908,5.8121,5.8071,5.7637,5.6954,5.6671,5.6192,5.5578,5.5232,5.528,5.5094,5.5474,5.6137,5.677,5.7386,5.7687,5.737,5.6601,5.5877,5.5258,5.464,5.4252,5.3679,5.2568,5.1325,4.9649,4.8118,4.6825,4.5579,4.4955,4.511,4.5814,4.6653,4.7175,4.7295,4.7415,4.7455,4.7495,8.0715,7.9992,8.02,7.957,7.8942,7.9387,7.9879,8.0109,8.0338,8.0476,8.0476,8.0476,8.0338,8.0131,8.0154,8.0407,8.066,8.0142,7.9923,7.9863,7.8946,7.846,7.833,7.7261,7.5847,7.4855,7.4659,7.4572,7.4463,7.431,7.4201,7.3917,7.2649,7.1901,7.1594,6.9334,6.8014,6.6676,6.5477,6.4343,6.3012,6.2993,6.3213,6.3268,6.3397,6.3452,6.3654,6.3672,6.3933,6.4399,6.4491,6.4174,6.417,6.4245,6.4006,6.3362,6.3713,6.3787,6.3415,6.3599,6.3947,6.4552,6.4607,6.4827,6.5066,6.5176,6.5212,6.5018,6.4444,6.3584,6.2251,6.1419,6.0875,6.0858,6.0704,6.0584,6.0499,5.9836,5.921,5.9193,5.8756,5.8154,5.777,5.7053,5.6786,5.6552,5.63,5.6365,5.6398,5.7049,5.683,5.7181,5.7516,5.7263,5.5912,5.5083,5.4477,5.3902,5.3464,5.249,5.1271,5.0111,4.8702,4.7524,4.6678,4.6095,4.5722,4.5879,4.6305,4.6746,4.7201,4.7322,4.7415,4.7469,4.7495,8.1348,8.0889,8.0889,8.0591,8.0177,8.02,8.0453,8.082,8.0981,8.0981,8.0935,8.0866,8.043,7.9914,7.9639,7.9914,7.9786,7.9544,7.9234,7.9308,7.8281,7.7818,7.7906,7.6928,7.5844,7.4576,7.4568,7.4329,7.4043,7.4307,7.4463,7.4264,7.3535,7.2898,7.2494,7.1555,6.9493,6.7493,6.6603,6.541,6.351,6.3287,6.3635,6.3782,6.3819,6.3819,6.4039,6.4094,6.4357,6.5125,6.4807,6.4659,6.4046,6.399,6.362,6.3289,6.3859,6.4062,6.3764,6.3892,6.4167,6.4626,6.4607,6.4791,6.5084,6.5176,6.5194,6.4926,6.439,6.3314,6.2233,6.1419,6.0875,6.0875,6.0875,6.0875,6.0772,6.0293,6.007,5.9985,5.9665,5.9312,5.8993,5.8322,5.812,5.7884,5.7615,5.7361,5.7664,5.7427,5.6951,5.6538,5.665,5.641,5.5299,5.4429,5.3802,5.3115,5.2565,5.1463,5.037,4.9358,4.8297,4.7496,4.6639,4.6279,4.6279,4.6746,4.6852,4.7175,4.7255,4.7402,4.7469,4.7495,4.7495,8.1348,8.0889,8.0889,8.0591,8.0246,8.0568,8.082,8.0935,8.1325,8.1509,8.1371,8.0637,8.0005,7.9226,7.8475,7.8032,7.7779,7.7741,7.8168,7.8306,7.7617,7.7571,7.7876,7.7078,7.5631,7.4631,7.4072,7.3865,7.38,7.38,7.4065,7.3821,7.3556,7.3313,7.2313,7.0588,6.9594,6.8134,6.6563,6.4946,6.4342,6.3878,6.3947,6.4112,6.4204,6.4369,6.4461,6.4516,6.4762,6.5234,6.4712,6.4508,6.4621,6.518,6.4882,6.4566,6.4471,6.4693,6.424,6.4149,6.4461,6.4809,6.4809,6.4809,6.5084,6.5176,6.5176,6.4926,6.4104,6.3026,6.2756,6.1691,6.1147,6.0875,6.0875,6.0875,6.0841,6.0721,6.0567,6.0516,6.0362,6.0225,5.9904,5.9566,5.8977,5.842,5.8149,5.769,5.75,5.702,5.6538,5.6164,5.6079,5.5264,5.4693,5.3798,5.2873,5.2342,5.1742,5.0658,4.9612,4.895,4.8185,4.7538,4.6918,4.6569,4.6918,4.7322,4.7348,4.7348,4.7415,4.7495,4.7495,4.7495,4.7495,8.1509,8.1279,8.1279,8.1142,8.0981,8.1165,8.1279,8.1302,8.1532,8.1486,8.1096,8.0476,7.9467,7.8885,7.8054,7.7431,7.6828,7.6749,7.7261,7.7395,7.7038,7.7254,7.8023,7.7159,7.6174,7.5104,7.4191,7.3303,7.2867,7.309,7.3334,7.3313,7.3313,7.309,7.26,7.135,6.9843,6.8656,6.6817,6.526,6.4472,6.408,6.443,6.51,6.4872,6.4983,6.5433,6.4901,6.5167,6.513,6.5001,6.4909,6.5118,6.5327,6.5197,6.4693,6.4896,6.5081,6.4662,6.4571,6.4846,6.5084,6.4992,6.4992,6.5121,6.5176,6.5176,6.4926,6.3835,6.3009,6.3026,6.1673,6.1147,6.0875,6.0875,6.0875,6.0875,6.0875,6.0875,6.0875,6.0704,6.0567,6.0601,6.0228,5.9838,5.9246,5.8415,5.7969,5.7279,5.6779,5.6276,5.5787,5.5373,5.4523,5.3686,5.2847,5.2242,5.1492,5.0846,4.9753,4.919,4.8723,4.8253,4.7699,4.7091,4.6754,4.7078,4.7428,4.7469,4.7495,4.7495,4.7495,4.7495,4.7495,4.7495,8.1647,8.1647,8.1647,8.1647,8.1647,8.1647,8.1624,8.1647,8.1647,8.144,8.0981,8.0407,7.9421,7.8485,7.777,7.6955,7.6259,7.6177,7.6332,7.6729,7.6458,7.6714,7.7195,7.7216,7.6662,7.574,7.4867,7.3441,7.2588,7.2664,7.26,7.26,7.26,7.26,7.2355,7.1371,7.036,6.9116,6.7711,6.6188,6.5159,6.4582,6.5044,6.6187,6.5433,6.5451,6.5939,6.5691,6.5406,6.5406,6.5139,6.5157,6.5176,6.5176,6.4882,6.4479,6.4882,6.4919,6.4901,6.4956,6.5102,6.5176,6.5176,6.5176,6.5176,6.5176,6.5176,6.4926,6.3835,6.3009,6.2756,6.1691,6.1147,6.0875,6.0875,6.0875,6.0875,6.0875,6.0875,6.0875,6.0875,6.0858,6.0552,6.0228,5.9821,5.8986,5.8424,5.7619,5.7182,5.6663,5.6158,5.5604,5.4817,5.3965,5.2847,5.1739,5.1119,5.0723,4.9823,4.8709,4.8386,4.809,4.7915,4.7482,4.7482,4.7157,4.7482,4.7495,4.7495,4.7495,4.7495,4.7495,4.7495,4.7495,4.7495,8.1647,8.1647,8.1647,8.1647,8.1647,8.1647,8.1647,8.1647,8.1624,8.1624,8.1279,8.0545,7.9558,7.8758,7.6834,7.5779,7.5297,7.5385,7.5715,7.5932,7.6305,7.6518,7.702,7.702,7.6792,7.6206,7.546,7.4426,7.3547,7.2672,7.2194,7.2215,7.2236,7.2131,7.1969,7.1145,7.0112,6.9426,6.824,6.7042,6.6172,6.5303,6.5828,6.6471,6.649,6.6206,6.628,6.6014,6.5747,6.5194,6.5176,6.5176,6.5176,6.5176,6.5176,6.5084,6.5139,6.5176,6.5102,6.5139,6.5176,6.5176,6.5176,6.5176,6.5176,6.5194,6.5194,6.5176,6.3835,6.3026,6.2756,6.1691,6.1147,6.0892,6.0909,6.0909,6.0909,6.1029,6.1012,6.0927,6.0961,6.0415,6.0125,5.9817,5.951,5.8962,5.8154,5.7603,5.7051,5.6775,5.5944,5.5095,5.4817,5.3981,5.3127,5.1739,5.0866,5.0217,4.9371,4.824,4.8212,4.8185,4.7672,4.7495,4.7495,4.7495,4.7495,4.7495,4.7495,4.7495,4.7495,4.7495,4.7495,4.7495,4.7495,8.2357,8.1647,8.1647,8.1647,8.1647,8.1647,8.1647,8.1578,8.1325,8.105,8.0705,8.0063,7.9102,7.8304,7.6828,7.6237,7.5975,7.5735,7.6022,7.6,7.6484,7.6721,7.6954,7.7238,7.7119,7.6716,7.6163,7.5611,7.4456,7.3661,7.2661,7.2598,7.214,7.1788,7.1725,7.1001,7.0566,6.9872,6.8599,6.7083,6.6192,6.5754,6.5995,6.7078,6.6565,6.6565,6.6812,6.6546,6.6014,6.5461,6.5176,6.5176,6.5176,6.5176,6.5176,6.5176,6.5176,6.5176,6.5176,6.5176,6.5176,6.5176,6.5176,6.5176,6.5176,6.5194,6.4926,6.4658,6.3566,6.3026,6.2504,6.1419,6.1302,6.1081,6.0995,6.1081,6.1115,6.1183,6.1201,6.1115,6.1064,6.0602,6.0327,6.0483,6.0175,5.932,5.8737,5.7879,5.7327,5.6775,5.5666,5.4538,5.4538,5.4554,5.3407,5.2567,5.1725,5.0838,5.002,4.9172,4.8605,4.8335,4.778,4.7495,4.7495,4.7495,4.7495,4.7495,4.7495,4.7495,4.7495,4.7495,4.7495,4.7495,4.7495,8.3111,8.2113,8.2136,8.2113,8.1869,8.1869,8.1624,8.1578,8.1096,8.0683,8.0223,7.9718,7.8906,7.7782,7.7193,7.6932,7.6671,7.6671,7.6655,7.6596,7.6819,7.7038,7.6984,7.7444,7.7522,7.7948,7.7075,7.6629,7.6249,7.5011,7.4003,7.3291,7.2642,7.1996,7.1642,7.1498,7.0977,7.0237,6.8836,6.765,6.6775,6.6057,6.6756,6.7343,6.7343,6.7078,6.7078,6.6812,6.628,6.5461,6.5176,6.5176,6.5176,6.5176,6.5176,6.5176,6.5176,6.5176,6.5176,6.5176,6.5176,6.5176,6.5176,6.5176,6.5176,6.5194,6.5194,6.4658,6.3853,6.3044,6.2233,6.1691,6.1251,6.1354,6.1132,6.1269,6.1406,6.1509,6.156,6.1543,6.1526,6.1285,6.1216,6.0944,6.0551,5.9678,5.9062,5.8446,5.7603,5.6775,5.5651,5.4538,5.426,5.3981,5.3422,5.2567,5.2006,5.1444,5.0345,4.9496,4.893,4.8348,4.778,4.778,4.7495,4.7495,4.7495,4.7495,4.7495,4.7495,4.7495,4.7495,4.7495,4.7495,4.7509,8.3572,8.3572,8.333,8.3087,8.2578,8.2601,8.2113,8.1601,8.1073,8.0751,8.0407,7.981,7.8815,7.802,7.7669,7.7408,7.6671,7.6671,7.676,7.67,7.6552,7.7085,7.7082,7.7298,7.7759,7.8339,7.8023,7.8067,7.8111,7.6933,7.5182,7.3626,7.3312,7.2726,7.2412,7.1825,7.128,7.0489,6.9131,6.8587,6.792,6.7624,6.757,6.8645,6.8401,6.7872,6.7343,6.7078,6.6546,6.5461,6.5194,6.5176,6.5176,6.5176,6.5194,6.5286,6.5212,6.5249,6.5341,6.5267,6.5176,6.5176,6.5176,6.5176,6.5176,6.5176,6.5194,6.4926,6.4122,6.3584,6.2774,6.2251,6.1488,6.1388,6.1269,6.1423,6.1629,6.1903,6.1954,6.1954,6.192,6.1592,6.137,6.1355,6.0978,6.0378,5.9336,5.8704,5.7327,5.6482,5.5373,5.4538,5.3981,5.3422,5.2567,5.2287,5.2006,5.1162,5.0062,4.9496,4.8632,4.8348,4.8064,4.7495,4.7495,4.7495,4.7495,4.7495,4.7495,4.7495,4.7522,4.7589,4.729,4.6965,4.6978,8.4801,8.4801,8.4801,8.3814,8.2601,8.2601,8.2113,8.1486,8.0774,8.0017,7.9512,7.9075,7.8563,7.8426,7.8143,7.8143,7.7883,7.7883,7.7646,7.7589,7.7449,7.7522,7.7727,7.7996,7.8552,7.8797,7.8749,7.8699,7.8427,7.7948,7.7042,7.5647,7.4299,7.3437,7.2889,7.2424,7.1425,7.0757,6.9725,6.8937,6.8452,6.7739,6.7853,6.8664,6.8664,6.8401,6.7853,6.7589,6.6812,6.6014,6.548,6.5231,6.5249,6.5249,6.5377,6.5506,6.5396,6.5487,6.5689,6.5506,6.5194,6.5176,6.5176,6.5176,6.5176,6.5176,6.4926,6.4658,6.439,6.3853,6.2504,6.2251,6.1795,6.1457,6.1372,6.1543,6.18,6.2091,6.2262,6.2245,6.2108,6.1988,6.1714,6.1423,6.1114,6.0805,5.9728,5.8979,5.7587,5.6759,5.5912,5.5357,5.4801,5.426,5.3407,5.2847,5.2287,5.0895,4.9779,4.9213,4.8646,4.8632,4.8348,4.778,4.7522,4.7549,4.7549,4.7509,4.7495,4.7224,4.7343,4.7489,4.715,4.6771,4.6485,8.5543,8.5543,8.5543,8.4561,8.3307,8.3087,8.2601,8.1731,8.0751,7.9787,7.8846,7.8708,7.8593,7.8593,7.8593,7.8593,7.8357,7.8357,7.838,7.802,7.7964,7.8087,7.8056,7.8306,7.8844,7.9359,7.9427,7.9447,7.9198,7.8699,7.7632,7.6495,7.5334,7.4426,7.3388,7.2745,7.2076,7.1262,7.0679,6.9824,6.905,6.8804,6.8539,6.9089,6.9108,6.8596,6.8273,6.7703,6.6771,6.6236,6.5682,6.5396,6.5432,6.5524,6.5708,6.5781,6.5818,6.5873,6.6056,6.5854,6.5396,6.5432,6.5231,6.5212,6.5194,6.5194,6.4926,6.439,6.4122,6.3871,6.2521,6.2251,6.2014,6.1916,6.1355,6.156,6.1937,6.2245,6.2416,6.2502,6.2365,6.2211,6.1954,6.1663,6.1303,6.0978,6.05,5.9801,5.8704,5.7863,5.7295,5.6743,5.5928,5.5373,5.4817,5.3407,5.171,5.0331,4.9213,4.893,4.8362,4.8348,4.8362,4.7793,4.7535,4.7602,4.7696,4.7503,4.7383,4.7237,4.7057,4.6589,4.6837,4.6195,4.5804,8.5543,8.5543,8.5543,8.5041,8.4296,8.3814,8.3087,8.2265,8.1224,8.0177,7.9213,7.88,7.8593,7.8593,7.8593,7.8593,7.8593,7.8593,7.8593,7.8426,7.8394,7.8349,7.8584,7.8816,7.9557,8.0235,8.0169,7.9921,7.9696,7.9198,7.8177,7.7172,7.6307,7.5568,7.4613,7.3723,7.3113,7.2709,7.1915,7.1099,7.0527,7.0241,7.0222,7.0202,6.9668,6.9095,6.8789,6.7526,6.6895,6.6339,6.6069,6.5799,6.5818,6.6074,6.6258,6.6349,6.6331,6.6349,6.6386,6.6019,6.5891,6.5763,6.5542,6.5322,6.5249,6.5231,6.4999,6.4266,6.4481,6.4176,6.3619,6.308,6.2627,6.2136,6.1851,6.1853,6.2231,6.2348,6.2502,6.2399,6.2468,6.2485,6.2245,6.192,6.1355,6.1098,6.0944,6.033,5.9527,5.8979,5.8413,5.7295,5.6482,5.508,5.4244,5.2847,5.1148,4.9765,4.8646,4.8362,4.8064,4.778,4.7793,4.7522,4.7642,4.7776,4.7675,4.7559,4.7401,4.6942,4.5835,4.5338,4.5656,4.5518,4.5052,8.5543,8.5543,8.5543,8.528,8.5041,8.4537,8.3572,8.2439,8.0971,7.981,7.9006,7.8662,7.8593,7.8593,7.8593,7.8593,7.8593,7.8593,7.8593,7.8662,7.87,7.9021,7.9284,7.9878,8.0311,8.0654,8.0659,8.0663,8.0439,7.9696,7.8949,7.8199,7.6941,7.6078,7.5269,7.4251,7.3697,7.3013,7.2035,7.1523,7.0742,7.0742,7.0762,7.0781,6.9977,6.9459,6.9189,6.7921,6.7035,6.6745,6.6474,6.6203,6.6221,6.6441,6.6569,6.6643,6.6643,6.6551,6.6698,6.6624,6.6478,6.6203,6.5873,6.5616,6.5597,6.5059,6.4789,6.45,6.4248,6.3977,6.3434,6.3452,6.318,6.2732,6.2636,6.235,6.2697,6.2575,6.2519,6.2177,6.2091,6.2023,6.1851,6.1851,6.144,6.1201,6.1081,6.0927,6.0347,5.9801,5.9253,5.7863,5.6743,5.508,5.3407,5.2006,5.0599,4.9199,4.8348,4.778,4.7495,4.7495,4.7616,4.7696,4.7843,4.799,4.7941,4.781,4.7401,4.6652,4.5843,4.4926,4.5227,4.4646,4.3818,8.5351,8.5519,8.5543,8.5543,8.528,8.4777,8.372,8.2206,8.0958,7.9888,7.8983,7.8731,7.8593,7.8593,7.8593,7.8593,7.8593,7.8593,7.8823,7.8892,7.9213,7.9626,8.0109,8.0522,8.0715,8.1165,8.1417,8.1156,8.0191,7.9944,7.9198,7.8199,7.7446,7.6926,7.5951,7.5194,7.4122,7.3439,7.256,7.1977,7.165,7.1362,7.1211,7.0942,7.0402,6.9571,6.9243,6.8334,6.7425,6.7152,6.6879,6.6606,6.6624,6.6771,6.6936,6.7046,6.7046,6.6991,6.7138,6.6991,6.6863,6.6863,6.6349,6.6056,6.5748,6.5477,6.4915,6.437,6.4115,6.3842,6.3569,6.3569,6.3498,6.3049,6.2863,6.2593,6.2836,6.273,6.2605,6.2228,6.2023,6.1834,6.1646,6.156,6.1492,6.1355,6.1252,6.1081,6.0909,6.0074,5.9253,5.7863,5.6466,5.4229,5.2567,5.1162,4.9765,4.8348,4.778,4.7495,4.7495,4.7509,4.7682,4.7883,4.8056,4.8257,4.7955,4.7768,4.7372,4.6924,4.5847,4.529,4.4869,4.4428,4.3626,8.499,8.5447,8.5495,8.5447,8.5256,8.4753,8.3555,8.1834,8.1323,8.0335,7.9351,7.88,7.8616,7.8593,7.8593,7.8593,7.8593,7.8593,7.8915,7.9259,7.9489,8.0017,8.0522,8.0912,8.1211,8.1486,8.1401,8.1156,7.9944,7.9447,7.8949,7.7948,7.7697,7.7158,7.6463,7.5774,7.4789,7.4129,7.3433,7.2751,7.2135,7.2181,7.195,7.1408,7.0632,7.0144,6.954,6.8567,6.7614,6.7303,6.7303,6.7028,6.7138,6.7413,6.7541,6.7596,6.756,6.7541,6.7486,6.723,6.7248,6.7285,6.6881,6.6569,6.615,6.5877,6.533,6.4782,6.4507,6.3957,6.3406,6.3406,6.3371,6.306,6.2801,6.2715,6.2905,6.285,6.2971,6.285,6.2433,6.2262,6.2057,6.192,6.1749,6.1697,6.156,6.1252,6.0807,5.9236,5.8413,5.7571,5.5619,5.3671,5.2006,5.0316,4.9199,4.8078,4.778,4.7495,4.7495,4.7562,4.7736,4.7963,4.8257,4.8524,4.8538,4.8325,4.7659,4.6891,4.6723,4.605,4.5847,4.5224,4.477,8.4244,8.4365,8.4365,8.4581,8.4966,8.5112,8.4251,8.2533,8.106,8.0096,7.9374,7.8846,7.8616,7.8593,7.8593,7.8593,7.8593,7.8662,7.8983,7.9328,7.9741,8.0292,8.0797,8.1234,8.1486,8.1578,8.1401,8.1156,8.0191,7.9696,7.8699,7.7948,7.7697,7.7324,7.7012,7.6569,7.5788,7.5244,7.4313,7.3513,7.2811,7.253,7.228,7.1719,7.1097,7.0628,7.0022,6.9417,6.8773,6.8241,6.8297,6.8316,6.7468,6.756,6.7615,6.7615,6.7615,6.7615,6.7596,6.7505,6.7486,6.7578,6.734,6.712,6.6661,6.6277,6.5745,6.5193,6.4899,6.4363,6.4086,6.4069,6.3998,6.3669,6.3704,6.3826,6.3705,6.3461,6.3582,6.3199,6.3061,6.2553,6.2382,6.2228,6.2074,6.204,6.1868,6.1543,6.0395,5.8803,5.7571,5.6727,5.4508,5.1991,5.0599,4.9185,4.8348,4.7495,4.7535,4.7575,4.7616,4.7696,4.7829,4.8123,4.8537,4.8871,4.9165,4.8549,4.8149,4.8391,4.8232,4.7209,4.6508,4.619,4.5796,8.3715,8.3884,8.3908,8.422,8.4677,8.4609,8.3847,8.2965,8.154,8.0219,7.9098,7.8754,7.8593,7.8593,7.8593,7.8593,7.8593,7.8639,7.8983,7.9718,8.0017,8.0591,8.1096,8.1463,8.1333,8.1401,8.1156,8.0663,7.9944,7.8949,7.7948,7.7697,7.7697,7.7446,7.7281,7.7012,7.6676,7.6153,7.5203,7.417,7.3578,7.3079,7.2313,7.1793,7.1253,7.0882,7.094,7.0098,6.9549,6.9017,6.933,6.8778,6.791,6.791,6.7633,6.7633,6.7633,6.7633,6.7615,6.7615,6.7615,6.7633,6.7633,6.7486,6.7081,6.6695,6.6142,6.5882,6.5309,6.503,6.503,6.5013,6.4871,6.4747,6.4835,6.4906,6.4664,6.4385,6.4054,6.3688,6.3426,6.2971,6.2902,6.2502,6.2382,6.2314,6.1796,6.1162,5.9686,5.7717,5.6759,5.5881,5.3097,5.0316,4.9199,4.866,4.8159,4.7928,4.7722,4.7749,4.7762,4.7923,4.8137,4.8497,4.8911,4.9139,4.899,4.9272,4.891,4.9139,4.8764,4.8338,4.758,4.7171,4.6444,8.3331,8.3739,8.3836,8.4052,8.4461,8.3677,8.3276,8.3586,8.2352,8.0984,7.9059,7.8639,7.8593,7.8593,7.8593,7.8593,7.8662,7.8754,7.9236,8.0109,8.0246,8.0751,8.1325,8.1401,8.1156,8.0932,8.0439,8.0169,7.8949,7.8199,7.7948,7.7697,7.7697,7.7697,7.7467,7.7237,7.7055,7.6868,7.5964,7.5091,7.4328,7.3316,7.2483,7.2254,7.1738,7.1213,7.092,7.0373,6.9824,6.9843,6.9643,6.9386,6.8483,6.791,6.7633,6.7633,6.7633,6.7633,6.7633,6.7633,6.7633,6.7633,6.7633,6.7596,6.7246,6.6932,6.6654,6.6654,6.634,6.5783,6.5783,6.5505,6.5416,6.5362,6.5398,6.5451,6.5469,6.519,6.4875,6.4526,6.3984,6.3492,6.293,6.281,6.2759,6.2622,6.1493,6.0565,5.9054,5.6752,5.542,5.4508,5.1696,4.9199,4.8957,4.8145,4.8281,4.8076,4.7909,4.8016,4.8083,4.827,4.8497,4.8472,4.8417,4.8562,4.8681,4.8681,4.8681,4.8655,4.8589,4.8817,4.8391,4.7926,4.7463,8.2585,8.2753,8.3138,8.3403,8.3547,8.3577,8.3271,8.2563,8.221,8.1292,7.9832,7.9013,7.8639,7.8731,7.8639,7.8639,7.8754,7.9029,7.9557,8.0131,8.0476,8.0912,8.1264,8.1156,8.091,8.0686,8.0191,7.9447,7.8699,7.7948,7.7697,7.7697,7.7697,7.7697,7.7697,7.7446,7.7554,7.7541,7.7167,7.6006,7.4913,7.4965,7.4699,7.3527,7.2299,7.1972,7.1739,7.1467,7.1194,7.0666,7.1228,7.007,6.7929,6.7633,6.7615,6.7633,6.7633,6.7633,6.7633,6.7633,6.7633,6.7633,6.7633,6.7633,6.7615,6.7355,6.7355,6.7337,6.7059,6.6781,6.6502,6.6224,6.6224,6.5944,6.5944,6.5944,6.6242,6.5962,6.5683,6.5123,6.4561,6.3981,6.3418,6.3118,6.3101,6.205,6.0372,5.9181,5.7372,5.5607,5.3572,5.2345,5.0034,4.8078,4.7847,4.7981,4.8129,4.8317,4.8163,4.8284,4.8404,4.8299,4.8485,4.7978,4.7854,4.8293,4.8385,4.7496,4.7496,4.8089,4.8076,4.8602,4.8536,4.7802,4.8232,8.2345,8.2369,8.2633,8.2898,8.3114,8.321,8.293,8.2625,8.2178,8.1383,8.0634,7.972,7.9059,7.9029,7.8846,7.896,7.9121,7.9305,7.9879,8.0407,8.0751,8.1119,8.1195,8.1156,8.0663,8.0191,7.9198,7.8449,7.8199,7.7948,7.7697,7.7697,7.7697,7.7697,7.7697,7.7719,7.7828,7.8047,7.7953,7.7361,7.5947,7.5943,7.5641,7.4188,7.3338,7.3038,7.2555,7.2283,7.1739,7.1213,7.1093,6.9937,6.8132,6.7578,6.7615,6.7633,6.7633,6.7633,6.7633,6.7633,6.7633,6.7633,6.7633,6.7633,6.7633,6.7355,6.7355,6.7355,6.7355,6.7059,6.7059,6.7059,6.7059,6.6781,6.6781,6.7059,6.7077,6.6799,6.6521,6.5962,6.507,6.4404,6.386,6.3084,6.2734,6.1368,5.9741,5.8132,5.637,5.4113,5.2089,5.0713,4.866,4.7901,4.8035,4.7883,4.803,4.8217,4.8404,4.8631,4.8805,4.8631,4.847,4.8201,4.7932,4.8319,4.8089,4.7496,4.7496,4.8089,4.8089,4.8076,4.8011,4.7946,4.7854,8.2345,8.2345,8.2345,8.2585,8.2922,8.2537,8.2609,8.2642,8.2075,8.1493,8.1332,8.033,8.0138,7.9566,7.9236,7.9535,7.9764,7.9833,8.0292,8.066,8.0958,8.1302,8.1509,8.1401,8.0663,7.9425,7.8449,7.8199,7.7697,7.7697,7.7697,7.7697,7.7697,7.7697,7.7719,7.7806,7.7981,7.8331,7.8257,7.8263,7.7526,7.647,7.6026,7.5089,7.4184,7.3348,7.2826,7.2555,7.1992,7.1467,7.0685,6.953,6.839,6.7855,6.7596,6.7633,6.7633,6.7633,6.7633,6.7633,6.7633,6.7633,6.7633,6.7633,6.7633,6.7633,6.7633,6.7633,6.7633,6.7633,6.7633,6.7633,6.7615,6.7633,6.7633,6.7633,6.7633,6.7633,6.7077,6.6502,6.554,6.4858,6.4071,6.3562,6.2231,6.0604,5.9045,5.714,5.5236,5.2752,5.0513,4.9393,4.8362,4.7928,4.7803,4.803,4.8163,4.8417,4.8631,4.8938,4.9152,4.8575,4.8589,4.8628,4.8681,4.8385,4.8385,4.8089,4.8089,4.8089,4.8089,4.8089,4.778,4.7728,4.7457,8.2345,8.2345,8.2345,8.2417,8.2465,8.2369,8.2393,8.2465,8.2162,8.2099,8.1802,8.1332,8.0681,7.967,7.9925,8.0035,8.0211,8.02,8.0522,8.0866,8.1234,8.1486,8.1356,8.1156,8.0191,7.9198,7.8449,7.7948,7.7948,7.7948,7.7697,7.7697,7.7697,7.7719,7.7763,7.7959,7.8287,7.8338,7.7918,7.7853,7.776,7.7227,7.6686,7.5705,7.4406,7.3638,7.3097,7.2283,7.1992,7.1447,7.0647,6.953,6.8703,6.7874,6.7615,6.7633,6.7633,6.7633,6.7633,6.7633,6.7633,6.7633,6.7633,6.7633,6.7633,6.7633,6.7633,6.7633,6.7633,6.7633,6.7633,6.7633,6.7633,6.7633,6.7633,6.7633,6.7633,6.7355,6.7355,6.6394,6.5398,6.4822,6.4036,6.3074,6.1628,6.0091,5.7912,5.6004,5.368,5.1268,4.8892,4.8348,4.7807,4.778,4.7589,4.8056,4.8284,4.8551,4.8818,4.9366,4.9232,4.8655,4.8385,4.8977,4.8385,4.7496,4.7793,4.8385,4.7793,4.7793,4.8089,4.8089,4.7793,4.7496,4.7199]},{"header":{"parameterUnit":"m.s-1","parameterCategory":1,"la1":31.0,"la2":29.5877,"lo1":-88.7671,"lo2":-86.6584,"dy":0.0162,"dx":0.0185,"nx":115,"ny":88,"refTime":"2024-02-12T12:00:00:Z","depth":0,"parameterNumber":3,"parameterNumberName":"V-component_of_WINDS"},"data":[0.0,0.0,0.0,0.0,0.0,0.0,0.0,0.0,0.0,0.0,0.0,0.0,0.0,0.0,0.0,0.0,0.0,0.0,0.0,0.0,0.0,0.0,0.0,0.0,0.0,0.0,0.0,0.0,0.0,0.0,0.0,0.0,0.0,0.0,0.0,0.0,0.0,0.0,0.0,0.0,0.0,0.0,0.0,0.0,0.0,0.0,0.0,0.0,0.0,0.0,0.0,0.0,0.0,0.0,0.0,0.0,0.0,0.0,0.0,0.0,0.0,0.0,0.0,0.0,0.0,0.0,0.0,0.0,0.0,0.0,0.0,0.0,0.0,0.0,0.0,0.0,0.0,0.0,0.0,0.0,0.0,0.0,0.0,0.0,0.0,0.0,0.0,0.0,0.0,0.0,0.0,0.0,0.0,0.0,0.0,0.0,0.0,0.0,0.0,0.0,0.0,0.0,0.0,0.0,0.0,0.0,0.0,0.0,0.0,0.0,0.0,0.0,0.0,0.0,0.0,0.0,0.0,0.0,0.0,0.0,0.0,0.0,0.0,0.0,0.0,0.0,0.0,0.0,0.0,0.0,0.0,0.0,0.0,0.0,0.0,0.0,0.0,0.0,0.0,0.0,0.0,0.0,0.0,0.0,0.0,0.0,0.0,0.0,0.0,0.0,0.0,0.0,0.0,0.0,0.0,0.0,0.0,0.0,0.0,0.0,0.0,0.0,0.0,0.0,0.0,0.0,0.0,0.0,0.0,0.0,0.0,0.0,0.0,0.0,0.0,0.0,0.0,0.0,0.0,0.0,0.0,0.0,0.0,0.0,0.0,0.0,0.0,0.0,0.0,0.0,0.0,0.0,0.0,0.0,0.0,0.0,0.0,0.0,0.0,0.0,0.0,0.0,0.0,0.0,0.0,0.0,0.0,0.0,0.0,0.0,0.0,0.0,0.0,0.0,0.0,0.0,0.0,0.0,0.0,0.0,0.0,0.0,0.0,0.0,0.0,0.0,0.0,0.0,0.0,0.0,0.0,0.0,0.0,0.0,0.0,0.0,0.0,0.0,0.0,0.0,0.0,0.0,0.0,0.0,0.0,0.0,0.0,0.0,0.0,0.0,0.0,0.0,0.0,0.0,0.0,0.0,0.0,0.0,0.0,0.0,0.0,0.0,0.0,0.0,0.0,0.0,0.0,0.0,0.0,0.0,0.0,0.0,0.0,0.0,0.0,0.0,0.0,0.0,0.0,0.0,0.0,0.0,0.0,0.0,0.0,0.0,0.0,0.0,0.0,0.0,0.0,0.0,0.0,0.0,0.0,0.0,0.0,0.0,0.0,0.0,0.0,0.0,0.0,0.0,0.0,0.0,0.0,0.0,0.0,0.0,0.0,0.0,0.0,0.0,0.0,0.0,0.0,0.0,0.0,0.0,0.0,0.0,0.0,0.0,0.0,0.0,0.0,0.0,0.0,0.0,0.0,0.0,0.0,0.0,0.0,0.0,0.0,0.0,0.0,0.0,0.0,0.0,0.0,0.0,0.0,0.0,0.0,0.0,0.0,0.0,0.0,0.0,0.0,0.0,0.0,0.0,0.0,0.0,0.0,0.0,0.0,0.0,0.0,0.0,0.0,0.0,0.0,0.0,0.0,0.0,0.0,0.0,0.0,0.0,0.0,0.0,0.0,0.0,0.0,0.0,0.0,0.0,0.0,0.0,0.0,0.0,0.0,0.0,0.0,0.0,0.0,0.0,0.0,0.0,0.0,0.0,0.0,0.0,0.0,0.0,0.0,0.0,0.0,0.0,0.0,0.0,0.0,0.0,0.0,0.0,0.0,0.0,0.0,0.0,0.0,0.0,0.0,0.0,0.0,0.0,0.0,0.0,0.0,0.0,0.0,0.0,0.0,0.0,0.0,0.0,0.0,0.0,0.0,0.0,0.0,0.0,0.0,0.0,0.0,0.0,0.0,0.0,0.0,0.0,0.0,0.0,0.0,0.0,0.0,0.0,0.0,0.0,0.0,0.0,0.0,0.0,0.0,0.0,0.0,0.0,0.0,0.0,0.0,0.0,0.0,0.0,0.0,0.0,0.0,0.0,0.0,0.0,0.0,0.0,0.0,0.0,0.0,0.0,0.0,0.0,0.0,0.0,0.0,0.0,0.0,0.0,0.0,0.0,0.0,0.0,0.0,0.0,0.0,0.0,0.0,0.0,0.0,0.0,0.0,0.0,0.0,0.0,0.0,0.0,0.0,0.0,0.0,0.0,0.0,0.0,0.0,0.0,0.0,0.0,0.0,0.0,0.0,0.0,0.0,0.0,0.0,0.0,0.0,0.0,0.0,0.0,0.0,0.0,0.0,0.0,0.0,0.0,0.0,0.0,0.0,0.0,0.0,0.0,0.0,0.0,0.0,0.0,0.0,0.0,0.0,0.0,0.0,0.0,0.0,0.0,0.0,0.0,0.0,0.0,0.0,0.0,0.0,0.0,0.0,0.0,0.0,0.0,0.0,0.0,0.0,0.0,0.0,0.0,0.0,0.0,0.0,0.0,0.0,0.0,0.0,0.0,0.0,0.0,0.0,0.0,0.0,0.0,0.0,0.0,0.0,0.0,0.0,0.0,0.0,0.0,0.0,0.0,0.0,0.0,0.0,0.0,0.0,0.0,0.0,0.0,0.0,0.0,0.0,0.0,0.0,0.0,0.0,0.0,0.0,0.0,0.0,0.0,0.0,0.0,0.0,0.0,0.0,0.0,0.0,0.0,0.0,0.0,0.0,0.0,0.0,0.0,0.0,0.0,0.0,0.0,0.0,0.0,0.0,0.0,0.0,0.0,0.0,0.0,0.0,0.0,0.0,0.0,0.0,0.0,0.0,0.0,0.0,0.0,0.0,0.0,0.0,0.0,0.0,0.0,0.0,0.0,0.0,0.0,0.0,0.0,0.0,0.0,0.0,0.0,0.0,0.0,0.0,0.0,0.0,0.0,0.0,0.0,0.0,0.0,0.0,0.0,0.0,0.0,0.0,0.0,0.0,0.0,0.0,0.0,0.0,0.0,0.0,0.0,0.0,0.0,0.0,0.0,0.0,0.0,0.0,0.0,0.0,0.0,0.0,0.0,0.0,0.0,0.0,0.0,0.0,0.0,0.0,0.0,0.0,0.0,0.0,0.0,0.0,0.0,0.0,0.0,0.0,0.0,0.0,0.0,0.0,0.0,0.0,0.0,0.0,0.0,0.0,0.0,0.0,0.0,0.0,0.0,0.0,0.0,0.0,0.0,0.0,0.0,0.0,0.0,0.0,0.0,0.0,0.0,0.0,0.0,0.0,0.0,0.0,0.0,0.0,0.0,0.0,0.0,0.0,0.0,0.0,0.0,0.0,0.0,0.0,0.0,0.0,0.0,0.0,0.0,0.0,0.0,0.0,0.0,0.0,0.0,0.0,0.0,0.0,0.0,0.0,0.0,0.0,0.0,0.0,0.0,0.0,0.0,0.0,0.0,0.0,0.0,0.0,0.0,0.0,0.0,0.0,0.0,0.0,0.0,0.0,0.0,0.0,0.0,0.0,0.0,0.0,0.0,0.0,0.0,0.0,0.0,0.0,0.0,0.0,0.0,0.0,0.0,0.0,0.0,0.0,0.0,0.0,0.0,0.0,0.0,0.0,0.0,0.0,0.0,0.0,0.0,0.0,0.0,0.0,0.0,0.0,0.0,0.0,0.0,0.0,0.0,0.0,0.0,0.0,0.0,0.0,0.0,0.0,0.0,0.0,0.0,0.0,0.0,0.0,0.0,0.0,0.0,0.0,0.0,0.0,0.0,0.0,0.0,0.0,0.0,0.0,0.0,0.0,0.0,0.0,0.0,0.0,0.0,0.0,0.0,0.0,0.0,0.0,0.0,0.0,0.0,0.0,0.0,0.0,0.0,0.0,0.0,0.0,0.0,0.0,0.0,0.0,0.0,0.0,0.0,0.0,0.0,0.0,0.0,0.0,0.0,0.0,0.0,0.0,0.0,0.0,0.0,0.0,0.0,0.0,0.0,0.0,0.0,0.0,0.0,0.0,0.0,0.0,0.0,0.0,0.0,0.0,0.0,0.0,0.0,0.0,0.0,0.0,0.0,0.0,0.0,0.0,0.0,0.0,0.0,0.0,0.0,0.0,0.0,0.0,0.0,0.0,0.0,0.0,0.0,0.0,0.0,0.0,0.0,0.0,0.0,0.0,0.0,0.0,0.0,0.0,0.0,0.0,0.0,0.0,0.0,0.0,0.0,0.0,0.0,0.0,0.0,0.0,0.0,-5.5199,0.0,0.0,0.0,0.0,0.0,0.0,0.0,0.0,0.0,0.0,0.0,0.0,0.0,0.0,0.0,0.0,0.0,0.0,0.0,0.0,0.0,0.0,0.0,0.0,0.0,0.0,0.0,0.0,0.0,0.0,0.0,0.0,0.0,0.0,0.0,0.0,0.0,0.0,0.0,0.0,0.0,0.0,0.0,0.0,0.0,0.0,0.0,0.0,0.0,0.0,0.0,0.0,0.0,0.0,0.0,0.0,0.0,0.0,0.0,0.0,0.0,0.0,0.0,0.0,0.0,0.0,0.0,0.0,0.0,0.0,0.0,0.0,0.0,0.0,0.0,0.0,0.0,0.0,0.0,0.0,0.0,0.0,0.0,0.0,0.0,0.0,0.0,0.0,0.0,0.0,0.0,0.0,0.0,0.0,0.0,0.0,0.0,0.0,0.0,0.0,0.0,0.0,0.0,0.0,0.0,0.0,0.0,0.0,0.0,0.0,-5.4367,-5.4367,-5.4807,-5.5053,-5.5079,0.0,0.0,0.0,0.0,0.0,0.0,0.0,0.0,0.0,0.0,0.0,0.0,0.0,0.0,0.0,0.0,0.0,0.0,0.0,0.0,0.0,0.0,0.0,0.0,0.0,0.0,0.0,0.0,0.0,0.0,0.0,0.0,0.0,0.0,0.0,0.0,0.0,0.0,0.0,0.0,0.0,0.0,0.0,0.0,0.0,0.0,0.0,0.0,0.0,0.0,0.0,0.0,0.0,0.0,0.0,0.0,0.0,0.0,0.0,0.0,0.0,0.0,0.0,0.0,0.0,0.0,0.0,0.0,0.0,0.0,0.0,0.0,0.0,0.0,0.0,0.0,0.0,0.0,0.0,0.0,0.0,0.0,0.0,0.0,0.0,0.0,0.0,0.0,0.0,0.0,0.0,0.0,0.0,0.0,0.0,0.0,0.0,0.0,0.0,0.0,0.0,0.0,0.0,0.0,0.0,0.0,0.0,0.0,0.0,0.0,0.0,0.0,-5.5327,-5.5583,-5.5819,0.0,0.0,0.0,0.0,0.0,0.0,0.0,0.0,0.0,0.0,0.0,0.0,0.0,0.0,0.0,0.0,0.0,0.0,0.0,0.0,0.0,0.0,0.0,0.0,0.0,0.0,0.0,0.0,0.0,0.0,0.0,0.0,0.0,0.0,0.0,0.0,0.0,0.0,0.0,0.0,0.0,0.0,0.0,0.0,0.0,0.0,0.0,0.0,0.0,0.0,0.0,0.0,0.0,0.0,0.0,0.0,0.0,0.0,0.0,0.0,0.0,0.0,0.0,0.0,0.0,0.0,0.0,0.0,0.0,0.0,0.0,0.0,0.0,0.0,0.0,0.0,0.0,0.0,0.0,0.0,0.0,0.0,0.0,0.0,0.0,0.0,0.0,0.0,0.0,0.0,0.0,0.0,0.0,0.0,0.0,0.0,0.0,0.0,0.0,0.0,0.0,0.0,0.0,0.0,0.0,0.0,0.0,0.0,0.0,0.0,-5.5375,-5.6529,-5.6759,0.0,-5.8212,0.0,0.0,0.0,0.0,0.0,0.0,0.0,0.0,0.0,0.0,0.0,0.0,0.0,0.0,0.0,0.0,0.0,0.0,0.0,0.0,0.0,0.0,0.0,0.0,0.0,0.0,0.0,0.0,0.0,0.0,0.0,0.0,0.0,0.0,0.0,0.0,0.0,0.0,0.0,0.0,0.0,0.0,0.0,0.0,0.0,0.0,0.0,0.0,0.0,0.0,0.0,0.0,0.0,0.0,0.0,0.0,0.0,0.0,0.0,0.0,0.0,0.0,0.0,0.0,0.0,0.0,0.0,0.0,0.0,0.0,0.0,0.0,0.0,0.0,0.0,0.0,0.0,0.0,0.0,0.0,0.0,0.0,0.0,0.0,0.0,0.0,0.0,0.0,0.0,0.0,0.0,0.0,0.0,0.0,0.0,0.0,0.0,0.0,0.0,0.0,0.0,0.0,0.0,0.0,0.0,0.0,0.0,0.0,0.0,0.0,-5.6344,-5.6867,-5.6967,-5.7717,0.0,0.0,0.0,0.0,0.0,0.0,0.0,0.0,0.0,0.0,0.0,0.0,0.0,0.0,0.0,0.0,0.0,0.0,0.0,0.0,0.0,0.0,0.0,0.0,0.0,0.0,0.0,0.0,0.0,0.0,0.0,0.0,0.0,0.0,0.0,0.0,0.0,0.0,0.0,0.0,0.0,0.0,0.0,0.0,0.0,0.0,0.0,0.0,0.0,0.0,0.0,0.0,0.0,0.0,0.0,0.0,0.0,0.0,0.0,0.0,0.0,0.0,0.0,0.0,0.0,0.0,0.0,0.0,0.0,0.0,0.0,0.0,0.0,0.0,0.0,0.0,0.0,0.0,0.0,0.0,0.0,0.0,0.0,0.0,0.0,0.0,0.0,0.0,0.0,0.0,0.0,0.0,0.0,0.0,0.0,0.0,0.0,0.0,0.0,0.0,0.0,0.0,0.0,0.0,0.0,0.0,0.0,0.0,0.0,0.0,-5.6877,-5.7369,-5.7686,-5.7448,-5.7863,-5.9238,0.0,0.0,0.0,0.0,0.0,0.0,0.0,0.0,0.0,0.0,0.0,0.0,0.0,0.0,0.0,0.0,0.0,0.0,0.0,0.0,0.0,0.0,0.0,0.0,0.0,0.0,0.0,0.0,0.0,0.0,0.0,0.0,0.0,0.0,0.0,0.0,0.0,0.0,0.0,0.0,0.0,0.0,0.0,0.0,0.0,0.0,0.0,0.0,0.0,0.0,0.0,0.0,0.0,0.0,0.0,0.0,0.0,0.0,0.0,0.0,0.0,0.0,0.0,0.0,0.0,0.0,0.0,0.0,0.0,0.0,0.0,0.0,0.0,0.0,0.0,0.0,0.0,0.0,0.0,0.0,0.0,0.0,0.0,0.0,0.0,0.0,0.0,0.0,0.0,0.0,0.0,0.0,0.0,0.0,0.0,0.0,0.0,0.0,0.0,0.0,0.0,0.0,0.0,0.0,0.0,0.0,0.0,0.0,-5.9294,-5.8177,-5.8148,-5.938,-5.8455,-5.8074,0.0,0.0,0.0,0.0,0.0,0.0,0.0,0.0,0.0,0.0,0.0,0.0,0.0,0.0,0.0,0.0,0.0,0.0,0.0,0.0,0.0,0.0,0.0,0.0,0.0,0.0,0.0,0.0,0.0,0.0,0.0,0.0,0.0,0.0,0.0,0.0,0.0,0.0,0.0,0.0,0.0,0.0,0.0,0.0,0.0,0.0,0.0,0.0,0.0,0.0,0.0,0.0,0.0,0.0,0.0,0.0,0.0,0.0,0.0,0.0,0.0,0.0,0.0,0.0,0.0,0.0,0.0,0.0,0.0,0.0,0.0,0.0,0.0,0.0,0.0,0.0,0.0,0.0,0.0,0.0,0.0,0.0,0.0,0.0,0.0,0.0,0.0,0.0,0.0,0.0,0.0,0.0,0.0,0.0,0.0,0.0,0.0,0.0,0.0,0.0,0.0,0.0,0.0,0.0,0.0,0.0,0.0,0.0,0.0,-5.6842,-5.7108,-5.8376,-6.0669,-5.8492,-5.7941,0.0,0.0,0.0,0.0,0.0,0.0,0.0,0.0,0.0,0.0,0.0,0.0,0.0,0.0,0.0,0.0,0.0,0.0,0.0,0.0,0.0,0.0,0.0,0.0,0.0,0.0,0.0,0.0,0.0,0.0,0.0,0.0,0.0,0.0,0.0,0.0,0.0,0.0,0.0,0.0,0.0,0.0,0.0,0.0,0.0,0.0,0.0,0.0,0.0,0.0,0.0,0.0,0.0,0.0,0.0,0.0,0.0,0.0,0.0,0.0,0.0,0.0,0.0,0.0,0.0,0.0,0.0,0.0,0.0,0.0,0.0,0.0,0.0,0.0,0.0,0.0,0.0,0.0,0.0,0.0,0.0,0.0,0.0,0.0,0.0,0.0,0.0,0.0,0.0,0.0,0.0,0.0,0.0,0.0,0.0,0.0,0.0,0.0,0.0,0.0,0.0,0.0,0.0,0.0,0.0,0.0,0.0,0.0,0.0,-5.6195,0.0,-5.8626,-6.0357,-5.8178,-5.742,0.0,0.0,0.0,0.0,0.0,0.0,0.0,0.0,0.0,0.0,0.0,0.0,0.0,0.0,0.0,0.0,0.0,0.0,0.0,0.0,0.0,0.0,0.0,0.0,0.0,0.0,0.0,0.0,0.0,0.0,0.0,0.0,0.0,0.0,0.0,0.0,0.0,0.0,0.0,0.0,0.0,0.0,0.0,0.0,0.0,0.0,0.0,0.0,0.0,0.0,0.0,0.0,0.0,0.0,0.0,0.0,0.0,0.0,0.0,0.0,0.0,0.0,0.0,0.0,0.0,0.0,0.0,0.0,0.0,0.0,0.0,0.0,0.0,0.0,0.0,0.0,0.0,0.0,0.0,0.0,0.0,0.0,0.0,0.0,0.0,0.0,0.0,0.0,0.0,0.0,0.0,0.0,0.0,0.0,0.0,0.0,0.0,0.0,0.0,0.0,0.0,0.0,0.0,0.0,0.0,0.0,0.0,0.0,-5.5987,-5.8263,-5.8932,-5.9074,-5.8542,-5.7617,-5.6437,0.0,0.0,0.0,0.0,0.0,0.0,0.0,0.0,0.0,0.0,0.0,0.0,0.0,0.0,0.0,0.0,0.0,0.0,0.0,0.0,0.0,0.0,0.0,0.0,0.0,0.0,0.0,0.0,0.0,0.0,0.0,0.0,0.0,0.0,0.0,0.0,0.0,0.0,0.0,0.0,0.0,0.0,0.0,0.0,0.0,0.0,0.0,0.0,0.0,0.0,0.0,0.0,0.0,0.0,0.0,0.0,0.0,0.0,0.0,0.0,0.0,0.0,0.0,0.0,0.0,0.0,0.0,0.0,0.0,0.0,0.0,0.0,0.0,0.0,0.0,0.0,0.0,0.0,0.0,0.0,0.0,0.0,0.0,0.0,0.0,0.0,0.0,0.0,0.0,0.0,0.0,0.0,0.0,0.0,0.0,0.0,0.0,0.0,0.0,0.0,0.0,0.0,0.0,0.0,0.0,0.0,0.0,0.0,0.0,-5.7898,-5.8824,-6.0632,-6.3136,-5.921,-5.8068,0.0,0.0,0.0,0.0,0.0,0.0,0.0,0.0,0.0,0.0,0.0,0.0,0.0,0.0,0.0,0.0,0.0,0.0,0.0,0.0,0.0,0.0,0.0,0.0,0.0,0.0,0.0,0.0,0.0,0.0,0.0,0.0,0.0,0.0,0.0,0.0,0.0,0.0,0.0,0.0,0.0,0.0,0.0,0.0,0.0,0.0,0.0,0.0,0.0,0.0,0.0,0.0,0.0,0.0,0.0,0.0,0.0,0.0,0.0,0.0,0.0,0.0,0.0,0.0,0.0,0.0,0.0,0.0,0.0,0.0,0.0,0.0,0.0,0.0,0.0,0.0,0.0,0.0,0.0,0.0,0.0,0.0,0.0,0.0,0.0,0.0,0.0,0.0,0.0,0.0,0.0,0.0,0.0,0.0,0.0,0.0,0.0,0.0,0.0,0.0,0.0,0.0,0.0,0.0,0.0,0.0,0.0,0.0,0.0,-6.0971,-6.1849,-6.3483,-6.5894,-6.2092,-6.0771,-6.209,0.0,0.0,0.0,0.0,0.0,0.0,0.0,0.0,0.0,0.0,0.0,0.0,0.0,0.0,0.0,0.0,0.0,0.0,0.0,0.0,0.0,0.0,0.0,0.0,0.0,0.0,0.0,0.0,0.0,0.0,0.0,0.0,0.0,0.0,0.0,0.0,0.0,0.0,0.0,0.0,0.0,0.0,0.0,0.0,0.0,0.0,0.0,0.0,0.0,0.0,0.0,0.0,0.0,0.0,0.0,0.0,0.0,0.0,0.0,0.0,0.0,0.0,0.0,0.0,0.0,0.0,0.0,0.0,0.0,0.0,0.0,0.0,0.0,0.0,0.0,0.0,0.0,0.0,0.0,0.0,0.0,0.0,0.0,0.0,0.0,0.0,0.0,0.0,0.0,0.0,0.0,0.0,0.0,0.0,0.0,0.0,0.0,0.0,0.0,0.0,0.0,0.0,0.0,0.0,0.0,0.0,0.0,0.0,-6.6795,-6.7614,-6.7822,-6.7352,-6.6234,-6.4356,0.0,0.0,0.0,0.0,0.0,0.0,0.0,0.0,0.0,0.0,0.0,0.0,0.0,0.0,0.0,0.0,0.0,0.0,0.0,0.0,0.0,0.0,0.0,0.0,0.0,0.0,0.0,0.0,0.0,0.0,0.0,0.0,0.0,0.0,0.0,0.0,0.0,0.0,0.0,0.0,0.0,0.0,0.0,0.0,0.0,0.0,0.0,0.0,0.0,0.0,0.0,0.0,0.0,0.0,0.0,0.0,0.0,0.0,0.0,0.0,0.0,0.0,0.0,0.0,0.0,0.0,0.0,0.0,0.0,0.0,0.0,0.0,0.0,0.0,0.0,0.0,0.0,0.0,0.0,0.0,0.0,0.0,0.0,0.0,0.0,0.0,0.0,0.0,0.0,0.0,0.0,0.0,0.0,0.0,0.0,0.0,0.0,0.0,0.0,0.0,0.0,0.0,0.0,0.0,0.0,0.0,0.0,0.0,0.0,-7.0697,-7.4643,-7.6536,-7.5986,-7.1812,-6.9269,0.0,0.0,0.0,0.0,0.0,0.0,0.0,0.0,0.0,0.0,0.0,0.0,0.0,0.0,0.0,0.0,0.0,0.0,0.0,0.0,0.0,0.0,0.0,0.0,0.0,0.0,0.0,0.0,0.0,0.0,0.0,0.0,0.0,0.0,0.0,0.0,0.0,0.0,0.0,0.0,0.0,0.0,0.0,0.0,0.0,0.0,0.0,0.0,0.0,0.0,0.0,0.0,0.0,0.0,0.0,0.0,0.0,0.0,0.0,0.0,0.0,0.0,0.0,0.0,0.0,0.0,0.0,0.0,0.0,0.0,0.0,0.0,0.0,0.0,0.0,0.0,0.0,0.0,0.0,0.0,0.0,0.0,0.0,0.0,0.0,0.0,0.0,0.0,0.0,0.0,0.0,0.0,0.0,0.0,0.0,0.0,0.0,0.0,0.0,0.0,0.0,0.0,0.0,0.0,0.0,0.0,0.0,0.0,-6.9817,-7.431,-7.9668,-8.2836,-8.3577,-7.8745,-7.5025,0.0,0.0,0.0,0.0,0.0,0.0,0.0,0.0,0.0,0.0,0.0,0.0,0.0,0.0,0.0,0.0,0.0,0.0,0.0,0.0,0.0,0.0,0.0,0.0,0.0,0.0,0.0,0.0,0.0,0.0,0.0,0.0,0.0,0.0,0.0,0.0,0.0,0.0,0.0,0.0,0.0,0.0,0.0,0.0,0.0,0.0,0.0,0.0,0.0,0.0,0.0,0.0,0.0,0.0,0.0,0.0,0.0,0.0,0.0,0.0,0.0,0.0,0.0,0.0,0.0,0.0,0.0,0.0,0.0,0.0,0.0,0.0,0.0,0.0,0.0,0.0,0.0,0.0,0.0,0.0,0.0,0.0,0.0,0.0,0.0,0.0,0.0,0.0,0.0,0.0,0.0,0.0,0.0,0.0,0.0,0.0,0.0,0.0,0.0,0.0,0.0,0.0,0.0,0.0,0.0,0.0,0.0,0.0,-7.2949,-7.7517,-8.3067,-8.7221,-8.9449,-8.5645,-8.0858,0.0,0.0,0.0,0.0,0.0,0.0,0.0,0.0,0.0,0.0,0.0,0.0,0.0,0.0,0.0,0.0,0.0,0.0,0.0,0.0,0.0,0.0,0.0,0.0,0.0,0.0,0.0,0.0,0.0,0.0,0.0,0.0,0.0,0.0,0.0,0.0,0.0,0.0,0.0,0.0,0.0,0.0,0.0,0.0,0.0,0.0,0.0,0.0,0.0,0.0,0.0,0.0,0.0,0.0,0.0,0.0,0.0,0.0,0.0,0.0,0.0,0.0,0.0,0.0,0.0,0.0,0.0,0.0,0.0,0.0,0.0,0.0,0.0,0.0,0.0,0.0,0.0,0.0,0.0,0.0,0.0,0.0,0.0,0.0,0.0,0.0,0.0,0.0,0.0,0.0,0.0,0.0,0.0,0.0,0.0,0.0,0.0,0.0,0.0,0.0,0.0,0.0,0.0,0.0,0.0,0.0,0.0,0.0,-7.4932,-7.9791,-8.4356,-8.8474,-9.1954,-8.7483,-8.3425,0.0,0.0,0.0,0.0,0.0,0.0,0.0,0.0,0.0,0.0,0.0,0.0,0.0,0.0,0.0,0.0,0.0,0.0,0.0,0.0,0.0,0.0,0.0,0.0,0.0,0.0,0.0,0.0,0.0,0.0,0.0,0.0,0.0,0.0,0.0,0.0,0.0,0.0,0.0,0.0,0.0,0.0,0.0,0.0,0.0,0.0,0.0,0.0,-6.5303,0.0,0.0,0.0,0.0,0.0,0.0,0.0,0.0,0.0,0.0,0.0,0.0,0.0,0.0,0.0,0.0,0.0,0.0,0.0,0.0,0.0,0.0,0.0,0.0,0.0,0.0,0.0,0.0,0.0,0.0,0.0,0.0,0.0,0.0,0.0,0.0,0.0,0.0,0.0,0.0,0.0,0.0,0.0,0.0,0.0,0.0,0.0,0.0,0.0,0.0,0.0,0.0,0.0,0.0,0.0,0.0,0.0,0.0,0.0,-7.7498,-8.226,-8.6123,-8.9623,-9.2511,-8.9325,-8.6143,0.0,0.0,0.0,0.0,0.0,0.0,0.0,0.0,0.0,0.0,0.0,0.0,0.0,0.0,0.0,0.0,0.0,0.0,0.0,0.0,0.0,0.0,0.0,0.0,0.0,0.0,0.0,0.0,0.0,0.0,0.0,0.0,0.0,0.0,0.0,0.0,0.0,0.0,0.0,0.0,0.0,0.0,0.0,0.0,0.0,0.0,0.0,0.0,0.0,0.0,0.0,0.0,0.0,0.0,0.0,0.0,0.0,0.0,0.0,0.0,0.0,0.0,0.0,0.0,0.0,0.0,0.0,0.0,0.0,0.0,0.0,0.0,0.0,0.0,0.0,0.0,0.0,0.0,0.0,0.0,0.0,0.0,0.0,0.0,0.0,0.0,0.0,0.0,0.0,0.0,0.0,0.0,0.0,0.0,0.0,0.0,0.0,0.0,0.0,0.0,0.0,0.0,0.0,0.0,0.0,0.0,0.0,-7.4291,-7.9557,-8.4648,-8.7693,-9.0458,-9.2685,-9.1023,-8.8708,-8.5866,0.0,0.0,0.0,0.0,0.0,0.0,0.0,0.0,0.0,0.0,0.0,0.0,0.0,0.0,0.0,0.0,0.0,0.0,0.0,0.0,0.0,0.0,0.0,0.0,0.0,0.0,0.0,0.0,0.0,0.0,0.0,0.0,0.0,0.0,0.0,0.0,0.0,0.0,-6.0848,-6.518,0.0,0.0,0.0,0.0,0.0,0.0,0.0,0.0,-6.8511,0.0,0.0,0.0,0.0,0.0,0.0,0.0,0.0,0.0,0.0,0.0,0.0,0.0,0.0,0.0,0.0,0.0,0.0,0.0,0.0,0.0,0.0,0.0,0.0,0.0,0.0,0.0,0.0,0.0,0.0,0.0,0.0,0.0,0.0,0.0,0.0,0.0,0.0,0.0,0.0,0.0,0.0,0.0,0.0,0.0,0.0,0.0,0.0,0.0,0.0,0.0,0.0,0.0,0.0,0.0,0.0,-7.1938,-7.4639,-7.9293,-8.6158,-8.8216,-9.0458,-9.2685,-9.2061,-9.0192,-8.7154,0.0,0.0,0.0,0.0,0.0,0.0,0.0,0.0,0.0,0.0,0.0,0.0,0.0,0.0,0.0,0.0,0.0,0.0,0.0,0.0,0.0,0.0,0.0,0.0,0.0,0.0,0.0,0.0,0.0,0.0,0.0,0.0,0.0,0.0,0.0,0.0,0.0,0.0,0.0,-7.0588,-7.2905,0.0,0.0,0.0,0.0,0.0,0.0,0.0,0.0,-6.9627,0.0,0.0,0.0,0.0,0.0,0.0,0.0,0.0,0.0,0.0,0.0,0.0,0.0,0.0,0.0,0.0,0.0,0.0,0.0,0.0,0.0,0.0,0.0,0.0,0.0,0.0,0.0,0.0,0.0,0.0,0.0,0.0,0.0,0.0,0.0,0.0,0.0,0.0,0.0,0.0,0.0,0.0,0.0,0.0,0.0,0.0,0.0,0.0,0.0,0.0,0.0,0.0,0.0,0.0,0.0,-7.1563,-7.6226,-8.1359,-8.7106,-8.9081,-9.0841,-9.2685,-9.0746,-8.8915,0.0,0.0,0.0,0.0,0.0,0.0,0.0,0.0,0.0,0.0,0.0,0.0,0.0,0.0,0.0,0.0,0.0,0.0,0.0,0.0,0.0,0.0,0.0,0.0,0.0,0.0,0.0,0.0,0.0,0.0,0.0,0.0,0.0,0.0,0.0,0.0,0.0,0.0,0.0,0.0,-7.2478,-7.522,-7.7067,0.0,0.0,0.0,0.0,0.0,0.0,-7.318,-7.2386,0.0,0.0,0.0,0.0,0.0,0.0,0.0,0.0,0.0,0.0,0.0,0.0,0.0,0.0,0.0,0.0,0.0,0.0,0.0,0.0,0.0,0.0,0.0,0.0,0.0,0.0,0.0,0.0,0.0,0.0,0.0,0.0,0.0,0.0,0.0,0.0,0.0,0.0,0.0,0.0,0.0,0.0,0.0,0.0,0.0,0.0,0.0,0.0,0.0,0.0,0.0,0.0,0.0,0.0,0.0,-7.0761,-7.7072,-8.2803,-8.7667,-8.964,-9.1224,-9.272,-9.0054,-8.8226,0.0,0.0,0.0,0.0,0.0,0.0,0.0,0.0,0.0,0.0,0.0,0.0,0.0,0.0,0.0,0.0,0.0,0.0,0.0,0.0,0.0,0.0,0.0,0.0,0.0,0.0,0.0,0.0,0.0,0.0,0.0,0.0,0.0,0.0,0.0,0.0,0.0,0.0,0.0,0.0,0.0,-7.7388,-7.8953,-7.9878,0.0,0.0,0.0,0.0,-7.838,-7.8025,0.0,0.0,0.0,0.0,0.0,0.0,0.0,0.0,0.0,0.0,0.0,0.0,0.0,0.0,0.0,0.0,0.0,0.0,0.0,0.0,0.0,0.0,0.0,0.0,0.0,0.0,0.0,0.0,0.0,0.0,0.0,0.0,0.0,0.0,0.0,0.0,0.0,0.0,0.0,0.0,0.0,0.0,0.0,0.0,0.0,0.0,0.0,0.0,0.0,0.0,0.0,0.0,0.0,0.0,0.0,0.0,-7.0802,-7.5147,-8.0739,-8.7527,-8.964,-9.1258,-9.2755,-9.258,-9.0881,0.0,0.0,0.0,0.0,0.0,0.0,0.0,0.0,0.0,0.0,0.0,0.0,0.0,0.0,0.0,0.0,0.0,0.0,0.0,0.0,0.0,0.0,0.0,0.0,0.0,0.0,0.0,0.0,0.0,0.0,0.0,0.0,0.0,0.0,0.0,0.0,0.0,0.0,0.0,0.0,0.0,-8.0161,-8.1577,-8.2469,-8.2897,0.0,0.0,-8.3287,-8.4756,-8.6619,0.0,0.0,0.0,0.0,0.0,0.0,0.0,0.0,0.0,0.0,0.0,0.0,0.0,0.0,0.0,0.0,0.0,0.0,0.0,0.0,0.0,0.0,0.0,0.0,0.0,0.0,0.0,0.0,0.0,0.0,0.0,0.0,0.0,0.0,0.0,0.0,0.0,0.0,0.0,0.0,0.0,0.0,0.0,0.0,0.0,0.0,0.0,0.0,0.0,0.0,0.0,0.0,0.0,0.0,0.0,-6.5105,-7.0452,-7.5584,-8.1352,-8.7783,-8.9186,-9.0806,-9.2755,-9.0919,-8.9088,0.0,0.0,0.0,0.0,0.0,0.0,0.0,0.0,0.0,0.0,0.0,0.0,0.0,0.0,0.0,0.0,0.0,0.0,0.0,0.0,0.0,0.0,0.0,0.0,0.0,0.0,0.0,0.0,0.0,0.0,0.0,0.0,0.0,0.0,0.0,0.0,0.0,0.0,0.0,0.0,0.0,0.0,-8.3218,-8.5395,0.0,0.0,0.0,-8.8134,-8.9672,0.0,0.0,0.0,0.0,0.0,0.0,0.0,0.0,0.0,0.0,0.0,0.0,0.0,0.0,0.0,0.0,0.0,0.0,0.0,0.0,0.0,0.0,0.0,0.0,0.0,0.0,0.0,0.0,0.0,0.0,0.0,0.0,0.0,0.0,0.0,0.0,0.0,0.0,0.0,0.0,0.0,0.0,0.0,0.0,0.0,0.0,0.0,0.0,0.0,0.0,0.0,0.0,0.0,0.0,0.0,0.0,0.0,-7.0381,-7.6186,-8.2107,-8.8002,-8.9353,-9.091,-9.2964,-9.0227,0.0,0.0,0.0,0.0,0.0,0.0,0.0,0.0,0.0,0.0,0.0,0.0,0.0,0.0,0.0,0.0,0.0,0.0,0.0,0.0,0.0,0.0,0.0,0.0,0.0,0.0,0.0,-6.034,0.0,0.0,0.0,0.0,0.0,0.0,0.0,0.0,0.0,0.0,0.0,0.0,0.0,0.0,-8.1184,-8.4681,-8.8036,-9.0676,0.0,0.0,-9.3032,-9.4352,-9.5158,-9.3998,0.0,0.0,0.0,0.0,0.0,0.0,0.0,0.0,0.0,0.0,0.0,0.0,0.0,0.0,0.0,0.0,0.0,0.0,0.0,0.0,0.0,0.0,0.0,0.0,0.0,0.0,0.0,0.0,0.0,0.0,0.0,0.0,0.0,0.0,0.0,0.0,0.0,0.0,0.0,0.0,0.0,0.0,0.0,0.0,0.0,0.0,0.0,0.0,0.0,0.0,0.0,0.0,0.0,0.0,0.0,-7.1162,-7.6512,-8.2107,-8.8037,-9.0367,-9.2268,-9.3799,-9.2813,-9.0937,0.0,0.0,0.0,0.0,0.0,0.0,0.0,0.0,0.0,0.0,0.0,0.0,0.0,0.0,0.0,0.0,0.0,0.0,0.0,0.0,0.0,0.0,0.0,0.0,0.0,0.0,0.0,0.0,0.0,0.0,0.0,0.0,0.0,0.0,0.0,0.0,0.0,0.0,0.0,0.0,0.0,-8.1699,-8.6109,-9.007,-9.3603,0.0,0.0,-9.842,-9.9312,-10.3023,-10.2909,-9.416,0.0,0.0,0.0,0.0,0.0,0.0,0.0,0.0,0.0,0.0,0.0,0.0,0.0,0.0,0.0,0.0,0.0,0.0,0.0,0.0,0.0,0.0,0.0,0.0,0.0,0.0,0.0,0.0,0.0,0.0,0.0,0.0,0.0,0.0,0.0,0.0,0.0,0.0,0.0,0.0,0.0,0.0,0.0,0.0,0.0,0.0,0.0,0.0,0.0,0.0,0.0,0.0,0.0,-6.6125,-7.1481,-7.6701,-8.2359,-8.8149,-8.9914,-9.17,-9.3869,-9.2961,-9.1433,0.0,0.0,0.0,0.0,0.0,0.0,0.0,0.0,0.0,0.0,0.0,0.0,0.0,0.0,0.0,0.0,0.0,0.0,0.0,0.0,0.0,0.0,0.0,0.0,0.0,0.0,0.0,0.0,-6.1936,-6.1761,-6.153,0.0,0.0,0.0,0.0,0.0,0.0,0.0,0.0,0.0,0.0,-8.3977,-8.907,-9.3174,0.0,0.0,-10.0347,-10.1453,-10.3202,-10.2952,-10.0882,-9.5872,-9.1817,0.0,0.0,0.0,0.0,0.0,0.0,0.0,0.0,0.0,0.0,0.0,0.0,0.0,0.0,0.0,0.0,0.0,0.0,0.0,0.0,0.0,0.0,0.0,0.0,0.0,0.0,0.0,0.0,0.0,0.0,0.0,0.0,0.0,0.0,0.0,0.0,0.0,0.0,0.0,0.0,0.0,0.0,0.0,0.0,0.0,0.0,0.0,0.0,0.0,0.0,0.0,0.0,-6.6482,-7.1907,-7.7098,-8.2536,-8.8255,-8.9658,-9.1451,-9.3799,-9.3311,-9.1916,0.0,0.0,0.0,0.0,0.0,0.0,0.0,0.0,0.0,0.0,0.0,0.0,0.0,0.0,0.0,0.0,0.0,0.0,0.0,0.0,0.0,0.0,0.0,0.0,0.0,0.0,0.0,0.0,-6.2991,-6.2673,-6.1917,0.0,0.0,0.0,0.0,0.0,0.0,0.0,0.0,0.0,0.0,-8.6012,-9.1764,-9.5543,-9.8752,-10.1568,-10.2067,-10.2845,-10.4736,-10.2916,-10.0097,-9.6564,0.0,0.0,0.0,0.0,0.0,0.0,0.0,0.0,0.0,0.0,0.0,0.0,0.0,0.0,0.0,0.0,0.0,0.0,0.0,0.0,0.0,0.0,0.0,0.0,0.0,0.0,0.0,0.0,0.0,0.0,0.0,0.0,0.0,0.0,0.0,0.0,0.0,0.0,0.0,0.0,0.0,0.0,0.0,0.0,0.0,0.0,0.0,0.0,0.0,0.0,0.0,0.0,0.0,-6.7171,-7.2405,-7.7646,-8.2849,-8.8072,-8.9994,-9.1875,-9.3834,-9.4103,-9.3216,-9.1091,0.0,0.0,0.0,0.0,0.0,0.0,0.0,0.0,0.0,0.0,0.0,0.0,0.0,0.0,0.0,0.0,0.0,0.0,0.0,0.0,0.0,0.0,0.0,0.0,0.0,0.0,-6.4495,-6.4671,-6.4142,0.0,0.0,0.0,0.0,0.0,0.0,0.0,0.0,0.0,0.0,-8.2146,-8.7427,-9.3782,-9.679,-9.974,-10.3508,-10.3036,-10.2524,-10.3452,-10.4023,-10.2417,0.0,0.0,0.0,0.0,0.0,0.0,0.0,0.0,0.0,0.0,0.0,0.0,0.0,0.0,0.0,0.0,0.0,0.0,0.0,0.0,0.0,0.0,0.0,0.0,0.0,0.0,0.0,0.0,-6.2189,0.0,0.0,0.0,0.0,0.0,0.0,0.0,0.0,0.0,0.0,0.0,-6.9458,-7.1367,0.0,0.0,0.0,0.0,0.0,0.0,0.0,0.0,0.0,0.0,0.0,0.0,-6.7685,-7.3039,-7.7886,-8.2885,-8.8037,-8.9788,-9.1684,-9.3834,-9.4458,-9.3511,-9.0692,0.0,0.0,0.0,0.0,0.0,0.0,0.0,0.0,0.0,0.0,0.0,0.0,0.0,0.0,0.0,0.0,0.0,0.0,0.0,0.0,0.0,0.0,0.0,0.0,0.0,-6.4702,0.0,0.0,0.0,0.0,0.0,0.0,0.0,0.0,0.0,0.0,0.0,-7.608,-8.1367,-8.6913,-9.2047,-9.6286,-9.9299,-10.1882,0.0,0.0,0.0,0.0,0.0,0.0,0.0,0.0,0.0,0.0,0.0,0.0,0.0,0.0,-9.3848,-8.4497,-8.0905,-7.959,-8.0539,0.0,0.0,0.0,0.0,0.0,0.0,0.0,0.0,0.0,0.0,0.0,0.0,0.0,0.0,0.0,0.0,-6.698,0.0,0.0,0.0,0.0,0.0,0.0,0.0,0.0,-7.1408,-7.3843,-7.4911,-7.7374,-7.7835,0.0,-7.746,-7.3905,0.0,0.0,0.0,0.0,0.0,0.0,0.0,0.0,-6.9848,-7.4476,-7.9352,-8.4034,-8.8333,-9.021,-9.2063,-9.3834,-9.4764,-9.4089,-9.1549,-8.7994,-8.4551,0.0,0.0,0.0,0.0,0.0,0.0,0.0,0.0,0.0,0.0,0.0,0.0,0.0,0.0,0.0,0.0,0.0,0.0,0.0,0.0,0.0,0.0,0.0,-6.7024,0.0,0.0,0.0,0.0,0.0,0.0,0.0,0.0,0.0,-7.3546,-7.6755,-8.1105,-8.67,-9.1058,-9.5011,-9.843,0.0,0.0,0.0,0.0,0.0,0.0,0.0,-10.231,-10.2203,-10.0989,-9.9883,-9.9598,-10.2345,-10.413,-10.256,0.0,0.0,-9.3132,-8.961,-8.8644,-8.9935,-8.9238,-8.9055,-9.1107,-9.1839,-9.2828,0.0,0.0,0.0,0.0,0.0,0.0,0.0,0.0,-6.9189,-7.0916,0.0,-7.2015,0.0,0.0,0.0,0.0,0.0,0.0,0.0,0.0,-7.8291,-8.102,-8.0983,-8.3586,-8.3873,-8.2275,-8.5446,-8.3868,-7.7656,-7.0416,0.0,0.0,0.0,0.0,0.0,0.0,-7.3575,-7.663,-8.1958,-8.6129,-8.9037,-9.1284,-9.2915,-9.4008,-9.4997,-9.4944,-9.3543,-9.2802,-9.0573,-8.6486,-8.4687,0.0,0.0,0.0,0.0,0.0,0.0,0.0,0.0,0.0,0.0,0.0,0.0,0.0,0.0,0.0,0.0,0.0,0.0,0.0,0.0,-6.9248,0.0,0.0,0.0,0.0,0.0,0.0,0.0,0.0,0.0,0.0,-7.9575,-8.1977,-8.6179,-9.3255,0.0,0.0,0.0,0.0,-10.2313,-10.465,-10.5392,-10.5807,-10.5878,-10.6449,-10.5878,-10.3023,0.0,0.0,-10.413,-10.6877,-10.8519,-10.5557,-10.766,-10.8968,-10.6233,-10.1826,-9.9433,-10.0735,-9.9257,-9.857,-10.0239,-10.1641,-10.3182,-8.5477,0.0,0.0,0.0,0.0,-7.5236,-7.7246,-8.0405,-7.9499,-7.9398,-8.0035,-7.8818,0.0,0.0,0.0,0.0,0.0,0.0,-7.5034,-7.7575,-8.1318,-8.388,-8.527,-8.7641,-8.8323,-8.7663,-8.9457,-8.8499,-8.5103,-8.1833,-7.6513,-6.952,0.0,0.0,0.0,0.0,-7.6566,-7.9112,-8.3389,-8.7151,-9.029,-9.1316,-9.2997,-9.5184,-9.5949,-9.6208,-9.5764,-9.5179,-9.3503,-9.0742,-8.7693,0.0,0.0,0.0,0.0,0.0,0.0,0.0,0.0,0.0,0.0,0.0,0.0,0.0,0.0,0.0,0.0,0.0,0.0,0.0,-7.2084,-7.109,-7.1621,0.0,0.0,0.0,0.0,0.0,0.0,0.0,0.0,0.0,-8.9976,-9.109,-9.3138,0.0,0.0,-10.2422,-10.4366,-10.4225,-10.4614,-10.6601,-10.6991,0.0,-10.8162,-10.7984,-10.7841,-10.8019,-10.9768,-11.0944,-11.0655,-11.2008,-11.2861,-11.1901,-11.3044,-11.3907,-11.3414,-10.9287,-10.6393,-10.7271,-10.681,-10.6816,-10.875,-10.9522,-11.017,-9.5278,-8.9126,-8.4776,-8.2898,-8.2837,-8.2811,-8.4564,-8.725,-8.6644,-8.6865,-8.7583,-8.6125,-8.3428,-7.983,-7.7387,0.0,0.0,0.0,-8.0386,-8.2933,-8.5531,-8.7706,-8.9191,-9.1048,-9.1623,-9.1166,-9.2688,-9.2419,-9.0388,-9.0151,-8.6506,-7.9555,0.0,0.0,-7.6712,-7.9297,-8.1678,-8.3752,-8.6602,-8.924,-9.1565,-9.2442,-9.3833,-9.5735,-9.6509,-9.6871,-9.672,-9.7133,-9.6466,-9.4687,-9.2522,-8.914,0.0,0.0,0.0,0.0,0.0,0.0,0.0,0.0,0.0,0.0,0.0,-6.5443,-6.4001,0.0,0.0,0.0,-6.9636,-7.3006,-7.6574,-7.6138,0.0,0.0,0.0,0.0,0.0,0.0,0.0,-8.6524,-8.9675,-9.3236,-9.7529,-9.8902,-9.9956,-10.1399,-10.3442,-10.5098,-10.6093,0.0,-10.6386,-10.77,-10.8662,-10.9411,-11.0125,-11.0053,-11.0375,-11.1624,-11.2623,-11.3658,-11.4504,-11.521,-11.5929,-11.6321,-11.6926,-11.7575,-11.7918,-11.5386,-11.3342,-11.3831,-11.4108,-11.4669,-11.5791,-11.5864,-11.6158,-10.3592,-10.1495,-9.3689,-8.9913,-8.9132,-9.0036,-9.0623,-9.1055,-9.1379,-9.2976,-9.5418,-9.3215,-9.15,-8.999,-8.4892,0.0,0.0,-8.5042,-8.6835,-8.8424,-9.0503,-9.1888,-9.272,-9.3853,-9.398,-9.3106,-9.553,-9.584,-9.4344,-9.5797,-9.5143,-9.207,-8.6474,-8.4342,-8.5698,-8.6731,-8.8008,-8.9527,-9.102,-9.2304,-9.3069,-9.4317,-9.5284,-9.6012,-9.6873,-9.7172,-9.6891,-9.858,-9.9186,-9.8138,-9.8037,-9.577,-9.0932,0.0,0.0,0.0,0.0,0.0,0.0,0.0,0.0,0.0,0.0,0.0,0.0,0.0,0.0,0.0,-7.418,0.0,-8.0149,-8.2933,0.0,0.0,0.0,-8.5811,-8.4623,-8.7843,-9.1176,-9.364,0.0,0.0,-10.2803,-10.5152,-10.6064,-10.466,-10.5152,-10.5924,-10.6661,-10.7293,-10.7765,-10.8867,-11.0406,-11.1624,-11.1766,-11.2373,-11.3051,-11.3765,-11.4122,-11.4693,-11.5864,-11.6898,-11.7797,-11.8404,-11.9296,-11.9983,-12.0019,-12.0304,-12.0825,-11.9978,-12.0433,-12.1129,-12.0852,-12.0728,-12.0728,-10.6693,-10.5077,-10.2483,-9.9565,-9.6632,-9.6893,-9.7174,-9.7517,-9.695,-9.7503,-9.8549,-9.7102,-9.5349,-9.3157,-9.0452,-8.9461,-9.0116,-9.0845,-9.1815,-9.2782,-9.3887,-9.4509,-9.4716,-9.5537,-9.5882,-9.5702,-9.7434,-9.8055,-9.7631,-9.8098,-9.8049,-9.7378,-9.5545,-9.244,-8.8289,-9.0481,-9.1611,-9.148,-9.321,-9.4641,-9.5655,-9.6699,-9.7287,-9.7236,-9.7792,-9.7926,-9.7609,-9.8852,-9.9424,-9.8848,-9.8307,-9.6954,-9.4552,-9.0132,0.0,0.0,0.0,0.0,0.0,0.0,0.0,0.0,0.0,-7.2079,-6.9069,0.0,-7.5691,0.0,-7.8491,-8.1105,-8.411,-8.4538,0.0,0.0,-9.1033,-9.2175,-9.478,-9.6457,-9.8157,-10.0048,-10.2066,-10.3835,-10.5257,-10.7539,-10.8873,-10.8487,-10.9315,-11.032,-11.1255,-11.0674,-11.0684,-11.1892,-11.1904,-11.2052,-11.3194,-11.405,-11.4585,-11.48,-11.5335,-11.5757,-11.5886,-11.7131,-11.8244,-11.8919,-12.0106,-12.1123,-12.1942,-12.3138,-12.3756,-12.3319,-12.269,-12.2334,-12.2808,-12.2771,-12.271,-10.8896,-10.7574,-10.6696,-10.4909,-10.2592,-10.1788,-10.1486,-10.1411,-10.1148,-10.1052,-10.1119,-10.063,-9.9345,-9.7713,-9.6345,-9.5892,-9.5892,-9.5355,-9.5399,-9.5811,-9.588,-9.5949,-9.5949,-9.6361,-9.6681,-9.6829,-9.7999,-9.8837,-9.9297,-9.9362,-9.9675,-10.0173,-9.9845,-9.7763,-9.4107,-9.5122,-9.5969,-9.6242,-9.6611,-9.7231,-9.7758,-9.8203,-9.8272,-9.8193,-9.8227,-9.7892,-9.6891,-9.7933,-9.8337,-9.7664,-9.7867,-9.7191,-9.5398,-9.2673,-8.9814,0.0,0.0,0.0,0.0,0.0,0.0,0.0,0.0,0.0,0.0,0.0,-7.8709,-8.179,-8.3982,-8.6858,-9.0641,-9.1533,-9.3317,-9.6743,-9.7956,-9.9312,-10.1132,-10.2345,-10.3713,-10.5607,-10.6245,-10.698,-10.8365,-10.9621,-11.0453,-11.0804,-11.2024,-11.2858,-11.2809,-11.2509,-11.2808,-11.3852,-11.3507,-11.3444,-11.4407,-11.4835,-11.5263,-11.5585,-11.6013,-11.6399,-11.6997,-11.8137,-11.918,-12.0035,-12.1116,-12.2134,-12.2808,-12.368,-12.4371,-12.4264,-12.3716,-12.3693,-12.4226,-12.4226,-12.4263,-11.0858,-10.94,-10.8381,-10.7627,-10.7072,-10.5281,-10.4334,-10.3853,-10.4168,-10.4148,-10.3754,-10.3833,-10.3376,-10.2378,-10.1836,-10.1108,-10.0289,-9.8924,-9.836,-9.8224,-9.7609,-9.7301,-9.7301,-9.7301,-9.7419,-9.7803,-9.8455,-9.9224,-10.0194,-10.0181,-10.0668,-10.1298,-10.1312,-10.1167,-10.0574,-9.9717,-10.0016,-10.121,-10.031,-9.9709,-9.9828,-9.9444,-9.9216,-9.9113,-9.8606,-9.7433,-9.5866,-9.6674,-9.6877,-9.6041,-9.7258,-9.7157,-9.5263,-9.5179,-9.3372,0.0,-8.7398,0.0,0.0,0.0,0.0,0.0,0.0,0.0,0.0,-7.9587,-8.2371,-8.7258,-9.0196,-9.3476,-9.7611,-10.0035,-10.1533,-10.1996,-10.4492,-10.606,-10.5775,-10.6916,-10.845,-11.0365,-10.9718,-10.9736,-11.1342,-11.1567,-11.1717,-11.2503,-11.3938,-11.448,-11.3575,-11.388,-11.4511,-11.4811,-11.5038,-11.5156,-11.5263,-11.5406,-11.5727,-11.6334,-11.6512,-11.6976,-11.8368,-11.926,-12.0162,-12.1259,-12.2127,-12.278,-12.3117,-12.3569,-12.3827,-12.4083,-12.4227,-12.451,-12.5067,-12.5133,-12.5382,-11.2223,-11.1346,-11.0178,-10.9413,-10.8945,-10.7822,-10.647,-10.5376,-10.552,-10.6071,-10.6938,-10.6153,-10.582,-10.5815,-10.4211,-10.3175,-10.2393,-10.179,-10.1162,-10.0547,-10.041,-10.0342,-10.0342,-10.0342,-10.0463,-10.0858,-10.0961,-10.1252,-10.1746,-10.1767,-10.1968,-10.2118,-10.214,-10.2495,-10.2874,0.0,0.0,0.0,-10.1473,-10.1551,-10.2162,-10.1782,-10.144,-10.1149,-9.9042,0.0,-9.6231,-9.6317,-9.6571,-9.6683,-9.7529,0.0,0.0,0.0,0.0,0.0,0.0,0.0,0.0,0.0,0.0,0.0,-8.654,-8.4833,-8.3956,-8.8768,-9.2,-9.2047,-9.5861,-9.898,-10.0468,-10.2169,-10.4189,-10.667,-10.8052,-10.9434,-11.11,-11.1631,-11.2403,-11.3799,-11.3222,-11.2788,-11.289,-11.3367,-11.3874,-11.4255,-11.5291,-11.5954,-11.6143,-11.5762,-11.5514,-11.5593,-11.5893,-11.6084,-11.6084,-11.662,-11.6869,-11.7262,-11.7262,-11.7619,-11.8511,-11.9332,-12.0313,-12.156,-12.2655,-12.3421,-12.3755,-12.4228,-12.455,-12.4407,-12.4656,-12.4866,-12.5007,-12.497,-12.5074,-11.283,0.0,-11.0516,-10.9903,0.0,-10.8333,-10.7668,-10.7412,-10.6867,-10.6867,-10.7379,-10.7072,-10.6956,-10.7102,-10.5751,-10.4934,-10.4285,-10.3329,-10.2743,-10.2369,-10.1995,-10.1655,-10.1281,-10.1281,-10.1201,-10.1196,-10.1318,-10.1767,-10.2472,-10.2144,-10.2276,-10.2904,-10.2437,-10.2631,-10.3551,-10.3246,-10.28,-10.2183,-10.231,-10.2563,-10.287,-10.2528,-10.2153,-10.1988,0.0,0.0,0.0,0.0,0.0,0.0,0.0,0.0,0.0,0.0,0.0,-9.6383,-9.5104,-9.455,-9.5005,-9.3663,-9.3537,-9.4859,-9.512,-9.3618,-8.9844,-9.3757,-9.674,-9.7718,-10.0618,-10.3235,-10.5144,-10.6701,-10.8434,-11.0456,-11.1376,-11.2509,-11.3855,-11.4173,-11.4693,-11.5812,-11.5128,-11.4325,-11.4628,-11.4507,-11.4542,-11.4698,-11.5573,-11.6568,-11.7089,-11.6792,-11.6517,-11.714,-11.6969,-11.7048,-11.7333,-11.7012,-11.7119,-11.7333,-11.7155,-11.7583,-11.8975,-11.9546,-12.0269,-12.184,-12.283,-12.3421,-12.3865,-12.4407,-12.483,-12.4793,-12.4897,-12.5038,-12.5038,-12.5074,-12.5111,-11.3124,-11.2503,-11.0857,-11.019,-11.0148,-10.869,-10.8312,-10.9001,0.0,0.0,0.0,-10.7535,-10.7741,-10.7838,-10.7064,-10.6426,-10.5919,-10.4735,-10.4024,-10.3754,-10.3179,-10.257,-10.1961,-10.1961,-10.175,-10.1519,-10.1756,-10.2242,-10.3158,-10.2437,-10.257,-10.3519,-10.2665,-10.2624,-10.3517,-10.3585,-10.3314,-10.2739,-10.2963,-10.3125,-10.3354,-10.2767,-10.2541,-10.2404,-9.9976,-9.793,-9.6571,-9.5145,-9.4079,-9.347,-9.4146,-9.4823,-9.5466,-9.664,-9.8189,-10.0069,-10.0393,-10.0849,-10.1608,-10.1194,-10.0828,-10.0803,-10.2509,-10.1349,-9.6086,-9.7669,-10.0202,-10.3234,-10.4858,-10.705,-10.9877,-11.1255,-11.2491,-11.3516,-11.4117,-11.4717,-11.56,-11.5742,-11.6272,-11.7261,-11.6208,-11.5488,-11.6227,-11.5315,-11.4772,-11.5175,-11.6031,-11.7005,-11.7727,-11.7751,-11.7923,-11.8502,-11.8332,-11.8154,-11.8511,-11.809,-11.7262,-11.7904,-11.7476,-11.784,-11.9367,-12.0045,-12.0733,-12.2182,-12.2737,-12.3195,-12.3865,-12.437,-12.4897,-12.5308,-12.5373,-12.5373,-12.541,-12.5556,-12.5565,-11.371,-11.334,-11.2692,-11.1709,-11.0543,-11.0081,-10.9418,-10.8623,-10.9036,-10.9264,-10.9131,-10.8645,-10.8744,-10.9353,-10.8612,-10.7673,-10.6764,-10.6528,-10.575,0.0,-10.4396,-10.4329,-10.4227,-10.4227,-10.4291,-10.451,-10.4315,-10.4294,-10.4578,-10.3803,-10.3622,-10.4213,-10.3702,-10.3382,-10.3585,-10.3585,-10.3551,-10.3449,-10.3449,-10.398,-10.485,-10.3912,-10.32,-10.2743,-10.0385,-9.8668,-9.7732,-9.7461,-9.7326,-9.7258,-9.7901,-9.8375,-9.8476,-9.9193,-10.0034,-10.0957,-10.2146,-10.316,-10.3988,-10.4505,-10.5265,-10.6454,-10.7408,-10.6355,-10.2603,-10.3729,-10.5444,-10.7193,-10.8711,-11.0581,-11.2539,-11.296,-11.3909,-11.5702,-11.5702,-11.5948,-11.7213,-11.7389,-11.7494,-11.7846,-11.7108,-11.6826,-11.7354,-11.6316,-11.6088,-11.7319,-11.7371,-11.7579,-11.8816,-11.9312,-11.9394,-11.9617,-11.9581,-11.9546,-11.9581,-11.9777,-11.9384,-11.9474,-11.9491,-11.9677,-12.0626,-12.0876,-12.1197,-12.2126,-12.2621,-12.3045,-12.3829,-12.437,-12.5104,-12.571,-12.6004,-12.6101,-12.5907,-12.6385,-12.6518,-11.2885,-11.2676,-11.2465,-11.1935,-11.1575,-11.1076,-11.0162,-10.9202,-10.9464,-10.9169,-10.8689,-10.8541,-10.8472,-10.8333,-10.8467,-10.8158,-10.7569,-10.7981,-10.7779,-10.7103,-10.6697,-10.6257,-10.5851,-10.5479,-10.5205,-10.493,-10.5108,-10.5193,-10.5159,-10.4852,-10.4759,-10.4972,-10.4828,-10.4599,-10.4193,-10.4193,-10.4396,-10.4769,-10.399,-10.4087,-10.4896,-10.4087,-10.3545,-10.3302,-10.1005,-9.9762,-9.9829,-9.9051,-9.8781,-9.9187,-9.9525,-9.9897,-10.0303,-10.1337,-10.2631,-10.4168,-10.5617,-10.7092,-10.8678,-10.9598,-11.0404,-11.1002,-11.1251,-11.0853,-10.9618,-10.8392,-10.8287,-10.9634,-11.0471,-11.1483,-11.3265,-11.4263,-11.5192,-11.5787,-11.6052,-11.6703,-11.765,-11.7896,-11.8212,-11.8914,-11.8493,-11.8177,-11.8493,-11.7545,-11.7019,-11.804,-11.82,-11.8973,-12.0049,-12.0595,-12.0666,-12.0545,-12.0233,-12.0277,-12.0563,-12.0035,-11.9898,-12.0221,-11.9934,-12.0185,-12.1152,-12.1474,-12.1912,-12.2673,-12.3308,-12.3829,-12.4441,-12.517,-12.5772,-12.6294,-12.6484,-12.6484,-12.6558,-12.6663,-12.6704,-11.2172,-11.2106,-11.1897,-11.1848,-11.1893,-11.121,-11.0395,-10.9582,-10.9582,-10.9037,-10.8152,-10.8304,-10.8158,-10.7598,-10.8306,-10.849,-10.8318,-10.8987,-10.9335,-10.9132,-10.8557,-10.7982,-10.7373,-10.6629,-10.5986,-10.5578,-10.6063,-10.5987,-10.5592,-10.5817,-10.5688,-10.54,-10.5815,-10.5682,-10.4938,-10.4938,-10.5208,-10.5716,-10.4667,-10.4363,-10.4904,-10.4227,-10.3754,-10.3483,-10.2096,-10.1419,-10.1792,-10.0878,-10.0608,-10.1183,-10.1386,-10.1825,-10.2732,-10.4086,-10.5603,-10.7578,-10.8985,-11.0713,-11.2714,-11.3873,-11.4549,-11.4549,-11.4461,-11.4647,-11.4786,-11.2494,-11.0994,-11.1813,-11.1882,-11.2335,-11.3625,-11.5027,-11.5782,-11.5397,-11.6313,-11.7104,-11.7791,-11.8177,-11.8739,-11.9722,-11.9441,-11.9125,-11.9125,-11.8493,-11.8002,-11.8338,-11.9221,-12.0298,-12.0974,-12.1472,-12.1508,-12.1164,-12.0876,-12.1037,-12.1466,-12.0865,-12.04,-12.1022,-12.0663,-12.0836,-12.1853,-12.2182,-12.2439,-12.3276,-12.3938,-12.4477,-12.517,-12.5772,-12.6463,-12.693,-12.7079,-12.6967,-12.7097,-12.6985,-12.7165,-11.2172,-11.2139,-11.2074,-11.1838,-11.1215,-11.0428,-10.9949,-10.9595,-10.9562,-10.9048,-10.8521,-10.8488,-10.8422,-10.8323,-10.8706,-10.8932,-10.9021,-10.9447,-10.9531,-10.9268,-10.9099,-10.9031,-10.8862,-10.8151,-10.7915,-10.8148,-10.7932,-10.738,-10.667,-10.6765,-10.6375,-10.5916,-10.6426,-10.6392,-10.5783,-10.5682,-10.5716,-10.5817,-10.5682,-10.5614,-10.5648,-10.4971,-10.4261,-10.3618,-10.4058,-10.399,-10.3382,-10.3889,-10.416,-10.4295,-10.487,-10.5747,-10.6856,-10.7903,-10.9117,-11.0367,-11.1419,-11.2817,-11.4335,-11.5561,-11.6143,-11.6177,-11.6892,-11.7223,-11.6701,-11.5622,-11.5006,-11.4678,-11.4104,-11.3979,-11.4873,-11.5257,-11.5607,-11.5992,-11.6852,-11.7447,-11.8002,-11.916,-11.9792,-11.923,-11.9265,-11.9336,-11.9722,-11.8879,-11.8443,-11.9256,-12.014,-12.0971,-12.1216,-12.1444,-12.1586,-12.1444,-12.1579,-12.1901,-12.209,-12.2325,-12.1931,-12.2029,-12.245,-12.2457,-12.2644,-12.2943,-12.346,-12.3646,-12.4119,-12.4757,-12.5373,-12.5907,-12.6552,-12.7449,-12.7559,-12.7336,-12.7783,-12.7949,-12.8168,-11.1371,-11.1532,-11.166,-11.1587,-11.1124,-11.0796,-11.0395,-11.0168,-11.001,-10.9496,-10.9048,-10.8953,-10.8572,-10.8086,-10.8389,-10.8822,-10.9144,-10.9901,-11.0194,-11.0173,-10.9907,-10.9843,-10.9775,-10.9065,-10.8863,-10.8932,-10.8622,-10.8077,-10.7471,-10.7064,-10.6727,-10.646,-10.6764,-10.6731,-10.6426,-10.602,-10.5986,-10.6426,-10.602,-10.5986,-10.6325,-10.5716,-10.5208,-10.4938,-10.4769,-10.4566,-10.4363,-10.4938,-10.5344,-10.5411,-10.6761,-10.7675,-10.8114,-10.9771,-11.1162,-11.2083,-11.4197,-11.5636,-11.6293,-11.7835,-11.8454,-11.8003,-11.8379,-11.8545,-11.8232,-11.7378,-11.6773,-11.697,-11.5865,-11.5354,-11.6052,-11.6319,-11.6411,-11.6376,-11.7027,-11.777,-11.7931,-11.8879,-11.9546,-11.9687,-11.9757,-11.9827,-12.0038,-11.9652,-11.9659,-12.0316,-12.0794,-12.1059,-12.1341,-12.1464,-12.1464,-12.1464,-12.1707,-12.1948,-12.2186,-12.2387,-12.2621,-12.2737,-12.2737,-12.2737,-12.3231,-12.3533,-12.3865,-12.4228,-12.4793,-12.5373,-12.5968,-12.6389,-12.7041,-12.7724,-12.8132,-12.8132,-12.8895,-12.8988,-12.9359,-11.0884,-11.0884,-11.1209,-11.1239,-11.1102,-11.1102,-11.0802,-11.0583,-11.0332,-10.9904,-10.9476,-10.91,-10.8737,-10.8304,-10.8619,-10.9169,-10.9582,-11.0494,-11.096,-11.1035,-11.0504,-11.0307,-11.038,-10.9704,-10.9471,-10.9507,-10.9339,-10.9067,-10.866,-10.761,-10.7204,-10.7204,-10.7204,-10.7204,-10.7137,-10.6629,-10.6764,-10.7373,-10.6798,-10.6663,-10.7103,-10.69,-10.6426,-10.5851,-10.5479,-10.5208,-10.5005,-10.5716,-10.6223,-10.6594,-10.8082,-10.9098,-10.9505,-11.12,-11.2633,-11.3762,-11.6021,-11.7464,-11.7672,-11.9288,-12.0077,-11.9456,-11.9659,-11.9931,-11.9854,-11.8973,-11.8613,-11.9057,-11.7856,-11.7262,-11.7029,-11.7262,-11.711,-11.6656,-11.7504,-11.8086,-11.8282,-11.8914,-11.9652,-12.0108,-12.0143,-12.0213,-12.0178,-12.0236,-12.0489,-12.09,-12.0811,-12.0811,-12.1218,-12.1183,-12.1218,-12.1464,-12.1586,-12.1828,-12.2186,-12.2305,-12.2621,-12.2773,-12.2621,-12.2737,-12.3344,-12.368,-12.4192,-12.4513,-12.541,-12.6101,-12.6389,-12.6893,-12.7389,-12.7686,-12.8281,-12.9024,-12.947,-12.9804,-13.0101,-11.0884,-11.0884,-11.0884,-11.0851,-11.0851,-11.0982,-11.0722,-11.0518,-11.0453,-11.0017,-10.9554,-10.9203,-10.8995,-10.9103,-10.9698,-11.0197,-11.061,-11.1085,-11.141,-11.1632,-11.0672,-11.0447,-11.0699,-10.9992,-11.0076,-11.0492,-11.0425,-11.0391,-11.0324,-10.8795,-10.7982,-10.7982,-10.7982,-10.7982,-10.7948,-10.7881,-10.8287,-10.876,-10.8219,-10.7915,-10.805,-10.8625,-10.7915,-10.6257,-10.6426,-10.6426,-10.5885,-10.6426,-10.7271,-10.842,-10.9134,-11.0287,-11.1573,-11.253,-11.3762,-11.5373,-11.6507,-11.7335,-11.8127,-11.95,-12.0152,-12.0052,-12.0977,-12.183,-12.1487,-12.0851,-12.0562,-12.1067,-12.012,-11.9081,-11.774,-11.7565,-11.746,-11.7425,-11.7984,-11.8625,-11.8985,-11.9371,-12.0073,-12.0073,-12.0038,-12.0108,-12.0178,-12.0433,-12.0595,-12.0721,-12.0721,-12.0721,-12.0811,-12.0846,-12.0846,-12.0971,-12.1341,-12.1828,-12.2067,-12.2305,-12.2305,-12.2305,-12.254,-12.2621,-12.2967,-12.3308,-12.4047,-12.4725,-12.551,-12.6101,-12.6615,-12.717,-12.7559,-12.8244,-12.9395,-13.0101,-13.0157,-13.051,-13.0528,-11.0884,-11.0884,-11.0884,-11.0884,-11.0884,-11.0884,-11.1046,-11.1076,-11.0938,-11.0796,-11.0738,-11.0278,-11.0069,-11.0478,-11.1207,-11.0975,-11.0062,-11.1358,-11.1854,-11.1525,-11.0927,-11.0743,-11.0604,-10.9863,-10.9757,-11.022,-10.9925,-10.97,-10.9676,-10.8997,-10.876,-10.876,-10.876,-10.876,-10.876,-10.876,-10.893,-10.9132,-10.8896,-10.876,-10.876,-10.9031,-10.876,-10.8016,-10.7712,-10.7035,-10.5851,-10.6761,-10.7437,-10.7876,-10.9434,-11.0823,-11.1946,-11.3793,-11.5063,-11.5852,-11.7261,-11.809,-11.8606,-12.0086,-12.0842,-12.0325,-12.1738,-12.2325,-12.1738,-12.1305,-12.1113,-12.0972,-12.0541,-11.9735,-11.9349,-11.8823,-11.8542,-11.8542,-11.8332,-11.8297,-11.8388,-11.8563,-11.8739,-11.8809,-11.9125,-11.9652,-12.0038,-12.0306,-12.0433,-12.0685,-12.0721,-12.0721,-12.0721,-12.0721,-12.0721,-12.0721,-12.1059,-12.1428,-12.1828,-12.2067,-12.2186,-12.2186,-12.2305,-12.2504,-12.2737,-12.3195,-12.3718,-12.437,-12.5206,-12.6004,-12.6389,-12.693,-12.7521,-12.8912,-13.0101,-13.0417,-13.0823,-13.0917,-13.0505,-11.0946,-11.0916,-11.0884,-11.0884,-11.0884,-11.0884,-11.1046,-11.1306,-11.0978,-11.1129,-11.1339,-11.0723,-11.0672,-11.1187,-11.1816,-11.1343,-10.9992,-11.1491,-11.1874,-11.12,-11.0662,-11.0453,-11.0209,-10.9805,-10.9746,-10.991,-10.968,-10.9473,-10.9633,-10.964,-10.9538,-10.9538,-10.9538,-10.9538,-10.9538,-10.9538,-10.964,-10.9913,-10.9812,-10.9813,-10.995,-11.0188,-11.0018,-10.961,-10.9271,-10.8457,-10.7202,-10.7743,-10.8418,-10.9058,-11.031,-11.1597,-11.2589,-11.4581,-11.5783,-11.5956,-11.7503,-11.8502,-11.8572,-11.9743,-12.0569,-12.0569,-12.1708,-12.2401,-12.2366,-12.2172,-12.1813,-12.1428,-12.1137,-12.0845,-12.0284,-11.9968,-11.9757,-11.9603,-11.9076,-11.8654,-11.8443,-11.8443,-11.8338,-11.8142,-11.8704,-11.9301,-11.9722,-12.0038,-12.0271,-12.0433,-12.0559,-12.0595,-12.0595,-12.0595,-12.0595,-12.0721,-12.0935,-12.1306,-12.1707,-12.1948,-12.2186,-12.2186,-12.2186,-12.2305,-12.2504,-12.2967,-12.3385,-12.3938,-12.4688,-12.5573,-12.6294,-12.6764,-12.793,-12.9321,-12.9878,-13.0157,-13.06,-13.1076,-13.072,-11.117,-11.0948,-11.0916,-11.0884,-11.0884,-11.072,-11.0884,-11.0884,-11.0851,-11.0948,-11.0938,-11.0137,-11.0257,-11.1112,-11.133,-11.1182,-11.0677,-11.1495,-11.165,-11.096,-10.9931,-10.9415,-10.9284,-10.9632,-10.964,-10.9496,-10.991,-11.0337,-11.0598,-11.0307,-11.0177,-11.0316,-11.0316,-11.0316,-11.0316,-11.0316,-11.076,-11.1308,-11.0969,-11.0971,-11.148,-11.1822,-11.1549,-11.0457,-11.0833,-11.0799,-10.9644,-10.9711,-11.0184,-11.1436,-11.174,-11.2388,-11.3409,-11.499,-11.5783,-11.6025,-11.7266,-11.8025,-11.8094,-11.854,-11.9608,-12.0508,-12.1403,-12.2405,-12.3412,-12.3333,-12.2767,-12.2505,-12.219,-12.1864,-12.067,-12.081,-12.1009,-12.07,-12.0278,-12.0051,-11.9663,-11.9522,-11.9151,-11.8303,-11.8724,-11.9055,-11.9265,-11.9757,-12.0306,-12.0306,-12.0306,-12.0341,-12.0341,-12.0341,-12.0306,-12.0595,-12.0935,-12.1183,-12.1586,-12.1948,-12.2067,-12.2186,-12.2186,-12.2305,-12.2305,-12.2621,-12.3081,-12.3718,-12.4688,-12.5473,-12.6484,-12.7096,-12.7838,-12.8969,-12.9378,-13.0027,-13.0632,-13.1104,-13.0932,-11.075,-11.0916,-11.0556,-11.0392,-11.0392,-11.0029,-10.9863,-10.9863,-10.9863,-11.0066,-11.0364,-10.9873,-11.0007,-11.0688,-11.0722,-11.0495,-11.0332,-11.0657,-11.0657,-11.0463,-10.9747,-10.936,-10.9135,-10.8941,-10.8971,-10.9181,-10.9732,-11.0224,-11.0404,-11.0279,-11.0463,-11.0921,-11.1061,-11.1061,-11.1027,-11.1061,-11.1336,-11.1437,-11.1302,-11.1339,-11.1478,-11.1786,-11.1788,-11.1447,-11.189,-11.1992,-11.1888,-11.1063,-11.0892,-11.1877,-11.2141,-11.2617,-11.3679,-11.499,-11.5749,-11.5956,-11.7266,-11.8128,-11.8163,-11.8749,-11.9405,-12.051,-12.1409,-12.2413,-12.335,-12.3308,-12.3053,-12.2837,-12.2716,-12.2074,-12.1337,-12.1196,-12.122,-12.0791,-12.0262,-12.0034,-11.9805,-11.9222,-11.8799,-11.8693,-11.9099,-11.9397,-11.9573,-12.0102,-12.0433,-12.0306,-12.0178,-12.0178,-12.0178,-12.0213,-12.0213,-12.0341,-12.0685,-12.1059,-12.1306,-12.1707,-12.1948,-12.2067,-12.2186,-12.2186,-12.2305,-12.2387,-12.2852,-12.3608,-12.4583,-12.551,-12.6484,-12.7245,-12.7875,-12.8542,-12.9077,-12.9847,-13.0858,-13.1055,-13.0808,-11.0484,-11.0588,-11.0392,-11.0227,-11.0227,-10.9696,-10.9497,-10.9497,-10.9497,-10.9831,-10.9997,-10.9529,-10.9991,-11.0847,-11.0581,-11.0575,-11.0736,-11.0543,-11.0248,-10.9881,-10.9458,-10.9106,-10.8825,-10.8601,-10.8746,-10.9344,-10.9883,-11.0429,-11.0738,-11.0873,-11.1204,-11.163,-11.1534,-11.1365,-11.1399,-11.1399,-11.1365,-11.1505,-11.1645,-11.1919,-11.2262,-11.2606,-11.2846,-11.3359,-11.3563,-11.3834,-11.3934,-11.3174,-11.2657,-11.2623,-11.272,-11.3231,-11.4024,-11.5128,-11.5921,-11.6438,-11.7335,-11.8128,-11.8197,-11.8784,-11.9681,-12.0614,-12.1374,-12.2379,-12.3177,-12.3346,-12.3338,-12.3088,-12.325,-12.2952,-12.2074,-12.2109,-12.1993,-12.1672,-12.0685,-12.0034,-11.9892,-11.922,-11.8674,-11.8902,-11.931,-11.9699,-11.9822,-12.0316,-12.0775,-12.0559,-12.0559,-12.0433,-12.0433,-12.0433,-12.0306,-12.0306,-12.0559,-12.0811,-12.1183,-12.1428,-12.1828,-12.2067,-12.2186,-12.2186,-12.2186,-12.2305,-12.2621,-12.3682,-12.4652,-12.551,-12.6389,-12.6801,-12.7245,-12.802,-12.8914,-12.9787,-13.0575,-13.0708,-13.057,-11.0401,-11.0323,-11.0093,-11.0061,-11.0061,-10.9529,-10.9362,-10.933,-10.9362,-10.9497,-10.9696,-10.9321,-10.9977,-11.1128,-11.0754,-11.0736,-11.1215,-11.0768,-11.014,-10.9671,-10.929,-10.8908,-10.8527,-10.8588,-10.9032,-10.9717,-11.0148,-11.0749,-11.121,-11.1205,-11.202,-11.2028,-11.1563,-11.1258,-11.1225,-11.1399,-11.1573,-11.1919,-11.2024,-11.2778,-11.3837,-11.4042,-11.4452,-11.5511,-11.5511,-11.5476,-11.5407,-11.5369,-11.4921,-11.3955,-11.3817,-11.4128,-11.4748,-11.5473,-11.63,-11.6887,-11.768,-11.8025,-11.8266,-11.8784,-11.9681,-12.0717,-12.134,-12.21,-12.3212,-12.3454,-12.3485,-12.3268,-12.402,-12.4075,-12.3057,-12.3092,-12.3223,-12.2813,-12.1602,-12.0829,-12.014,-11.959,-11.9307,-11.92,-11.959,-12.005,-12.0121,-12.0723,-12.1112,-12.1059,-12.1059,-12.0935,-12.0685,-12.0559,-12.0433,-12.0433,-12.0433,-12.0685,-12.0935,-12.1306,-12.1586,-12.1948,-12.2139,-12.2365,-12.2329,-12.2412,-12.2816,-12.3866,-12.4647,-12.54,-12.6175,-12.6763,-12.7502,-12.8642,-12.9357,-12.9898,-13.0181,-13.0359,-13.0441,-11.0489,-11.08,-10.9785,-10.9394,-10.9529,-10.8856,-10.8516,-10.8548,-10.8548,-10.875,-10.8813,-10.9118,-10.9467,-11.0001,-11.0306,-11.045,-11.0608,-11.045,-11.0355,-11.0007,-11.0055,-10.9607,-10.9184,-10.917,-10.9482,-10.9847,-11.0102,-11.0187,-11.0409,-11.0242,-11.0363,-11.1118,-11.0984,-11.0548,-11.0624,-11.1433,-11.195,-11.2391,-11.2877,-11.3494,-11.4419,-11.483,-11.507,-11.5378,-11.5717,-11.5852,-11.5818,-11.5783,-11.568,-11.5335,-11.5231,-11.53,-11.5542,-11.6231,-11.6783,-11.7094,-11.768,-11.8128,-11.8232,-11.8784,-11.9543,-12.0475,-12.12,-12.196,-12.2792,-12.3176,-12.3351,-12.359,-12.4036,-12.4196,-12.3522,-12.3584,-12.3338,-12.2731,-12.2237,-12.1908,-12.1519,-12.1077,-12.0526,-12.0187,-12.0805,-12.0754,-12.0769,-12.1053,-12.1428,-12.1306,-12.1183,-12.1059,-12.0935,-12.0685,-12.0685,-12.0306,-12.0306,-12.0595,-12.0721,-12.1059,-12.1428,-12.1707,-12.209,-12.2615,-12.2733,-12.2816,-12.3416,-12.4298,-12.4392,-12.507,-12.6249,-12.7095,-12.8162,-12.8902,-12.9061,-12.9318,-13.0101,-13.0522,-13.0522,-11.0533,-11.0585,-10.9662,-10.9312,-10.9226,-10.8548,-10.8364,-10.8617,-10.8648,-10.868,-10.8806,-10.9407,-10.9723,-10.9786,-11.0386,-11.0892,-11.1113,-11.086,-11.0576,-11.0133,-10.9596,-10.9404,-10.9608,-10.9553,-10.9638,-10.9975,-11.0398,-11.0652,-11.0829,-11.0297,-11.0585,-11.1243,-11.1205,-11.1164,-11.1197,-11.1709,-11.2482,-11.3029,-11.3346,-11.3966,-11.5378,-11.5619,-11.6134,-11.6408,-11.6648,-11.6783,-11.6783,-11.6783,-11.6507,-11.599,-11.5818,-11.5956,-11.6335,-11.6749,-11.7128,-11.7404,-11.7887,-11.8128,-11.8232,-11.8784,-11.9681,-12.0441,-12.12,-12.1925,-12.2653,-12.3002,-12.3351,-12.3489,-12.3973,-12.4102,-12.4055,-12.4048,-12.3935,-12.3549,-12.3201,-12.2752,-12.2278,-12.1484,-12.1164,-12.1003,-12.1109,-12.1444,-12.1032,-12.1458,-12.1636,-12.1707,-12.1707,-12.1464,-12.1095,-12.0971,-12.0916,-12.0771,-12.0644,-12.0771,-12.1324,-12.1643,-12.1834,-12.2041,-12.2994,-12.3412,-12.3327,-12.3526,-12.4222,-12.4768,-12.4569,-12.4933,-12.6433,-12.7386,-12.7723,-12.8261,-12.8355,-12.9024,-12.9978,-13.0492,-13.0492,-11.0669,-11.0033,-10.9937,-10.9524,-10.8983,-10.8472,-10.8711,-10.9185,-10.9343,-10.9375,-10.9501,-11.0007,-11.0165,-11.0323,-11.0702,-11.1492,-11.2093,-11.1271,-11.0892,-11.0228,-10.9643,-10.948,-11.0331,-10.9713,-10.9863,-11.0263,-11.1176,-11.1402,-11.1396,-11.1379,-11.1429,-11.1563,-11.1825,-11.2073,-11.184,-11.2269,-11.3166,-11.3985,-11.3951,-11.4749,-11.6202,-11.6684,-11.7062,-11.7612,-11.8025,-11.8059,-11.8128,-11.8094,-11.7611,-11.6131,-11.5959,-11.6372,-11.6923,-11.6992,-11.7268,-11.7716,-11.7922,-11.7991,-11.8335,-11.8922,-11.975,-12.0718,-12.1304,-12.1925,-12.2759,-12.3002,-12.314,-12.3276,-12.3767,-12.4005,-12.4342,-12.4511,-12.4672,-12.4427,-12.4005,-12.3153,-12.225,-12.1677,-12.1431,-12.1431,-12.1431,-12.1448,-12.1692,-12.1778,-12.1828,-12.1707,-12.1863,-12.1849,-12.1712,-12.1767,-12.1625,-12.1516,-12.132,-12.1144,-12.1767,-12.2386,-12.2382,-12.2709,-12.4091,-12.477,-12.4288,-12.4455,-12.517,-12.5493,-12.5323,-12.5941,-12.7133,-12.7649,-12.782,-12.8382,-12.8987,-12.9611,-13.0272,-13.0419,-13.0492,-11.1052,-11.0732,-10.9848,-10.9214,-10.8908,-10.8978,-10.9154,-10.9375,-10.9881,-11.007,-11.0102,-11.026,-11.0292,-11.0292,-11.0513,-11.0892,-11.1461,-11.0955,-11.0671,-11.1018,-11.0608,-11.1095,-11.1502,-11.0457,-11.0093,-11.0588,-11.0916,-11.1046,-11.1046,-11.072,-11.0424,-11.0802,-11.1001,-11.0629,-11.1154,-11.2603,-11.3759,-11.4629,-11.5439,-11.6373,-11.7337,-11.7716,-11.7853,-11.8266,-11.868,-11.8922,-11.8956,-11.8956,-11.868,-11.8024,-11.7509,-11.713,-11.7059,-11.7128,-11.737,-11.7612,-11.7749,-11.8094,-11.8715,-11.9198,-11.9818,-12.1131,-12.1476,-12.1784,-12.2616,-12.272,-12.2892,-12.3065,-12.335,-12.3766,-12.4312,-12.4581,-12.4813,-12.4672,-12.4181,-12.3619,-12.3258,-12.2813,-12.254,-12.2434,-12.2207,-12.2139,-12.2227,-12.189,-12.1956,-12.1899,-12.2006,-12.2304,-12.2433,-12.2473,-12.244,-12.2368,-12.2313,-12.2333,-12.2776,-12.3322,-12.3387,-12.3448,-12.477,-12.5697,-12.5361,-12.5454,-12.6042,-12.6175,-12.6077,-12.6948,-12.7833,-12.8276,-12.8482,-12.9053,-12.9611,-12.9942,-13.0272,-13.0382,-13.0492,-11.1606,-11.1116,-11.0386,-11.0023,-10.9657,-10.977,-10.9944,-11.026,-11.0576,-11.0766,-11.0766,-11.0766,-11.0576,-11.0292,-11.0323,-11.0671,-11.1018,-11.0814,-11.1021,-11.1449,-11.1191,-11.1534,-11.2388,-11.1371,-11.0875,-11.15,-11.1209,-11.1079,-11.0917,-11.069,-11.0528,-11.0624,-11.0808,-11.1248,-11.1306,-11.259,-11.3757,-11.4907,-11.573,-11.6677,-11.7888,-11.8473,-11.8887,-11.8991,-11.9232,-11.9336,-11.9715,-11.9749,-11.961,-11.9227,-11.8777,-11.8194,-11.7573,-11.7711,-11.7885,-11.7922,-11.8576,-11.8714,-11.9267,-11.9612,-12.0267,-12.1405,-12.1508,-12.1922,-12.2371,-12.2578,-12.2647,-12.2927,-12.314,-12.3455,-12.4176,-12.4546,-12.4813,-12.4778,-12.4462,-12.4216,-12.404,-12.3364,-12.2755,-12.272,-12.2496,-12.2611,-12.249,-12.2351,-12.2475,-12.267,-12.2829,-12.2971,-12.3042,-12.3042,-12.3273,-12.3326,-12.3343,-12.3503,-12.412,-12.4448,-12.4544,-12.4709,-12.5194,-12.5945,-12.6108,-12.6406,-12.6872,-12.7109,-12.7381,-12.751,-12.8225,-12.8666,-12.897,-12.931,-12.9685,-13.0015,-13.0272,-13.0419,-13.0492,-11.1966,-11.1334,-11.1334,-11.0924,-11.0355,-11.0386,-11.0734,-11.124,-11.1461,-11.1461,-11.1398,-11.1303,-11.0702,-11.0498,-11.0118,-11.0498,-11.083,-11.1004,-11.1082,-11.17,-11.1279,-11.2174,-11.2825,-11.2455,-11.1917,-11.2672,-11.1599,-11.1241,-11.1338,-11.1209,-11.0917,-11.1144,-11.1628,-11.1718,-11.2167,-11.2861,-11.3959,-11.5155,-11.5942,-11.6798,-11.8197,-11.9025,-11.9681,-11.9956,-12.0025,-12.0025,-12.0439,-12.0543,-12.0403,-11.9945,-11.9983,-11.9086,-11.8574,-11.8471,-11.9025,-11.8405,-11.9473,-11.9851,-11.9922,-12.0163,-12.0681,-12.1543,-12.1508,-12.1853,-12.2405,-12.2578,-12.2612,-12.2754,-12.3036,-12.3593,-12.4141,-12.4546,-12.4813,-12.4813,-12.4813,-12.4813,-12.4602,-12.3619,-12.3163,-12.2987,-12.3012,-12.2966,-12.299,-12.2963,-12.3232,-12.3429,-12.3555,-12.3716,-12.3661,-12.3858,-12.4249,-12.4781,-12.503,-12.5225,-12.5676,-12.5928,-12.5985,-12.5894,-12.6125,-12.6579,-12.7059,-12.7749,-12.8321,-12.8744,-12.9016,-12.8897,-12.8897,-12.931,-12.9604,-12.9611,-12.9831,-13.0235,-13.0419,-13.0492,-13.0492,-11.1966,-11.1334,-11.1334,-11.0924,-11.045,-11.0892,-11.124,-11.1398,-11.1935,-11.2188,-11.1998,-11.0987,-11.0624,-11.056,-10.9512,-10.9397,-11.0055,-11.0512,-11.1119,-11.1833,-11.1885,-11.2866,-11.3841,-11.3204,-11.319,-11.3291,-11.2443,-11.1597,-11.1499,-11.1499,-11.1371,-11.1532,-11.166,-11.182,-11.2423,-11.3514,-11.4126,-11.5094,-11.646,-11.7771,-11.8503,-11.9507,-12.0267,-12.0577,-12.075,-12.106,-12.1233,-12.1336,-12.1161,-12.0774,-12.0434,-12.0055,-11.964,-11.9425,-11.9498,-11.9536,-11.9987,-12.04,-12.0819,-12.0646,-12.1233,-12.1888,-12.1888,-12.1888,-12.2405,-12.2578,-12.2578,-12.2754,-12.3142,-12.3696,-12.3834,-12.4412,-12.468,-12.4813,-12.4813,-12.4813,-12.4742,-12.4497,-12.4181,-12.4075,-12.3759,-12.3479,-12.3504,-12.3494,-12.3647,-12.3868,-12.3995,-12.4425,-12.4728,-12.5119,-12.5509,-12.6147,-12.6698,-12.7098,-12.7303,-12.7514,-12.7647,-12.7148,-12.7266,-12.7786,-12.8405,-12.9202,-12.9739,-12.9728,-12.9787,-12.9706,-12.9787,-13.0015,-13.0088,-13.0088,-13.0272,-13.0492,-13.0492,-13.0492,-13.0492,-11.2188,-11.1872,-11.1872,-11.1682,-11.1461,-11.1714,-11.1872,-11.1903,-11.2219,-11.2156,-11.1619,-11.0766,-11.0386,-11.0083,-10.9428,-10.9057,-10.9721,-11.0633,-11.1371,-11.2086,-11.2616,-11.3462,-11.4592,-11.3857,-11.4002,-11.4009,-11.316,-11.234,-11.2205,-11.2013,-11.1853,-11.182,-11.182,-11.2013,-11.2331,-11.3083,-11.3974,-11.4829,-11.6315,-11.7732,-11.8743,-11.9886,-12.054,-12.1157,-12.1367,-12.1574,-12.1776,-12.206,-12.1918,-12.185,-12.1608,-12.1436,-12.1191,-12.0946,-12.0705,-12.04,-12.0778,-12.1122,-12.1612,-12.144,-12.1957,-12.2405,-12.2233,-12.2233,-12.2474,-12.2578,-12.2578,-12.2754,-12.3281,-12.3662,-12.3696,-12.4377,-12.468,-12.4813,-12.4813,-12.4813,-12.4813,-12.4813,-12.4813,-12.4813,-12.4462,-12.4181,-12.4251,-12.4172,-12.4057,-12.4211,-12.4561,-12.5027,-12.5688,-12.6044,-12.6397,-12.6785,-12.7349,-12.7673,-12.8027,-12.8376,-12.8497,-12.8252,-12.8258,-12.8769,-12.8985,-12.9454,-12.9922,-13.0168,-13.0265,-13.022,-13.0228,-13.0309,-13.0419,-13.0492,-13.0492,-13.0492,-13.0492,-13.0492,-13.0492,-11.2377,-11.2377,-11.2377,-11.2377,-11.2377,-11.2377,-11.2346,-11.2377,-11.2377,-11.2093,-11.1461,-11.0671,-11.0323,-11.0033,-10.9535,-10.9394,-10.9927,-11.0838,-11.1585,-11.2165,-11.2822,-11.3733,-11.4446,-11.4478,-11.4192,-11.4431,-11.365,-11.3089,-11.285,-11.2429,-11.2331,-11.2331,-11.2331,-11.2331,-11.2489,-11.3116,-11.3701,-11.4462,-11.5525,-11.6988,-11.8769,-12.0193,-12.1053,-12.1901,-12.1776,-12.181,-12.208,-12.2258,-12.2366,-12.2366,-12.2509,-12.2543,-12.2578,-12.2578,-12.2026,-12.1267,-12.2026,-12.2095,-12.206,-12.2164,-12.244,-12.2578,-12.2578,-12.2578,-12.2578,-12.2578,-12.2578,-12.2754,-12.3281,-12.3662,-12.3834,-12.4412,-12.468,-12.4813,-12.4813,-12.4813,-12.4813,-12.4813,-12.4813,-12.4813,-12.4813,-12.4778,-12.484,-12.4866,-12.4715,-12.5069,-12.529,-12.5705,-12.6204,-12.6524,-12.6877,-12.7121,-12.759,-12.791,-12.8376,-12.8868,-12.8948,-12.8768,-12.8952,-12.9418,-12.9414,-12.9483,-12.9881,-13.0455,-13.0455,-13.0449,-13.0455,-13.0492,-13.0492,-13.0492,-13.0492,-13.0492,-13.0492,-13.0492,-13.0492,-11.2377,-11.2377,-11.2377,-11.2377,-11.2377,-11.2377,-11.2377,-11.2377,-11.2346,-11.2346,-11.1872,-11.086,-11.0513,-11.0414,-11.0241,-11.0259,-11.0588,-11.0718,-11.1202,-11.2046,-11.2596,-11.3442,-11.4187,-11.4187,-11.4387,-11.4591,-11.4008,-11.3519,-11.3253,-11.2982,-11.2778,-11.2811,-11.2844,-11.2679,-11.2968,-11.3304,-11.3854,-11.4411,-11.5848,-11.7896,-11.9995,-12.1535,-12.1874,-12.1791,-12.1825,-12.1936,-12.2073,-12.2217,-12.2361,-12.2612,-12.2578,-12.2578,-12.2578,-12.2578,-12.2578,-12.2405,-12.2509,-12.2578,-12.244,-12.2509,-12.2578,-12.2578,-12.2578,-12.2578,-12.2578,-12.2612,-12.2612,-12.2578,-12.3281,-12.3696,-12.3834,-12.4412,-12.468,-12.4848,-12.4883,-12.4883,-12.4883,-12.5129,-12.5094,-12.4918,-12.4988,-12.5253,-12.5349,-12.541,-12.5469,-12.5728,-12.6146,-12.6399,-12.6649,-12.6773,-12.7142,-12.747,-12.759,-12.7946,-12.826,-12.8868,-12.9131,-12.9134,-12.946,-12.9886,-12.9812,-12.9739,-13.0095,-13.0492,-13.0492,-13.0492,-13.0492,-13.0492,-13.0492,-13.0492,-13.0492,-13.0492,-13.0492,-13.0492,-13.0492,-11.1809,-11.2377,-11.2377,-11.2377,-11.2377,-11.2377,-11.2377,-11.2282,-11.1935,-11.1556,-11.1082,-11.0197,-10.9879,-10.9778,-10.9721,-10.9895,-11.0029,-11.0194,-11.0613,-11.1622,-11.2332,-11.321,-11.409,-11.4511,-11.4873,-11.4814,-11.4526,-11.4236,-11.4106,-11.3971,-11.4055,-11.3956,-11.3785,-11.3777,-11.3677,-11.3625,-11.4033,-11.5146,-11.7042,-11.9174,-12.0652,-12.1736,-12.2183,-12.1636,-12.1962,-12.1962,-12.1783,-12.1928,-12.2217,-12.247,-12.2578,-12.2578,-12.2578,-12.2578,-12.2578,-12.2578,-12.2578,-12.2578,-12.2578,-12.2578,-12.2578,-12.2578,-12.2578,-12.2578,-12.2578,-12.2612,-12.2754,-12.2895,-12.342,-12.3696,-12.4005,-12.4546,-12.4995,-12.5234,-12.5058,-12.5234,-12.5304,-12.5445,-12.548,-12.5304,-12.5199,-12.564,-12.5772,-12.5394,-12.5455,-12.5775,-12.5962,-12.6273,-12.6524,-12.6773,-12.7264,-12.7709,-12.7709,-12.7745,-12.8144,-12.8491,-12.8832,-12.9059,-12.9462,-12.9786,-13.0,-13.0142,-13.0388,-13.0492,-13.0492,-13.0492,-13.0492,-13.0492,-13.0492,-13.0492,-13.0492,-13.0492,-13.0492,-13.0492,-13.0492,-11.1299,-11.1988,-11.202,-11.1988,-11.2167,-11.2167,-11.2346,-11.2282,-11.1619,-11.105,-11.0418,-10.9723,-10.9105,-10.9047,-10.9226,-10.9362,-10.9497,-10.9497,-10.9985,-11.0929,-11.1772,-11.2616,-11.3598,-11.4277,-11.4932,-11.5021,-11.4809,-11.4684,-11.4656,-11.4957,-11.5051,-11.5044,-11.4576,-11.4661,-11.4652,-11.442,-11.4698,-11.5747,-11.8035,-11.9572,-12.0465,-12.1661,-12.168,-12.149,-12.149,-12.1636,-12.1636,-12.1783,-12.2073,-12.247,-12.2578,-12.2578,-12.2578,-12.2578,-12.2578,-12.2578,-12.2578,-12.2578,-12.2578,-12.2578,-12.2578,-12.2578,-12.2578,-12.2578,-12.2578,-12.2612,-12.2612,-12.2895,-12.3316,-12.3731,-12.4141,-12.4412,-12.489,-12.51,-12.5339,-12.562,-12.5901,-12.6112,-12.6217,-12.6182,-12.6147,-12.6351,-12.621,-12.5648,-12.5535,-12.5822,-12.594,-12.6055,-12.6399,-12.6773,-12.7228,-12.7709,-12.7828,-12.7946,-12.818,-12.8491,-12.8719,-12.8945,-12.9461,-12.9788,-13.0003,-13.0179,-13.0388,-13.0388,-13.0492,-13.0492,-13.0492,-13.0492,-13.0492,-13.0492,-13.0492,-13.0492,-13.0492,-13.0492,-13.0529,-11.0904,-11.0904,-11.1086,-11.1268,-11.1598,-11.1629,-11.1988,-11.2314,-11.1587,-11.1145,-11.0671,-10.9849,-10.8978,-10.8877,-10.8888,-10.9025,-10.9497,-10.9497,-10.9625,-11.0049,-11.0865,-11.1636,-11.2681,-11.3527,-11.4205,-11.4518,-11.4592,-11.4657,-11.4721,-11.5139,-11.5219,-11.5015,-11.5077,-11.5263,-11.5322,-11.5504,-11.575,-11.6736,-11.8541,-11.9397,-12.0048,-12.0752,-12.1274,-12.0714,-12.0898,-12.1195,-12.149,-12.1636,-12.1928,-12.247,-12.2612,-12.2578,-12.2578,-12.2578,-12.2612,-12.2785,-12.2647,-12.2716,-12.2888,-12.275,-12.2578,-12.2578,-12.2578,-12.2578,-12.2578,-12.2578,-12.2612,-12.2754,-12.3176,-12.3455,-12.3869,-12.4176,-12.4686,-12.5171,-12.562,-12.5936,-12.6358,-12.6919,-12.7025,-12.7025,-12.6954,-12.6984,-12.6527,-12.5796,-12.5718,-12.5878,-12.5811,-12.5892,-12.6524,-12.6861,-12.7349,-12.7709,-12.7946,-12.818,-12.8491,-12.8605,-12.8719,-12.9057,-12.9571,-12.9788,-13.0073,-13.0179,-13.0284,-13.0492,-13.0492,-13.0492,-13.0492,-13.0492,-13.0492,-13.0492,-13.0566,-13.0749,-13.0816,-13.0808,-13.0845,-11.0017,-11.0017,-11.0017,-11.0721,-11.1629,-11.1629,-11.1988,-11.2156,-11.1176,-11.0133,-10.9438,-10.8838,-10.863,-10.844,-10.8548,-10.8548,-10.8686,-10.8686,-10.8856,-10.928,-11.0097,-11.0713,-11.1523,-11.2431,-11.3233,-11.3586,-11.4047,-11.4508,-11.4647,-11.5021,-11.5301,-11.5381,-11.5511,-11.583,-11.6083,-11.6466,-11.7127,-11.776,-11.8963,-12.0007,-12.0375,-12.0956,-12.1161,-12.0748,-12.0748,-12.0898,-12.1161,-12.1309,-12.1783,-12.2217,-12.2504,-12.2681,-12.2716,-12.2716,-12.2957,-12.3198,-12.2992,-12.3164,-12.3543,-12.3198,-12.2612,-12.2578,-12.2578,-12.2578,-12.2578,-12.2578,-12.2754,-12.2895,-12.3036,-12.3316,-12.4005,-12.4176,-12.4622,-12.5311,-12.5831,-12.6182,-12.6709,-12.7305,-12.7657,-12.7621,-12.7341,-12.7095,-12.6533,-12.5936,-12.6,-12.6062,-12.5928,-12.5763,-12.6363,-12.6738,-12.7071,-12.7313,-12.7554,-12.7828,-12.8144,-12.8376,-12.8605,-12.9204,-12.968,-12.9896,-13.0109,-13.0073,-13.0179,-13.0388,-13.0566,-13.0639,-13.0639,-13.0529,-13.0492,-13.0632,-13.0963,-13.1367,-13.1323,-13.1168,-13.127,-10.949,-10.949,-10.949,-11.0201,-11.1055,-11.1268,-11.1629,-11.1978,-11.1145,-10.9817,-10.8522,-10.8332,-10.8174,-10.8174,-10.8174,-10.8174,-10.8345,-10.8345,-10.8377,-10.8877,-10.9301,-10.9981,-11.0959,-11.1833,-11.2601,-11.2812,-11.3433,-11.3991,-11.4164,-11.4508,-11.5093,-11.5571,-11.6005,-11.6265,-11.6877,-11.7554,-11.8195,-11.9188,-11.9988,-12.0939,-12.1427,-12.1612,-12.1761,-12.1495,-12.1529,-12.1863,-12.1911,-12.2139,-12.2339,-12.263,-12.2883,-12.2992,-12.3061,-12.3233,-12.3578,-12.3716,-12.3785,-12.3888,-12.4233,-12.3854,-12.2992,-12.3061,-12.2681,-12.2647,-12.2612,-12.2612,-12.2754,-12.3036,-12.3176,-12.3351,-12.404,-12.4176,-12.4382,-12.4867,-12.5796,-12.6217,-12.6989,-12.7621,-12.7973,-12.8148,-12.7867,-12.7551,-12.7025,-12.6428,-12.569,-12.5718,-12.5429,-12.5374,-12.5892,-12.6238,-12.6453,-12.6702,-12.7106,-12.7349,-12.759,-12.8144,-12.8796,-12.9425,-12.9896,-13.0003,-13.0215,-13.0179,-13.0215,-13.0425,-13.0602,-13.0786,-13.1043,-13.1404,-13.1073,-13.0669,-13.1066,-13.1564,-13.2264,-13.2283,-13.2088,-10.949,-10.949,-10.949,-10.9831,-11.0355,-11.0721,-11.1268,-11.1683,-11.1284,-11.0355,-10.9027,-10.8459,-10.8174,-10.8174,-10.8174,-10.8174,-10.8174,-10.8174,-10.8174,-10.844,-10.8896,-10.9842,-11.0681,-11.1522,-11.2051,-11.3006,-11.3436,-11.3611,-11.3817,-11.4164,-11.4818,-11.5496,-11.5836,-11.6365,-11.7119,-11.8556,-11.9896,-12.1008,-12.1481,-12.1915,-12.2157,-12.2276,-12.2242,-12.2209,-12.2514,-12.2749,-12.2831,-12.3084,-12.3206,-12.3462,-12.3606,-12.375,-12.3785,-12.4268,-12.4613,-12.4785,-12.4751,-12.4785,-12.4854,-12.4164,-12.3923,-12.3681,-12.3267,-12.2854,-12.2716,-12.2681,-12.2892,-12.3454,-12.3209,-12.328,-12.3524,-12.3801,-12.4249,-12.4626,-12.5422,-12.6118,-12.6889,-12.7832,-12.8148,-12.7937,-12.8078,-12.8113,-12.7621,-12.6954,-12.5796,-12.5269,-12.4953,-12.5077,-12.5505,-12.5763,-12.5984,-12.6453,-12.6861,-12.7434,-12.7792,-12.8376,-12.902,-12.9643,-13.0109,-13.0215,-13.0284,-13.0388,-13.0425,-13.0566,-13.0896,-13.1263,-13.1881,-13.2463,-13.2022,-13.1646,-13.125,-13.1671,-13.2594,-13.3137,-13.2718,-10.949,-10.949,-10.949,-10.9646,-10.9831,-11.017,-11.0904,-11.1409,-11.0937,-10.9849,-10.8743,-10.8269,-10.8174,-10.8174,-10.8174,-10.8174,-10.8174,-10.8174,-10.8174,-10.8269,-10.882,-10.9263,-11.0133,-11.0957,-11.1559,-11.2035,-11.256,-11.3085,-11.3293,-11.3817,-11.4336,-11.4851,-11.5697,-11.6593,-11.7581,-11.8826,-11.9675,-12.0916,-12.1683,-12.2029,-12.2529,-12.2529,-12.2563,-12.2596,-12.3057,-12.3395,-12.3547,-12.3803,-12.4108,-12.4219,-12.4364,-12.4509,-12.4544,-12.4957,-12.5199,-12.5337,-12.5337,-12.5164,-12.544,-12.5302,-12.5026,-12.4509,-12.3888,-12.3405,-12.3371,-12.3656,-12.3798,-12.3904,-12.4079,-12.4219,-12.4497,-12.4532,-12.467,-12.4459,-12.4944,-12.5741,-12.6441,-12.7591,-12.8183,-12.7481,-12.7305,-12.7165,-12.6814,-12.6814,-12.5971,-12.548,-12.5234,-12.4918,-12.5112,-12.5374,-12.5634,-12.6238,-12.6702,-12.7434,-12.8144,-12.8719,-12.9279,-12.9859,-13.0179,-13.0388,-13.0492,-13.0492,-13.0823,-13.1043,-13.1447,-13.185,-13.2616,-13.3161,-13.2934,-13.2661,-13.2199,-13.2348,-13.3236,-13.3432,-13.2883,-10.9244,-10.9459,-10.949,-10.949,-10.9646,-10.9986,-11.0597,-11.1095,-11.0413,-10.9454,-10.8711,-10.8364,-10.8174,-10.8174,-10.8174,-10.8174,-10.8174,-10.8174,-10.849,-10.8585,-10.9027,-10.9596,-11.026,-11.0829,-11.1606,-11.1714,-11.2061,-11.2732,-11.3468,-11.3643,-11.4164,-11.4851,-11.536,-11.6223,-11.7514,-11.8601,-11.978,-12.1023,-12.1962,-12.2805,-12.286,-12.2982,-12.3341,-12.3496,-12.3804,-12.4228,-12.4277,-12.4557,-12.4829,-12.4976,-12.5122,-12.5268,-12.5302,-12.5578,-12.5889,-12.6096,-12.6096,-12.5992,-12.6268,-12.5992,-12.5751,-12.5751,-12.4785,-12.4233,-12.4308,-12.4451,-12.4701,-12.4983,-12.5158,-12.5298,-12.5436,-12.5436,-12.5297,-12.5087,-12.5398,-12.6231,-12.6721,-12.7906,-12.8359,-12.7586,-12.7165,-12.6779,-12.6393,-12.6217,-12.6077,-12.5796,-12.5585,-12.5234,-12.4883,-12.5244,-12.5634,-12.6238,-12.6826,-12.7756,-12.8491,-12.9057,-12.9643,-13.0179,-13.0388,-13.0492,-13.0492,-13.0529,-13.1006,-13.1557,-13.2034,-13.2584,-13.3566,-13.3964,-13.3774,-13.3435,-13.3148,-13.3421,-13.4099,-13.3751,-13.3276,-10.8782,-10.9367,-10.9429,-10.9367,-10.9615,-10.9955,-11.0379,-11.0593,-10.9902,-10.9563,-10.9217,-10.8459,-10.8206,-10.8174,-10.8174,-10.8174,-10.8174,-10.8174,-10.8617,-10.9091,-10.9407,-11.0133,-11.0829,-11.1366,-11.1777,-11.2156,-11.2555,-11.2732,-11.3643,-11.3991,-11.4336,-11.5021,-11.5191,-11.6022,-11.7182,-11.8371,-11.9687,-12.0968,-12.2213,-12.2893,-12.3074,-12.3771,-12.3996,-12.4309,-12.4841,-12.5251,-12.5453,-12.5631,-12.5836,-12.5915,-12.5915,-12.6061,-12.6268,-12.6785,-12.7027,-12.713,-12.7061,-12.7027,-12.6923,-12.6441,-12.6475,-12.6544,-12.5785,-12.5199,-12.5068,-12.5212,-12.5498,-12.5782,-12.5923,-12.6203,-12.6481,-12.6481,-12.6411,-12.6479,-12.6651,-12.7173,-12.7559,-12.8152,-12.8397,-12.8152,-12.8008,-12.7657,-12.7235,-12.6954,-12.6603,-12.6498,-12.6217,-12.5585,-12.5367,-12.5599,-12.5984,-12.6328,-12.7157,-12.7991,-12.8719,-12.9389,-12.9859,-13.032,-13.0388,-13.0492,-13.0492,-13.0676,-13.1153,-13.1777,-13.2584,-13.3319,-13.4269,-13.4595,-13.4584,-13.4274,-13.3795,-13.3739,-13.4098,-13.4185,-13.3802,-10.7828,-10.7982,-10.7982,-10.8259,-10.8751,-10.943,-10.9799,-11.0024,-11.0048,-10.9738,-10.9249,-10.8522,-10.8206,-10.8174,-10.8174,-10.8174,-10.8174,-10.8269,-10.8711,-10.9185,-10.9754,-11.0513,-11.1208,-11.1808,-11.2156,-11.2282,-11.2555,-11.2732,-11.3468,-11.3817,-11.4508,-11.5021,-11.5191,-11.5723,-11.6353,-11.7345,-11.8964,-12.0416,-12.1863,-12.2347,-12.2994,-12.3748,-12.394,-12.422,-12.5027,-12.5472,-12.5676,-12.5878,-12.6008,-12.6342,-12.6445,-12.6479,-12.6889,-12.7061,-12.7165,-12.7165,-12.7165,-12.7165,-12.713,-12.6958,-12.6923,-12.7096,-12.6647,-12.6234,-12.6034,-12.5972,-12.6295,-12.658,-12.6688,-12.7004,-12.7145,-12.711,-12.697,-12.7005,-12.7075,-12.7319,-12.7773,-12.7981,-12.8226,-12.8154,-12.7874,-12.8253,-12.7902,-12.7586,-12.727,-12.72,-12.6849,-12.6182,-12.5913,-12.6104,-12.6328,-12.6666,-12.7637,-12.8683,-12.9279,-12.9823,-13.0179,-13.0492,-13.0602,-13.0712,-13.0823,-13.1043,-13.141,-13.2217,-13.3355,-13.4273,-13.5081,-13.522,-13.5031,-13.4779,-13.4338,-13.4245,-13.4118,-13.4145,-13.395,-10.7151,-10.7366,-10.7397,-10.7797,-10.8382,-10.8782,-10.9272,-10.96,-10.9693,-10.9405,-10.8869,-10.8395,-10.8174,-10.8174,-10.8174,-10.8174,-10.8174,-10.8237,-10.8711,-10.9723,-11.0133,-11.0924,-11.1619,-11.2124,-11.246,-11.2555,-11.2732,-11.3085,-11.3643,-11.4336,-11.5021,-11.5191,-11.5191,-11.536,-11.5658,-11.6353,-11.7509,-11.8963,-12.035,-12.1035,-12.1852,-12.2834,-12.3377,-12.3726,-12.4668,-12.5283,-12.5385,-12.5813,-12.6117,-12.6454,-12.6372,-12.6673,-12.7051,-12.7051,-12.7199,-12.7199,-12.7199,-12.7199,-12.7165,-12.7165,-12.7165,-12.7199,-12.7199,-12.6923,-12.6829,-12.6767,-12.7057,-12.7236,-12.7487,-12.7629,-12.7629,-12.7595,-12.7316,-12.7073,-12.7247,-12.7386,-12.7597,-12.7738,-12.7773,-12.7738,-12.7911,-12.8397,-12.8257,-12.8148,-12.7902,-12.7762,-12.7405,-12.6801,-12.6553,-12.6648,-12.6738,-12.6999,-12.8188,-12.9389,-12.9859,-13.0146,-13.054,-13.0792,-13.1116,-13.119,-13.1226,-13.1667,-13.2254,-13.3245,-13.4383,-13.5007,-13.5518,-13.5374,-13.5298,-13.5007,-13.4894,-13.4632,-13.4363,-13.4135,-13.3933,-10.6658,-10.7182,-10.7305,-10.7582,-10.8105,-10.8071,-10.8528,-10.8931,-10.879,-10.8451,-10.8318,-10.8237,-10.8174,-10.8174,-10.8174,-10.8174,-10.8269,-10.8395,-10.9059,-11.026,-11.045,-11.1145,-11.1935,-11.2555,-11.2732,-11.2941,-11.3293,-11.3436,-11.4336,-11.4851,-11.5021,-11.5191,-11.5191,-11.5191,-11.5392,-11.5593,-11.6418,-11.7243,-11.8667,-11.959,-12.0112,-12.1417,-12.3051,-12.3276,-12.4254,-12.523,-12.5351,-12.566,-12.5965,-12.6,-12.6289,-12.6474,-12.6788,-12.7051,-12.7199,-12.7199,-12.7199,-12.7199,-12.7199,-12.7199,-12.7199,-12.7199,-12.7199,-12.713,-12.7139,-12.7217,-12.7362,-12.7362,-12.7438,-12.7726,-12.7726,-12.787,-12.7696,-12.7592,-12.7661,-12.7765,-12.78,-12.7943,-12.8015,-12.8017,-12.8332,-12.875,-12.9026,-12.878,-12.8675,-12.8394,-12.8202,-12.7693,-12.7366,-12.7468,-12.7457,-12.7637,-12.876,-12.9859,-13.0076,-13.0504,-13.087,-13.1195,-13.163,-13.1924,-13.2107,-13.2621,-13.3245,-13.4085,-13.4853,-13.5257,-13.5588,-13.5588,-13.5588,-13.5514,-13.533,-13.504,-13.4779,-13.4406,-13.4032,-10.5704,-10.5919,-10.6412,-10.6751,-10.6935,-10.7456,-10.7546,-10.7598,-10.7623,-10.7878,-10.8381,-10.8255,-10.8237,-10.8364,-10.8237,-10.8237,-10.8395,-10.8775,-10.9501,-11.0292,-11.0766,-11.1366,-11.2365,-11.2732,-11.2909,-11.3117,-11.3468,-11.3991,-11.4508,-11.5021,-11.5191,-11.5191,-11.5191,-11.5191,-11.5191,-11.536,-11.5522,-11.6048,-11.714,-11.8733,-11.9886,-12.1142,-12.2497,-12.2976,-12.3974,-12.466,-12.4884,-12.5041,-12.5196,-12.554,-12.5895,-12.641,-12.7086,-12.7199,-12.7165,-12.7199,-12.7199,-12.7199,-12.7199,-12.7199,-12.7199,-12.7199,-12.7199,-12.7199,-12.7165,-12.7347,-12.7347,-12.7312,-12.7459,-12.7605,-12.775,-12.7895,-12.7895,-12.8039,-12.8039,-12.8039,-12.793,-12.8074,-12.8217,-12.8503,-12.8786,-12.9031,-12.9309,-12.9412,-12.9377,-12.9364,-12.9467,-12.9114,-12.886,-12.8653,-12.8541,-12.875,-12.9498,-13.032,-13.0572,-13.0938,-13.1342,-13.1855,-13.2327,-13.2658,-13.2988,-13.3608,-13.4122,-13.4553,-13.5136,-13.5436,-13.5694,-13.6008,-13.6008,-13.5799,-13.5762,-13.5367,-13.5183,-13.4989,-13.4338,-10.5396,-10.5427,-10.5766,-10.6104,-10.6381,-10.6504,-10.6624,-10.6712,-10.6614,-10.7025,-10.7493,-10.7735,-10.8318,-10.8775,-10.8522,-10.868,-10.8901,-10.9154,-10.9944,-11.0671,-11.1145,-11.165,-11.227,-11.2732,-11.3085,-11.3468,-11.4164,-11.468,-11.4851,-11.5021,-11.5191,-11.5191,-11.5191,-11.5191,-11.5191,-11.5223,-11.5385,-11.5709,-11.6665,-11.7994,-11.9789,-12.0946,-12.1641,-12.2259,-12.3271,-12.3994,-12.4412,-12.457,-12.4884,-12.523,-12.5657,-12.617,-12.68,-12.7096,-12.7165,-12.7199,-12.7199,-12.7199,-12.7199,-12.7199,-12.7199,-12.7199,-12.7199,-12.7199,-12.7199,-12.7347,-12.7347,-12.7347,-12.7347,-12.7459,-12.7459,-12.7459,-12.7459,-12.7605,-12.7605,-12.7459,-12.7493,-12.7639,-12.7785,-12.8074,-12.8398,-12.8471,-12.8786,-12.9342,-12.9339,-12.9387,-12.9587,-12.9804,-12.9642,-12.9839,-12.9738,-12.957,-13.0146,-13.0718,-13.1085,-13.1557,-13.196,-13.2474,-13.2988,-13.3612,-13.4089,-13.4526,-13.5,-13.5179,-13.5357,-13.551,-13.5799,-13.6008,-13.6008,-13.5799,-13.5799,-13.5762,-13.5578,-13.5394,-13.5136,-10.5396,-10.5396,-10.5396,-10.5704,-10.6135,-10.5642,-10.5735,-10.6254,-10.6002,-10.6204,-10.6474,-10.7086,-10.8301,-10.9012,-10.9059,-10.947,-10.9786,-10.9881,-11.0513,-11.1018,-11.1429,-11.1903,-11.2188,-11.2555,-11.3085,-11.3959,-11.468,-11.4851,-11.5191,-11.5191,-11.5191,-11.5191,-11.5191,-11.5191,-11.5223,-11.5353,-11.5612,-11.613,-11.712,-11.8242,-11.9379,-12.0614,-12.1079,-12.1937,-12.2855,-12.3901,-12.4254,-12.4412,-12.4694,-12.5041,-12.5574,-12.6083,-12.6616,-12.6948,-12.713,-12.7199,-12.7199,-12.7199,-12.7199,-12.7199,-12.7199,-12.7199,-12.7199,-12.7199,-12.7199,-12.7199,-12.7199,-12.7199,-12.7199,-12.7199,-12.7199,-12.7199,-12.7165,-12.7199,-12.7199,-12.7199,-12.7199,-12.7199,-12.7493,-12.775,-12.7939,-12.798,-12.8507,-12.889,-12.9018,-12.9229,-12.9563,-12.986,-13.0129,-13.0566,-13.0737,-13.0371,-13.0215,-13.0792,-13.1336,-13.196,-13.2327,-13.3025,-13.3612,-13.4456,-13.5044,-13.5294,-13.533,-13.5441,-13.5588,-13.5694,-13.5694,-13.5799,-13.5799,-13.5799,-13.5799,-13.5799,-13.5867,-13.5719,-13.5897,-10.5396,-10.5396,-10.5396,-10.5489,-10.555,-10.5427,-10.5458,-10.555,-10.5637,-10.6032,-10.6607,-10.6474,-10.7067,-10.8161,-10.8507,-10.9153,-10.9896,-11.0386,-11.0829,-11.1303,-11.1808,-11.2156,-11.2492,-11.2732,-11.3468,-11.4164,-11.468,-11.5021,-11.5021,-11.5021,-11.5191,-11.5191,-11.5191,-11.5223,-11.5288,-11.5579,-11.6065,-11.669,-11.7721,-11.8746,-11.974,-12.0641,-12.154,-12.2338,-12.3223,-12.3774,-12.4095,-12.457,-12.4694,-12.5007,-12.5506,-12.6083,-12.6536,-12.6983,-12.7165,-12.7199,-12.7199,-12.7199,-12.7199,-12.7199,-12.7199,-12.7199,-12.7199,-12.7199,-12.7199,-12.7199,-12.7199,-12.7199,-12.7199,-12.7199,-12.7199,-12.7199,-12.7199,-12.7199,-12.7199,-12.7199,-12.7199,-12.7347,-12.7347,-12.7542,-12.7661,-12.791,-12.8437,-12.8608,-12.8484,-12.8865,-13.0073,-13.0353,-13.0399,-13.0988,-13.1643,-13.1053,-13.0462,-13.0388,-13.0749,-13.2034,-13.2658,-13.3392,-13.4126,-13.4716,-13.5264,-13.5514,-13.5694,-13.5481,-13.5694,-13.6008,-13.5904,-13.5694,-13.5904,-13.5904,-13.5799,-13.5799,-13.5904,-13.6008,-13.6111]}]]